[[{"header":{"parameterUnit":"m.s-1","parameterCategory":1,"la1":31.0,"la2":29.5877,"lo1":-88.7671,"lo2":-86.6584,"dx":0.0162,"dy":0.0185,"nx":115,"ny":88,"refTime":"2023-01-28T06:00:00:Z","depth":0,"parameterNumber":2,"parameterNumberName":"U-component_of_WINDS"},"data":[0.0,0.0,0.0,0.0,0.0,0.0,0.0,0.0,0.0,0.0,0.0,0.0,0.0,0.0,0.0,0.0,0.0,0.0,0.0,0.0,0.0,0.0,0.0,0.0,0.0,0.0,0.0,0.0,0.0,0.0,0.0,0.0,0.0,0.0,0.0,0.0,0.0,0.0,0.0,0.0,0.0,0.0,0.0,0.0,0.0,0.0,0.0,0.0,0.0,0.0,0.0,0.0,0.0,0.0,0.0,0.0,0.0,0.0,0.0,0.0,0.0,0.0,0.0,0.0,0.0,0.0,0.0,0.0,0.0,0.0,0.0,0.0,0.0,0.0,0.0,0.0,0.0,0.0,0.0,0.0,0.0,0.0,0.0,0.0,0.0,0.0,0.0,0.0,0.0,0.0,0.0,0.0,0.0,0.0,0.0,0.0,0.0,0.0,0.0,0.0,0.0,0.0,0.0,0.0,0.0,0.0,0.0,0.0,0.0,0.0,0.0,0.0,0.0,0.0,0.0,0.0,0.0,0.0,0.0,0.0,0.0,0.0,0.0,0.0,0.0,0.0,0.0,0.0,0.0,0.0,0.0,0.0,0.0,0.0,0.0,0.0,0.0,0.0,0.0,0.0,0.0,0.0,0.0,0.0,0.0,0.0,0.0,0.0,0.0,0.0,0.0,0.0,0.0,0.0,0.0,0.0,0.0,0.0,0.0,0.0,0.0,0.0,0.0,0.0,0.0,0.0,0.0,0.0,0.0,0.0,0.0,0.0,0.0,0.0,0.0,0.0,0.0,0.0,0.0,0.0,0.0,0.0,0.0,0.0,0.0,0.0,0.0,0.0,0.0,0.0,0.0,0.0,0.0,0.0,0.0,0.0,0.0,0.0,0.0,0.0,0.0,0.0,0.0,0.0,0.0,0.0,0.0,0.0,0.0,0.0,0.0,0.0,0.0,0.0,0.0,0.0,0.0,0.0,0.0,0.0,0.0,0.0,0.0,0.0,0.0,0.0,0.0,0.0,0.0,0.0,0.0,0.0,0.0,0.0,0.0,0.0,0.0,0.0,0.0,0.0,0.0,0.0,0.0,0.0,0.0,0.0,0.0,0.0,0.0,0.0,0.0,0.0,0.0,0.0,0.0,0.0,0.0,0.0,0.0,0.0,0.0,0.0,0.0,0.0,0.0,0.0,0.0,0.0,0.0,0.0,0.0,0.0,0.0,0.0,0.0,0.0,0.0,0.0,0.0,0.0,0.0,0.0,0.0,0.0,0.0,0.0,0.0,0.0,0.0,0.0,0.0,0.0,0.0,0.0,0.0,0.0,0.0,0.0,0.0,0.0,0.0,0.0,0.0,0.0,0.0,0.0,0.0,0.0,0.0,0.0,0.0,0.0,0.0,0.0,0.0,0.0,0.0,0.0,0.0,0.0,0.0,0.0,0.0,0.0,0.0,0.0,0.0,0.0,0.0,0.0,0.0,0.0,0.0,0.0,0.0,0.0,0.0,0.0,0.0,0.0,0.0,0.0,0.0,0.0,0.0,0.0,0.0,0.0,0.0,0.0,0.0,0.0,0.0,0.0,0.0,0.0,0.0,0.0,0.0,0.0,0.0,0.0,0.0,0.0,0.0,0.0,0.0,0.0,0.0,0.0,0.0,0.0,0.0,0.0,0.0,0.0,0.0,0.0,0.0,0.0,0.0,0.0,0.0,0.0,0.0,0.0,0.0,0.0,0.0,0.0,0.0,0.0,0.0,0.0,0.0,0.0,0.0,0.0,0.0,0.0,0.0,0.0,0.0,0.0,0.0,0.0,0.0,0.0,0.0,0.0,0.0,0.0,0.0,0.0,0.0,0.0,0.0,0.0,0.0,0.0,0.0,0.0,0.0,0.0,0.0,0.0,0.0,0.0,0.0,0.0,0.0,0.0,0.0,0.0,0.0,0.0,0.0,0.0,0.0,0.0,0.0,0.0,0.0,0.0,0.0,0.0,0.0,0.0,0.0,0.0,0.0,0.0,0.0,0.0,0.0,0.0,0.0,0.0,0.0,0.0,0.0,0.0,0.0,0.0,0.0,0.0,0.0,0.0,0.0,0.0,0.0,0.0,0.0,0.0,0.0,0.0,0.0,0.0,0.0,0.0,0.0,0.0,0.0,0.0,0.0,0.0,0.0,0.0,0.0,0.0,0.0,0.0,0.0,0.0,0.0,0.0,0.0,0.0,0.0,0.0,0.0,0.0,0.0,0.0,0.0,0.0,0.0,0.0,0.0,0.0,0.0,0.0,0.0,0.0,0.0,0.0,0.0,0.0,0.0,0.0,0.0,0.0,0.0,0.0,0.0,0.0,0.0,0.0,0.0,0.0,0.0,0.0,0.0,0.0,0.0,0.0,0.0,0.0,0.0,0.0,0.0,0.0,0.0,0.0,0.0,0.0,0.0,0.0,0.0,0.0,0.0,0.0,0.0,0.0,0.0,0.0,0.0,0.0,0.0,0.0,0.0,0.0,0.0,0.0,0.0,0.0,0.0,0.0,0.0,0.0,0.0,0.0,0.0,0.0,0.0,0.0,0.0,0.0,0.0,0.0,0.0,0.0,0.0,0.0,0.0,0.0,0.0,0.0,0.0,0.0,0.0,0.0,0.0,0.0,0.0,0.0,0.0,0.0,0.0,0.0,0.0,0.0,0.0,0.0,0.0,0.0,0.0,0.0,0.0,0.0,0.0,0.0,0.0,0.0,0.0,0.0,0.0,0.0,0.0,0.0,0.0,0.0,0.0,0.0,0.0,0.0,0.0,0.0,0.0,0.0,0.0,0.0,0.0,0.0,0.0,0.0,0.0,0.0,0.0,0.0,0.0,0.0,0.0,0.0,0.0,0.0,0.0,0.0,0.0,0.0,0.0,0.0,0.0,0.0,0.0,0.0,0.0,0.0,0.0,0.0,0.0,0.0,0.0,0.0,0.0,0.0,0.0,0.0,0.0,0.0,0.0,0.0,0.0,0.0,0.0,0.0,0.0,0.0,0.0,0.0,0.0,0.0,0.0,0.0,0.0,0.0,0.0,0.0,0.0,0.0,0.0,0.0,0.0,0.0,0.0,0.0,0.0,0.0,0.0,0.0,0.0,0.0,0.0,0.0,0.0,0.0,0.0,0.0,0.0,0.0,0.0,0.0,0.0,0.0,0.0,0.0,0.0,0.0,0.0,0.0,0.0,0.0,0.0,0.0,0.0,0.0,0.0,0.0,0.0,0.0,0.0,0.0,0.0,0.0,0.0,0.0,0.0,0.0,0.0,0.0,0.0,0.0,0.0,0.0,0.0,0.0,0.0,0.0,0.0,0.0,0.0,0.0,0.0,0.0,0.0,0.0,0.0,0.0,0.0,0.0,0.0,0.0,0.0,0.0,0.0,0.0,0.0,0.0,0.0,0.0,0.0,0.0,0.0,0.0,0.0,0.0,0.0,0.0,0.0,0.0,0.0,0.0,0.0,0.0,0.0,0.0,0.0,0.0,0.0,0.0,0.0,0.0,0.0,0.0,0.0,0.0,0.0,0.0,0.0,0.0,0.0,0.0,0.0,0.0,0.0,0.0,0.0,0.0,0.0,0.0,0.0,0.0,0.0,0.0,0.0,0.0,0.0,0.0,0.0,0.0,0.0,0.0,0.0,0.0,0.0,0.0,0.0,0.0,0.0,0.0,0.0,0.0,0.0,0.0,0.0,0.0,0.0,0.0,0.0,0.0,0.0,0.0,0.0,0.0,0.0,0.0,0.0,0.0,0.0,0.0,0.0,0.0,0.0,0.0,0.0,0.0,0.0,0.0,0.0,0.0,0.0,0.0,0.0,0.0,0.0,0.0,0.0,0.0,0.0,0.0,0.0,0.0,0.0,0.0,0.0,0.0,0.0,0.0,0.0,0.0,0.0,0.0,0.0,0.0,0.0,0.0,0.0,0.0,0.0,0.0,0.0,0.0,0.0,0.0,0.0,0.0,0.0,0.0,0.0,0.0,0.0,0.0,0.0,0.0,0.0,0.0,0.0,0.0,0.0,0.0,0.0,0.0,0.0,0.0,0.0,0.0,0.0,0.0,0.0,0.0,0.0,0.0,0.0,0.0,0.0,0.0,0.0,0.0,0.0,0.0,0.0,0.0,0.0,0.0,0.0,0.0,0.0,0.0,0.0,0.0,0.0,0.0,0.0,0.0,0.0,0.0,0.0,0.0,0.0,0.0,0.0,0.0,0.0,0.0,0.0,0.0,0.0,0.0,0.0,0.0,0.0,0.0,0.0,0.0,0.0,0.0,1.3503,0.0,0.0,0.0,0.0,0.0,0.0,0.0,0.0,0.0,0.0,0.0,0.0,0.0,0.0,0.0,0.0,0.0,0.0,0.0,0.0,0.0,0.0,0.0,0.0,0.0,0.0,0.0,0.0,0.0,0.0,0.0,0.0,0.0,0.0,0.0,0.0,0.0,0.0,0.0,0.0,0.0,0.0,0.0,0.0,0.0,0.0,0.0,0.0,0.0,0.0,0.0,0.0,0.0,0.0,0.0,0.0,0.0,0.0,0.0,0.0,0.0,0.0,0.0,0.0,0.0,0.0,0.0,0.0,0.0,0.0,0.0,0.0,0.0,0.0,0.0,0.0,0.0,0.0,0.0,0.0,0.0,0.0,0.0,0.0,0.0,0.0,0.0,0.0,0.0,0.0,0.0,0.0,0.0,0.0,0.0,0.0,0.0,0.0,0.0,0.0,0.0,0.0,0.0,0.0,0.0,0.0,0.0,0.0,0.0,0.0,1.4215,1.3796,1.3591,1.3408,1.3174,0.0,0.0,0.0,0.0,0.0,0.0,0.0,0.0,0.0,0.0,0.0,0.0,0.0,0.0,0.0,0.0,0.0,0.0,0.0,0.0,0.0,0.0,0.0,0.0,0.0,0.0,0.0,0.0,0.0,0.0,0.0,0.0,0.0,0.0,0.0,0.0,0.0,0.0,0.0,0.0,0.0,0.0,0.0,0.0,0.0,0.0,0.0,0.0,0.0,0.0,0.0,0.0,0.0,0.0,0.0,0.0,0.0,0.0,0.0,0.0,0.0,0.0,0.0,0.0,0.0,0.0,0.0,0.0,0.0,0.0,0.0,0.0,0.0,0.0,0.0,0.0,0.0,0.0,0.0,0.0,0.0,0.0,0.0,0.0,0.0,0.0,0.0,0.0,0.0,0.0,0.0,0.0,0.0,0.0,0.0,0.0,0.0,0.0,0.0,0.0,0.0,0.0,0.0,0.0,0.0,0.0,0.0,0.0,0.0,0.0,0.0,0.0,1.3347,1.32,1.2876,0.0,0.0,0.0,0.0,0.0,0.0,0.0,0.0,0.0,0.0,0.0,0.0,0.0,0.0,0.0,0.0,0.0,0.0,0.0,0.0,0.0,0.0,0.0,0.0,0.0,0.0,0.0,0.0,0.0,0.0,0.0,0.0,0.0,0.0,0.0,0.0,0.0,0.0,0.0,0.0,0.0,0.0,0.0,0.0,0.0,0.0,0.0,0.0,0.0,0.0,0.0,0.0,0.0,0.0,0.0,0.0,0.0,0.0,0.0,0.0,0.0,0.0,0.0,0.0,0.0,0.0,0.0,0.0,0.0,0.0,0.0,0.0,0.0,0.0,0.0,0.0,0.0,0.0,0.0,0.0,0.0,0.0,0.0,0.0,0.0,0.0,0.0,0.0,0.0,0.0,0.0,0.0,0.0,0.0,0.0,0.0,0.0,0.0,0.0,0.0,0.0,0.0,0.0,0.0,0.0,0.0,0.0,0.0,0.0,0.0,1.3246,1.2983,1.2961,0.0,1.2722,0.0,0.0,0.0,0.0,0.0,0.0,0.0,0.0,0.0,0.0,0.0,0.0,0.0,0.0,0.0,0.0,0.0,0.0,0.0,0.0,0.0,0.0,0.0,0.0,0.0,0.0,0.0,0.0,0.0,0.0,0.0,0.0,0.0,0.0,0.0,0.0,0.0,0.0,0.0,0.0,0.0,0.0,0.0,0.0,0.0,0.0,0.0,0.0,0.0,0.0,0.0,0.0,0.0,0.0,0.0,0.0,0.0,0.0,0.0,0.0,0.0,0.0,0.0,0.0,0.0,0.0,0.0,0.0,0.0,0.0,0.0,0.0,0.0,0.0,0.0,0.0,0.0,0.0,0.0,0.0,0.0,0.0,0.0,0.0,0.0,0.0,0.0,0.0,0.0,0.0,0.0,0.0,0.0,0.0,0.0,0.0,0.0,0.0,0.0,0.0,0.0,0.0,0.0,0.0,0.0,0.0,0.0,0.0,0.0,0.0,1.2923,1.2915,1.2915,1.2844,0.0,0.0,0.0,0.0,0.0,0.0,0.0,0.0,0.0,0.0,0.0,0.0,0.0,0.0,0.0,0.0,0.0,0.0,0.0,0.0,0.0,0.0,0.0,0.0,0.0,0.0,0.0,0.0,0.0,0.0,0.0,0.0,0.0,0.0,0.0,0.0,0.0,0.0,0.0,0.0,0.0,0.0,0.0,0.0,0.0,0.0,0.0,0.0,0.0,0.0,0.0,0.0,0.0,0.0,0.0,0.0,0.0,0.0,0.0,0.0,0.0,0.0,0.0,0.0,0.0,0.0,0.0,0.0,0.0,0.0,0.0,0.0,0.0,0.0,0.0,0.0,0.0,0.0,0.0,0.0,0.0,0.0,0.0,0.0,0.0,0.0,0.0,0.0,0.0,0.0,0.0,0.0,0.0,0.0,0.0,0.0,0.0,0.0,0.0,0.0,0.0,0.0,0.0,0.0,0.0,0.0,0.0,0.0,0.0,0.0,1.259,1.2735,1.2893,1.2915,1.282,1.2639,0.0,0.0,0.0,0.0,0.0,0.0,0.0,0.0,0.0,0.0,0.0,0.0,0.0,0.0,0.0,0.0,0.0,0.0,0.0,0.0,0.0,0.0,0.0,0.0,0.0,0.0,0.0,0.0,0.0,0.0,0.0,0.0,0.0,0.0,0.0,0.0,0.0,0.0,0.0,0.0,0.0,0.0,0.0,0.0,0.0,0.0,0.0,0.0,0.0,0.0,0.0,0.0,0.0,0.0,0.0,0.0,0.0,0.0,0.0,0.0,0.0,0.0,0.0,0.0,0.0,0.0,0.0,0.0,0.0,0.0,0.0,0.0,0.0,0.0,0.0,0.0,0.0,0.0,0.0,0.0,0.0,0.0,0.0,0.0,0.0,0.0,0.0,0.0,0.0,0.0,0.0,0.0,0.0,0.0,0.0,0.0,0.0,0.0,0.0,0.0,0.0,0.0,0.0,0.0,0.0,0.0,0.0,0.0,1.2492,1.2517,1.2639,1.2893,1.2915,1.2774,0.0,0.0,0.0,0.0,0.0,0.0,0.0,0.0,0.0,0.0,0.0,0.0,0.0,0.0,0.0,0.0,0.0,0.0,0.0,0.0,0.0,0.0,0.0,0.0,0.0,0.0,0.0,0.0,0.0,0.0,0.0,0.0,0.0,0.0,0.0,0.0,0.0,0.0,0.0,0.0,0.0,0.0,0.0,0.0,0.0,0.0,0.0,0.0,0.0,0.0,0.0,0.0,0.0,0.0,0.0,0.0,0.0,0.0,0.0,0.0,0.0,0.0,0.0,0.0,0.0,0.0,0.0,0.0,0.0,0.0,0.0,0.0,0.0,0.0,0.0,0.0,0.0,0.0,0.0,0.0,0.0,0.0,0.0,0.0,0.0,0.0,0.0,0.0,0.0,0.0,0.0,0.0,0.0,0.0,0.0,0.0,0.0,0.0,0.0,0.0,0.0,0.0,0.0,0.0,0.0,0.0,0.0,0.0,0.0,1.248,1.2673,1.2808,1.2915,1.2915,1.2771,0.0,0.0,0.0,0.0,0.0,0.0,0.0,0.0,0.0,0.0,0.0,0.0,0.0,0.0,0.0,0.0,0.0,0.0,0.0,0.0,0.0,0.0,0.0,0.0,0.0,0.0,0.0,0.0,0.0,0.0,0.0,0.0,0.0,0.0,0.0,0.0,0.0,0.0,0.0,0.0,0.0,0.0,0.0,0.0,0.0,0.0,0.0,0.0,0.0,0.0,0.0,0.0,0.0,0.0,0.0,0.0,0.0,0.0,0.0,0.0,0.0,0.0,0.0,0.0,0.0,0.0,0.0,0.0,0.0,0.0,0.0,0.0,0.0,0.0,0.0,0.0,0.0,0.0,0.0,0.0,0.0,0.0,0.0,0.0,0.0,0.0,0.0,0.0,0.0,0.0,0.0,0.0,0.0,0.0,0.0,0.0,0.0,0.0,0.0,0.0,0.0,0.0,0.0,0.0,0.0,0.0,0.0,0.0,0.0,1.2492,0.0,1.2915,1.2915,1.2915,1.2808,0.0,0.0,0.0,0.0,0.0,0.0,0.0,0.0,0.0,0.0,0.0,0.0,0.0,0.0,0.0,0.0,0.0,0.0,0.0,0.0,0.0,0.0,0.0,0.0,0.0,0.0,0.0,0.0,0.0,0.0,0.0,0.0,0.0,0.0,0.0,0.0,0.0,0.0,0.0,0.0,0.0,0.0,0.0,0.0,0.0,0.0,0.0,0.0,0.0,0.0,0.0,0.0,0.0,0.0,0.0,0.0,0.0,0.0,0.0,0.0,0.0,0.0,0.0,0.0,0.0,0.0,0.0,0.0,0.0,0.0,0.0,0.0,0.0,0.0,0.0,0.0,0.0,0.0,0.0,0.0,0.0,0.0,0.0,0.0,0.0,0.0,0.0,0.0,0.0,0.0,0.0,0.0,0.0,0.0,0.0,0.0,0.0,0.0,0.0,0.0,0.0,0.0,0.0,0.0,0.0,0.0,0.0,0.0,1.1968,1.2471,1.2771,1.2915,1.2915,1.2915,1.2832,0.0,0.0,0.0,0.0,0.0,0.0,0.0,0.0,0.0,0.0,0.0,0.0,0.0,0.0,0.0,0.0,0.0,0.0,0.0,0.0,0.0,0.0,0.0,0.0,0.0,0.0,0.0,0.0,0.0,0.0,0.0,0.0,0.0,0.0,0.0,0.0,0.0,0.0,0.0,0.0,0.0,0.0,0.0,0.0,0.0,0.0,0.0,0.0,0.0,0.0,0.0,0.0,0.0,0.0,0.0,0.0,0.0,0.0,0.0,0.0,0.0,0.0,0.0,0.0,0.0,0.0,0.0,0.0,0.0,0.0,0.0,0.0,0.0,0.0,0.0,0.0,0.0,0.0,0.0,0.0,0.0,0.0,0.0,0.0,0.0,0.0,0.0,0.0,0.0,0.0,0.0,0.0,0.0,0.0,0.0,0.0,0.0,0.0,0.0,0.0,0.0,0.0,0.0,0.0,0.0,0.0,0.0,0.0,0.0,1.2637,1.2808,1.2915,1.2915,1.2915,1.2832,0.0,0.0,0.0,0.0,0.0,0.0,0.0,0.0,0.0,0.0,0.0,0.0,0.0,0.0,0.0,0.0,0.0,0.0,0.0,0.0,0.0,0.0,0.0,0.0,0.0,0.0,0.0,0.0,0.0,0.0,0.0,0.0,0.0,0.0,0.0,0.0,0.0,0.0,0.0,0.0,0.0,0.0,0.0,0.0,0.0,0.0,0.0,0.0,0.0,0.0,0.0,0.0,0.0,0.0,0.0,0.0,0.0,0.0,0.0,0.0,0.0,0.0,0.0,0.0,0.0,0.0,0.0,0.0,0.0,0.0,0.0,0.0,0.0,0.0,0.0,0.0,0.0,0.0,0.0,0.0,0.0,0.0,0.0,0.0,0.0,0.0,0.0,0.0,0.0,0.0,0.0,0.0,0.0,0.0,0.0,0.0,0.0,0.0,0.0,0.0,0.0,0.0,0.0,0.0,0.0,0.0,0.0,0.0,0.0,1.3004,1.3128,1.3256,1.3327,1.3243,1.314,1.2994,0.0,0.0,0.0,0.0,0.0,0.0,0.0,0.0,0.0,0.0,0.0,0.0,0.0,0.0,0.0,0.0,0.0,0.0,0.0,0.0,0.0,0.0,0.0,0.0,0.0,0.0,0.0,0.0,0.0,0.0,0.0,0.0,0.0,0.0,0.0,0.0,0.0,0.0,0.0,0.0,0.0,0.0,0.0,0.0,0.0,0.0,0.0,0.0,0.0,0.0,0.0,0.0,0.0,0.0,0.0,0.0,0.0,0.0,0.0,0.0,0.0,0.0,0.0,0.0,0.0,0.0,0.0,0.0,0.0,0.0,0.0,0.0,0.0,0.0,0.0,0.0,0.0,0.0,0.0,0.0,0.0,0.0,0.0,0.0,0.0,0.0,0.0,0.0,0.0,0.0,0.0,0.0,0.0,0.0,0.0,0.0,0.0,0.0,0.0,0.0,0.0,0.0,0.0,0.0,0.0,0.0,0.0,0.0,1.3561,1.3699,1.3877,1.4065,1.3811,1.363,0.0,0.0,0.0,0.0,0.0,0.0,0.0,0.0,0.0,0.0,0.0,0.0,0.0,0.0,0.0,0.0,0.0,0.0,0.0,0.0,0.0,0.0,0.0,0.0,0.0,0.0,0.0,0.0,0.0,0.0,0.0,0.0,0.0,0.0,0.0,0.0,0.0,0.0,0.0,0.0,0.0,0.0,0.0,0.0,0.0,0.0,0.0,0.0,0.0,0.0,0.0,0.0,0.0,0.0,0.0,0.0,0.0,0.0,0.0,0.0,0.0,0.0,0.0,0.0,0.0,0.0,0.0,0.0,0.0,0.0,0.0,0.0,0.0,0.0,0.0,0.0,0.0,0.0,0.0,0.0,0.0,0.0,0.0,0.0,0.0,0.0,0.0,0.0,0.0,0.0,0.0,0.0,0.0,0.0,0.0,0.0,0.0,0.0,0.0,0.0,0.0,0.0,0.0,0.0,0.0,0.0,0.0,0.0,0.0,1.4414,1.4589,1.4491,1.4104,1.3743,1.3531,0.0,0.0,0.0,0.0,0.0,0.0,0.0,0.0,0.0,0.0,0.0,0.0,0.0,0.0,0.0,0.0,0.0,0.0,0.0,0.0,0.0,0.0,0.0,0.0,0.0,0.0,0.0,0.0,0.0,0.0,0.0,0.0,0.0,0.0,0.0,0.0,0.0,0.0,0.0,0.0,0.0,0.0,0.0,0.0,0.0,0.0,0.0,0.0,0.0,0.0,0.0,0.0,0.0,0.0,0.0,0.0,0.0,0.0,0.0,0.0,0.0,0.0,0.0,0.0,0.0,0.0,0.0,0.0,0.0,0.0,0.0,0.0,0.0,0.0,0.0,0.0,0.0,0.0,0.0,0.0,0.0,0.0,0.0,0.0,0.0,0.0,0.0,0.0,0.0,0.0,0.0,0.0,0.0,0.0,0.0,0.0,0.0,0.0,0.0,0.0,0.0,0.0,0.0,0.0,0.0,0.0,0.0,0.0,1.3848,1.4766,1.5032,1.4992,1.465,1.4308,1.4018,0.0,0.0,0.0,0.0,0.0,0.0,0.0,0.0,0.0,0.0,0.0,0.0,0.0,0.0,0.0,0.0,0.0,0.0,0.0,0.0,0.0,0.0,0.0,0.0,0.0,0.0,0.0,0.0,0.0,0.0,0.0,0.0,0.0,0.0,0.0,0.0,0.0,0.0,0.0,0.0,0.0,0.0,0.0,0.0,0.0,0.0,0.0,0.0,0.0,0.0,0.0,0.0,0.0,0.0,0.0,0.0,0.0,0.0,0.0,0.0,0.0,0.0,0.0,0.0,0.0,0.0,0.0,0.0,0.0,0.0,0.0,0.0,0.0,0.0,0.0,0.0,0.0,0.0,0.0,0.0,0.0,0.0,0.0,0.0,0.0,0.0,0.0,0.0,0.0,0.0,0.0,0.0,0.0,0.0,0.0,0.0,0.0,0.0,0.0,0.0,0.0,0.0,0.0,0.0,0.0,0.0,0.0,0.0,1.4178,1.4858,1.52,1.541,1.54,1.5123,1.4714,0.0,0.0,0.0,0.0,0.0,0.0,0.0,0.0,0.0,0.0,0.0,0.0,0.0,0.0,0.0,0.0,0.0,0.0,0.0,0.0,0.0,0.0,0.0,0.0,0.0,0.0,0.0,0.0,0.0,0.0,0.0,0.0,0.0,0.0,0.0,0.0,0.0,0.0,0.0,0.0,0.0,0.0,0.0,0.0,0.0,0.0,0.0,0.0,0.0,0.0,0.0,0.0,0.0,0.0,0.0,0.0,0.0,0.0,0.0,0.0,0.0,0.0,0.0,0.0,0.0,0.0,0.0,0.0,0.0,0.0,0.0,0.0,0.0,0.0,0.0,0.0,0.0,0.0,0.0,0.0,0.0,0.0,0.0,0.0,0.0,0.0,0.0,0.0,0.0,0.0,0.0,0.0,0.0,0.0,0.0,0.0,0.0,0.0,0.0,0.0,0.0,0.0,0.0,0.0,0.0,0.0,0.0,0.0,1.4605,1.5245,1.5347,1.542,1.542,1.5038,1.4621,0.0,0.0,0.0,0.0,0.0,0.0,0.0,0.0,0.0,0.0,0.0,0.0,0.0,0.0,0.0,0.0,0.0,0.0,0.0,0.0,0.0,0.0,0.0,0.0,0.0,0.0,0.0,0.0,0.0,0.0,0.0,0.0,0.0,0.0,0.0,0.0,0.0,0.0,0.0,0.0,0.0,0.0,0.0,0.0,0.0,0.0,0.0,0.0,1.4084,0.0,0.0,0.0,0.0,0.0,0.0,0.0,0.0,0.0,0.0,0.0,0.0,0.0,0.0,0.0,0.0,0.0,0.0,0.0,0.0,0.0,0.0,0.0,0.0,0.0,0.0,0.0,0.0,0.0,0.0,0.0,0.0,0.0,0.0,0.0,0.0,0.0,0.0,0.0,0.0,0.0,0.0,0.0,0.0,0.0,0.0,0.0,0.0,0.0,0.0,0.0,0.0,0.0,0.0,0.0,0.0,0.0,0.0,0.0,1.4725,1.5386,1.542,1.542,1.5396,1.5195,1.4869,0.0,0.0,0.0,0.0,0.0,0.0,0.0,0.0,0.0,0.0,0.0,0.0,0.0,0.0,0.0,0.0,0.0,0.0,0.0,0.0,0.0,0.0,0.0,0.0,0.0,0.0,0.0,0.0,0.0,0.0,0.0,0.0,0.0,0.0,0.0,0.0,0.0,0.0,0.0,0.0,0.0,0.0,0.0,0.0,0.0,0.0,0.0,0.0,0.0,0.0,0.0,0.0,0.0,0.0,0.0,0.0,0.0,0.0,0.0,0.0,0.0,0.0,0.0,0.0,0.0,0.0,0.0,0.0,0.0,0.0,0.0,0.0,0.0,0.0,0.0,0.0,0.0,0.0,0.0,0.0,0.0,0.0,0.0,0.0,0.0,0.0,0.0,0.0,0.0,0.0,0.0,0.0,0.0,0.0,0.0,0.0,0.0,0.0,0.0,0.0,0.0,0.0,0.0,0.0,0.0,0.0,0.0,1.4175,1.4792,1.5376,1.542,1.542,1.542,1.542,1.5215,1.4795,0.0,0.0,0.0,0.0,0.0,0.0,0.0,0.0,0.0,0.0,0.0,0.0,0.0,0.0,0.0,0.0,0.0,0.0,0.0,0.0,0.0,0.0,0.0,0.0,0.0,0.0,0.0,0.0,0.0,0.0,0.0,0.0,0.0,0.0,0.0,0.0,0.0,0.0,1.3511,1.3957,0.0,0.0,0.0,0.0,0.0,0.0,0.0,0.0,1.4651,0.0,0.0,0.0,0.0,0.0,0.0,0.0,0.0,0.0,0.0,0.0,0.0,0.0,0.0,0.0,0.0,0.0,0.0,0.0,0.0,0.0,0.0,0.0,0.0,0.0,0.0,0.0,0.0,0.0,0.0,0.0,0.0,0.0,0.0,0.0,0.0,0.0,0.0,0.0,0.0,0.0,0.0,0.0,0.0,0.0,0.0,0.0,0.0,0.0,0.0,0.0,0.0,0.0,0.0,0.0,0.0,1.3599,1.4449,1.507,1.5396,1.542,1.542,1.542,1.542,1.5215,1.4819,0.0,0.0,0.0,0.0,0.0,0.0,0.0,0.0,0.0,0.0,0.0,0.0,0.0,0.0,0.0,0.0,0.0,0.0,0.0,0.0,0.0,0.0,0.0,0.0,0.0,0.0,0.0,0.0,0.0,0.0,0.0,0.0,0.0,0.0,0.0,0.0,0.0,0.0,0.0,1.4067,1.4208,0.0,0.0,0.0,0.0,0.0,0.0,0.0,0.0,1.4622,0.0,0.0,0.0,0.0,0.0,0.0,0.0,0.0,0.0,0.0,0.0,0.0,0.0,0.0,0.0,0.0,0.0,0.0,0.0,0.0,0.0,0.0,0.0,0.0,0.0,0.0,0.0,0.0,0.0,0.0,0.0,0.0,0.0,0.0,0.0,0.0,0.0,0.0,0.0,0.0,0.0,0.0,0.0,0.0,0.0,0.0,0.0,0.0,0.0,0.0,0.0,0.0,0.0,0.0,0.0,1.4015,1.4744,1.5205,1.5405,1.542,1.542,1.542,1.542,1.5215,0.0,0.0,0.0,0.0,0.0,0.0,0.0,0.0,0.0,0.0,0.0,0.0,0.0,0.0,0.0,0.0,0.0,0.0,0.0,0.0,0.0,0.0,0.0,0.0,0.0,0.0,0.0,0.0,0.0,0.0,0.0,0.0,0.0,0.0,0.0,0.0,0.0,0.0,0.0,0.0,1.4376,1.4535,1.4736,0.0,0.0,0.0,0.0,0.0,0.0,1.5278,1.5154,0.0,0.0,0.0,0.0,0.0,0.0,0.0,0.0,0.0,0.0,0.0,0.0,0.0,0.0,0.0,0.0,0.0,0.0,0.0,0.0,0.0,0.0,0.0,0.0,0.0,0.0,0.0,0.0,0.0,0.0,0.0,0.0,0.0,0.0,0.0,0.0,0.0,0.0,0.0,0.0,0.0,0.0,0.0,0.0,0.0,0.0,0.0,0.0,0.0,0.0,0.0,0.0,0.0,0.0,0.0,1.4378,1.4931,1.5264,1.5396,1.542,1.542,1.542,1.542,1.5161,0.0,0.0,0.0,0.0,0.0,0.0,0.0,0.0,0.0,0.0,0.0,0.0,0.0,0.0,0.0,0.0,0.0,0.0,0.0,0.0,0.0,0.0,0.0,0.0,0.0,0.0,0.0,0.0,0.0,0.0,0.0,0.0,0.0,0.0,0.0,0.0,0.0,0.0,0.0,0.0,0.0,1.4811,1.5044,1.5217,0.0,0.0,0.0,0.0,1.5189,1.5595,0.0,0.0,0.0,0.0,0.0,0.0,0.0,0.0,0.0,0.0,0.0,0.0,0.0,0.0,0.0,0.0,0.0,0.0,0.0,0.0,0.0,0.0,0.0,0.0,0.0,0.0,0.0,0.0,0.0,0.0,0.0,0.0,0.0,0.0,0.0,0.0,0.0,0.0,0.0,0.0,0.0,0.0,0.0,0.0,0.0,0.0,0.0,0.0,0.0,0.0,0.0,0.0,0.0,0.0,0.0,0.0,1.4378,1.4931,1.5254,1.5405,1.542,1.542,1.542,1.542,1.5001,0.0,0.0,0.0,0.0,0.0,0.0,0.0,0.0,0.0,0.0,0.0,0.0,0.0,0.0,0.0,0.0,0.0,0.0,0.0,0.0,0.0,0.0,0.0,0.0,0.0,0.0,0.0,0.0,0.0,0.0,0.0,0.0,0.0,0.0,0.0,0.0,0.0,0.0,0.0,0.0,0.0,1.4732,1.5277,1.5521,1.5612,0.0,0.0,1.5651,1.5617,1.5546,0.0,0.0,0.0,0.0,0.0,0.0,0.0,0.0,0.0,0.0,0.0,0.0,0.0,0.0,0.0,0.0,0.0,0.0,0.0,0.0,0.0,0.0,0.0,0.0,0.0,0.0,0.0,0.0,0.0,0.0,0.0,0.0,0.0,0.0,0.0,0.0,0.0,0.0,0.0,0.0,0.0,0.0,0.0,0.0,0.0,0.0,0.0,0.0,0.0,0.0,0.0,0.0,0.0,0.0,0.0,1.3835,1.471,1.5109,1.5357,1.5396,1.542,1.542,1.542,1.542,1.5113,0.0,0.0,0.0,0.0,0.0,0.0,0.0,0.0,0.0,0.0,0.0,0.0,0.0,0.0,0.0,0.0,0.0,0.0,0.0,0.0,0.0,0.0,0.0,0.0,0.0,0.0,0.0,0.0,0.0,0.0,0.0,0.0,0.0,0.0,0.0,0.0,0.0,0.0,0.0,0.0,0.0,0.0,1.5322,1.5464,0.0,0.0,0.0,1.5658,1.5536,0.0,0.0,0.0,0.0,0.0,0.0,0.0,0.0,0.0,0.0,0.0,0.0,0.0,0.0,0.0,0.0,0.0,0.0,0.0,0.0,0.0,0.0,0.0,0.0,0.0,0.0,0.0,0.0,0.0,0.0,0.0,0.0,0.0,0.0,0.0,0.0,0.0,0.0,0.0,0.0,0.0,0.0,0.0,0.0,0.0,0.0,0.0,0.0,0.0,0.0,0.0,0.0,0.0,0.0,0.0,0.0,0.0,1.4966,1.5259,1.542,1.542,1.542,1.542,1.542,1.542,0.0,0.0,0.0,0.0,0.0,0.0,0.0,0.0,0.0,0.0,0.0,0.0,0.0,0.0,0.0,0.0,0.0,0.0,0.0,0.0,0.0,0.0,0.0,0.0,0.0,0.0,0.0,1.2158,0.0,0.0,0.0,0.0,0.0,0.0,0.0,0.0,0.0,0.0,0.0,0.0,0.0,0.0,1.4685,1.5307,1.542,1.542,0.0,0.0,1.5575,1.5434,1.5522,1.5477,0.0,0.0,0.0,0.0,0.0,0.0,0.0,0.0,0.0,0.0,0.0,0.0,0.0,0.0,0.0,0.0,0.0,0.0,0.0,0.0,0.0,0.0,0.0,0.0,0.0,0.0,0.0,0.0,0.0,0.0,0.0,0.0,0.0,0.0,0.0,0.0,0.0,0.0,0.0,0.0,0.0,0.0,0.0,0.0,0.0,0.0,0.0,0.0,0.0,0.0,0.0,0.0,0.0,0.0,0.0,1.4962,1.5259,1.542,1.542,1.542,1.542,1.542,1.542,1.5143,0.0,0.0,0.0,0.0,0.0,0.0,0.0,0.0,0.0,0.0,0.0,0.0,0.0,0.0,0.0,0.0,0.0,0.0,0.0,0.0,0.0,0.0,0.0,0.0,0.0,0.0,0.0,0.0,0.0,0.0,0.0,0.0,0.0,0.0,0.0,0.0,0.0,0.0,0.0,0.0,0.0,1.458,1.5307,1.542,1.542,0.0,0.0,1.542,1.542,1.542,1.5376,1.5196,0.0,0.0,0.0,0.0,0.0,0.0,0.0,0.0,0.0,0.0,0.0,0.0,0.0,0.0,0.0,0.0,0.0,0.0,0.0,0.0,0.0,0.0,0.0,0.0,0.0,0.0,0.0,0.0,0.0,0.0,0.0,0.0,0.0,0.0,0.0,0.0,0.0,0.0,0.0,0.0,0.0,0.0,0.0,0.0,0.0,0.0,0.0,0.0,0.0,0.0,0.0,0.0,0.0,1.4142,1.499,1.5259,1.542,1.542,1.542,1.542,1.542,1.542,1.5269,0.0,0.0,0.0,0.0,0.0,0.0,0.0,0.0,0.0,0.0,0.0,0.0,0.0,0.0,0.0,0.0,0.0,0.0,0.0,0.0,0.0,0.0,0.0,0.0,0.0,0.0,0.0,0.0,1.4392,1.4735,1.4348,0.0,0.0,0.0,0.0,0.0,0.0,0.0,0.0,0.0,0.0,1.4895,1.5337,1.542,0.0,0.0,1.542,1.5376,1.5308,1.522,1.5093,1.4917,1.4249,0.0,0.0,0.0,0.0,0.0,0.0,0.0,0.0,0.0,0.0,0.0,0.0,0.0,0.0,0.0,0.0,0.0,0.0,0.0,0.0,0.0,0.0,0.0,0.0,0.0,0.0,0.0,0.0,0.0,0.0,0.0,0.0,0.0,0.0,0.0,0.0,0.0,0.0,0.0,0.0,0.0,0.0,0.0,0.0,0.0,0.0,0.0,0.0,0.0,0.0,0.0,0.0,1.4193,1.4985,1.5274,1.542,1.542,1.542,1.542,1.542,1.542,1.5303,0.0,0.0,0.0,0.0,0.0,0.0,0.0,0.0,0.0,0.0,0.0,0.0,0.0,0.0,0.0,0.0,0.0,0.0,0.0,0.0,0.0,0.0,0.0,0.0,0.0,0.0,0.0,0.0,1.4567,1.4777,1.4101,0.0,0.0,0.0,0.0,0.0,0.0,0.0,0.0,0.0,0.0,1.5026,1.5303,1.5332,1.5318,1.5274,1.522,1.5147,1.5059,1.4897,1.4675,1.438,0.0,0.0,0.0,0.0,0.0,0.0,0.0,0.0,0.0,0.0,0.0,0.0,0.0,0.0,0.0,0.0,0.0,0.0,0.0,0.0,0.0,0.0,0.0,0.0,0.0,0.0,0.0,0.0,0.0,0.0,0.0,0.0,0.0,0.0,0.0,0.0,0.0,0.0,0.0,0.0,0.0,0.0,0.0,0.0,0.0,0.0,0.0,0.0,0.0,0.0,0.0,0.0,0.0,1.4197,1.499,1.5259,1.5396,1.5396,1.5396,1.5396,1.5396,1.542,1.5264,1.5015,0.0,0.0,0.0,0.0,0.0,0.0,0.0,0.0,0.0,0.0,0.0,0.0,0.0,0.0,0.0,0.0,0.0,0.0,0.0,0.0,0.0,0.0,0.0,0.0,0.0,0.0,1.3798,1.4331,1.4421,0.0,0.0,0.0,0.0,0.0,0.0,0.0,0.0,0.0,0.0,1.4803,1.4899,1.5177,1.5191,1.5142,1.5015,1.4834,1.4701,1.4701,1.4419,1.4046,0.0,0.0,0.0,0.0,0.0,0.0,0.0,0.0,0.0,0.0,0.0,0.0,0.0,0.0,0.0,0.0,0.0,0.0,0.0,0.0,0.0,0.0,0.0,0.0,0.0,0.0,0.0,0.9159,0.9165,0.0,0.0,0.0,0.0,0.0,0.0,0.0,0.0,0.0,0.0,0.0,1.0972,1.0966,0.0,0.0,0.0,0.0,0.0,0.0,0.0,0.0,0.0,0.0,0.0,0.0,1.397,1.4952,1.5103,1.5167,1.5264,1.5191,1.5137,1.5137,1.5137,1.5034,1.4789,0.0,0.0,0.0,0.0,0.0,0.0,0.0,0.0,0.0,0.0,0.0,0.0,0.0,0.0,0.0,0.0,0.0,0.0,0.0,0.0,0.0,0.0,0.0,0.0,0.0,1.3145,0.0,0.0,0.0,0.0,0.0,0.0,0.0,0.0,0.0,0.0,0.0,1.4477,1.477,1.4954,1.5095,1.5196,1.5005,1.475,0.0,0.0,0.0,0.0,0.0,0.0,0.0,0.0,0.0,0.0,0.0,0.0,0.0,0.0,1.191,1.2171,1.2331,1.2476,1.2585,0.0,0.0,0.0,0.0,0.0,0.0,0.0,0.0,0.0,0.0,0.0,0.0,0.0,0.0,0.0,0.0,0.9916,0.0,0.0,0.0,0.0,0.0,0.0,0.0,0.0,1.155,1.1677,1.1583,1.1566,1.1577,0.0,1.1104,1.0728,0.0,0.0,0.0,0.0,0.0,0.0,0.0,0.0,1.4049,1.4957,1.5053,1.5112,1.5195,1.5059,1.5009,1.4995,1.4941,1.4819,1.4701,1.4196,1.3596,0.0,0.0,0.0,0.0,0.0,0.0,0.0,0.0,0.0,0.0,0.0,0.0,0.0,0.0,0.0,0.0,0.0,0.0,0.0,0.0,0.0,0.0,0.0,1.3165,0.0,0.0,0.0,0.0,0.0,0.0,0.0,0.0,0.0,1.4256,1.4544,1.4788,1.4929,1.5076,1.5147,1.4985,0.0,0.0,0.0,0.0,0.0,0.0,0.0,1.2774,1.2436,1.2035,1.1611,1.1199,1.1064,1.1033,1.1041,0.0,0.0,1.2045,1.2167,1.226,1.245,1.1917,1.1434,1.1478,1.1148,1.082,0.0,0.0,0.0,0.0,0.0,0.0,0.0,0.0,1.0914,1.0891,0.0,1.0908,0.0,0.0,0.0,0.0,0.0,0.0,0.0,0.0,1.2024,1.2151,1.1933,1.1937,1.1919,1.1886,1.132,1.1105,1.1192,1.0618,0.0,0.0,0.0,0.0,0.0,0.0,1.4372,1.4961,1.5088,1.5161,1.5171,1.5029,1.4995,1.497,1.4789,1.4691,1.4677,1.4443,1.3752,1.2589,1.2497,0.0,0.0,0.0,0.0,0.0,0.0,0.0,0.0,0.0,0.0,0.0,0.0,0.0,0.0,0.0,0.0,0.0,0.0,0.0,0.0,1.2435,0.0,0.0,0.0,0.0,0.0,0.0,0.0,0.0,0.0,0.0,1.4472,1.4566,1.4725,1.5114,0.0,0.0,0.0,0.0,1.4201,1.3541,1.3179,1.2904,1.2775,1.2367,1.1957,1.1654,0.0,0.0,1.0816,1.0942,1.1052,1.1059,1.1083,1.1336,1.1842,1.1731,1.1619,1.1707,1.1484,1.1239,1.1136,1.1076,1.1041,0.9915,0.0,0.0,0.0,0.0,1.0601,1.0942,1.1391,1.1409,1.1391,1.1409,1.1391,0.0,0.0,0.0,0.0,0.0,0.0,1.1603,1.1781,1.2294,1.246,1.2396,1.2403,1.2396,1.2376,1.1903,1.1669,1.167,1.1089,1.0953,1.1211,0.0,0.0,0.0,0.0,1.3994,1.4717,1.4734,1.4749,1.4848,1.4704,1.4625,1.464,1.458,1.4565,1.4565,1.4476,1.3942,1.2905,1.2539,0.0,0.0,0.0,0.0,0.0,0.0,0.0,0.0,0.0,0.0,0.0,0.0,0.0,0.0,0.0,0.0,0.0,0.0,0.0,1.282,1.3436,1.3534,0.0,0.0,0.0,0.0,0.0,0.0,0.0,0.0,0.0,1.374,1.4045,1.435,0.0,0.0,1.4115,1.3827,1.3517,1.3093,1.2528,0.0,0.0,0.0,1.1615,1.1466,1.1279,1.0965,1.0672,1.0482,1.0498,1.0498,1.0333,1.0318,1.0467,1.0827,1.1076,1.1224,1.139,1.1114,1.0871,1.0986,1.0868,1.0728,1.0393,1.07,1.0738,1.088,1.1051,1.1133,1.1452,1.1875,1.1875,1.1712,1.1398,1.1404,1.118,1.0835,1.1011,0.0,0.0,0.0,1.1841,1.2062,1.2353,1.2489,1.2482,1.247,1.2489,1.2457,1.2076,1.1906,1.1899,1.1337,1.118,1.138,0.0,0.0,1.3371,1.369,1.4119,1.4667,1.4621,1.4621,1.4701,1.458,1.45,1.45,1.45,1.4372,1.4124,1.4372,1.3845,1.2482,1.2464,1.1908,0.0,0.0,0.0,0.0,0.0,0.0,0.0,0.0,0.0,0.0,0.0,0.941,0.9575,0.0,0.0,0.0,1.1533,1.2147,1.2466,1.2964,0.0,0.0,0.0,0.0,0.0,0.0,0.0,1.3065,1.3615,1.3788,1.3071,1.3224,1.3467,1.3619,1.3511,1.3322,1.3064,0.0,1.2428,1.1911,1.1716,1.1513,1.1256,1.1146,1.1043,1.0933,1.0751,1.053,1.0339,1.0308,1.0244,1.0053,1.0005,1.0056,1.0259,1.048,1.0702,1.0964,1.0686,1.0434,1.0584,1.0467,1.0364,1.0333,1.0995,1.0859,1.1096,1.1558,1.1486,1.1689,1.2114,1.2088,1.1682,1.1012,1.0993,1.0899,1.0755,1.125,0.0,0.0,1.194,1.2062,1.2305,1.2316,1.2323,1.2335,1.2316,1.2335,1.2335,1.2067,1.1926,1.1879,1.1431,1.1338,1.154,1.2005,1.2789,1.3851,1.4201,1.4469,1.4632,1.4662,1.4671,1.4686,1.4565,1.45,1.45,1.4455,1.4124,1.3556,1.4025,1.3459,1.1654,1.2266,1.1905,1.0243,0.0,0.0,0.0,0.0,0.0,0.0,0.0,0.0,0.0,0.0,0.0,0.0,0.0,0.0,0.0,1.1308,0.0,1.1417,1.1683,0.0,0.0,0.0,1.2656,1.3086,1.3173,1.3206,1.3141,0.0,0.0,0.0,0.0,1.2256,1.2607,1.2697,1.2589,1.2251,1.2197,1.2066,1.1591,1.1373,1.1193,1.1043,1.0902,1.0776,1.0656,1.0586,1.0475,1.0308,1.0244,1.018,0.9974,0.9951,0.9942,0.9951,0.997,1.0043,1.0357,1.0215,1.0021,1.005,1.0044,1.0047,1.0008,1.0166,1.0148,1.0543,1.1144,1.0558,1.0364,1.0458,1.0477,1.0365,1.0177,1.0177,1.0486,1.1027,1.176,1.2131,1.2216,1.2198,1.2238,1.2316,1.247,1.2544,1.2526,1.2526,1.2526,1.2526,1.2311,1.2102,1.1875,1.1538,1.1538,1.1857,1.1761,1.2073,1.2835,1.3184,1.3614,1.416,1.4318,1.4437,1.4551,1.4521,1.45,1.4485,1.401,1.3662,1.3496,1.3161,1.2535,1.1561,1.1694,1.1345,1.0313,1.0109,0.0,0.0,0.0,0.0,0.0,0.0,0.0,0.0,0.0,0.9933,1.0037,0.0,1.0736,0.0,1.1479,1.2033,1.2323,1.2417,0.0,0.0,1.2377,1.2457,1.2588,1.3083,1.3222,1.2659,1.2998,1.2959,1.2128,1.1687,1.1446,1.1451,1.1699,1.1794,1.1568,1.1444,1.1287,1.1043,1.0886,1.076,1.0751,1.0688,1.064,1.0586,1.0482,1.0292,1.0095,0.9974,0.9846,0.967,0.9628,0.9628,0.9622,0.9622,0.9646,0.974,0.9857,1.0005,1.0005,1.0005,1.0005,0.905,0.9334,0.8993,0.9296,1.0038,0.9933,0.989,0.989,0.989,0.9707,0.9372,0.9744,1.0333,1.1149,1.1947,1.2305,1.2305,1.2305,1.2305,1.2305,1.2409,1.247,1.247,1.2452,1.2452,1.247,1.236,1.2151,1.1899,1.1553,1.1455,1.1556,1.1254,1.1422,1.2059,1.263,1.3169,1.3685,1.3995,1.4115,1.4055,1.4342,1.4431,1.4282,1.386,1.3375,1.2857,1.2704,1.2151,1.1162,1.1287,1.1068,1.0349,1.0073,0.9838,0.0,0.0,0.0,0.0,0.0,0.0,0.0,0.0,0.0,0.0,0.0,1.0879,0.0,1.1607,0.0,1.314,1.3066,1.3047,1.3276,1.3007,1.2826,1.2886,1.2948,1.2806,1.2413,1.2646,1.2547,1.1775,1.1574,1.1323,1.0894,1.1122,1.1245,1.104,1.0924,1.0839,1.0728,1.0649,1.0586,1.0586,1.0514,1.046,1.045,1.0301,1.011,0.9942,0.9852,0.974,0.9542,0.9494,0.9494,0.9494,0.9494,0.9414,0.9135,0.9193,0.9434,0.9734,0.9788,0.9718,0.7921,0.8494,0.7787,0.7902,0.8585,0.9296,0.9588,0.9593,0.9593,0.9258,0.8756,0.9655,1.0445,1.113,1.1929,1.2305,1.2305,1.2305,1.2305,1.2305,1.2305,1.2305,1.2305,1.2305,1.2305,1.2305,1.2305,1.2151,1.1899,1.161,1.1336,1.1049,1.0811,1.1021,1.1664,1.2325,1.2855,1.3259,1.3627,1.3715,1.3465,1.404,1.4198,1.392,1.3694,1.3079,1.2035,1.2328,1.1942,1.0697,1.0999,1.0957,1.036,1.0168,0.9932,0.0,0.9665,0.0,0.0,0.0,0.0,0.0,0.0,0.0,0.0,1.0642,1.1034,1.1843,1.1684,1.2109,1.3526,1.3333,1.3386,1.4022,1.3564,1.3208,1.3292,1.2714,1.2305,1.2305,1.2305,1.2079,1.1643,1.1717,1.1531,1.0908,1.0857,1.0876,1.0669,1.0618,1.0624,1.0586,1.0586,1.0586,1.053,1.0419,1.0301,1.0253,1.0101,0.9926,0.9836,0.9686,0.9558,0.9382,0.9199,0.9167,0.9221,0.9199,0.9001,0.8447,0.8377,0.856,0.9006,0.9125,0.9038,0.7576,0.7714,0.7561,0.7595,0.7748,0.7902,0.7955,0.7955,0.7974,0.8222,0.8818,1.0226,1.0962,1.1167,1.1947,1.2305,1.2305,1.2305,1.2305,1.2305,1.2305,1.2305,1.2305,1.2305,1.2305,1.2305,1.2305,1.2151,1.1906,1.1828,1.1654,1.1326,1.1272,1.1704,1.2485,0.0,0.0,0.0,1.3049,1.3063,1.31,1.339,1.3504,1.342,1.272,0.0,1.1833,1.1318,1.0886,1.0624,1.0733,0.0,0.0,0.0,0.0,0.0,0.0,0.0,0.0,0.0,0.0,0.0,1.1042,1.1009,1.064,1.0897,1.12,1.1488,1.1597,1.1836,1.2235,1.2217,1.2324,1.2644,1.2576,1.2494,1.2512,1.239,1.2305,1.2305,1.2305,1.2258,1.2093,1.1766,1.1439,1.1236,1.0918,1.0667,1.0606,1.0593,1.0586,1.0586,1.0577,1.0545,1.0371,1.0301,1.0212,1.0101,0.9942,0.983,0.9772,0.9193,0.8786,0.8705,0.8215,0.7831,0.7826,0.7798,0.7826,0.7652,0.7598,0.7647,0.7766,0.7793,0.7761,0.7499,0.0,0.7499,0.7499,0.0,0.7499,0.7499,0.7499,0.7499,0.8165,0.9372,1.0563,1.131,1.1706,1.212,1.2305,1.2305,1.2305,1.2305,1.2305,1.2305,1.2305,1.2305,1.2305,1.2305,1.2305,1.2305,1.2151,1.1913,1.1906,1.1734,1.1412,1.1412,1.172,1.2324,1.1985,1.1901,1.2102,1.2466,1.2594,1.2515,1.2761,1.29,1.2876,0.0,0.0,0.0,0.0,0.0,0.0,0.0,0.0,0.0,0.0,0.0,1.0129,1.0226,1.0341,1.0384,1.0718,1.0966,1.1131,1.131,1.1286,1.1009,1.1189,1.1465,1.1853,1.185,1.2123,1.285,1.2771,1.2891,1.3342,1.3116,1.2886,1.2861,1.2537,1.2305,1.2305,1.2305,1.2251,1.2122,1.1875,1.1523,1.1246,1.1012,1.0728,1.051,1.053,1.0577,1.0475,1.0434,1.0387,1.019,1.0085,1.0021,0.9894,0.9766,0.9676,0.9644,0.9001,0.8506,0.8458,0.7907,0.7402,0.7386,0.7386,0.73,0.699,0.6908,0.6765,0.6556,0.6929,0.7288,0.7499,0.7499,0.7499,0.7499,0.7499,0.7499,0.7499,0.7499,0.0,0.0,0.0,1.0595,1.1254,1.1885,1.2021,1.2077,1.2102,1.2224,1.2305,1.2305,1.2305,1.2305,1.2305,1.2305,1.2305,1.2305,1.2305,1.2178,1.1969,1.1969,1.1841,1.1586,1.1566,1.1686,1.1966,1.213,1.1904,1.137,1.1998,1.2231,1.1994,1.2268,1.2435,1.2394,1.1988,1.1573,1.1181,1.1052,1.0991,1.1026,1.0965,1.0921,1.0904,1.0774,1.0588,1.0382,1.0406,1.05,1.0667,1.0913,1.1137,1.1381,1.1496,1.1546,1.1493,1.1486,1.173,1.2329,1.2132,1.2455,1.357,1.3438,1.3528,1.4117,1.3655,1.328,1.3251,1.2739,1.2305,1.2305,1.2305,1.2218,1.1968,1.1868,1.1668,1.1184,1.1031,1.0871,1.0455,1.0404,1.0412,1.0276,1.0244,1.018,0.9999,0.9894,0.9788,0.9756,0.9612,0.9484,0.9269,0.8759,0.8312,0.8032,0.7533,0.7076,0.701,0.6945,0.6851,0.6322,0.6186,0.6009,0.562,0.6178,0.6683,0.7503,0.7499,0.7499,0.7499,0.7499,0.7499,0.7499,0.7561,0.8222,0.9036,0.989,1.0027,1.0115,1.0271,1.0956,1.1279,1.1316,1.1984,1.2305,0.0,1.2305,1.2305,1.2305,1.2305,1.2305,1.2305,1.2305,1.2285,1.2245,1.2238,1.2218,1.2178,1.216,1.2173,1.2293,1.2925,1.2784,1.1838,1.1806,1.1838,1.1916,1.2126,1.2152,1.1976,1.1749,1.1462,1.1118,1.0936,1.0835,1.0839,1.0926,1.0986,1.0993,1.1016,1.0906,1.0683,1.0858,1.0979,1.0958,1.1343,1.1739,1.2105,1.216,1.2078,1.1873,1.1828,1.1964,1.2272,1.2253,1.2293,1.2531,1.2528,1.2574,1.2666,1.2556,1.2482,1.2507,1.2397,1.2305,1.2305,1.2305,1.2218,1.201,1.1783,1.1553,1.1283,1.1021,1.0725,1.0433,1.0199,1.0082,1.0053,1.0053,0.9989,0.9846,0.982,0.9724,0.958,0.95,0.9269,0.877,0.8048,0.7414,0.6838,0.626,0.5818,0.5756,0.569,0.5706,0.5557,0.5471,0.5269,0.5156,0.5289,0.5322,0.7768,0.7768,0.7772,0.7715,0.7665,0.7567,0.7748,0.8112,0.8074,0.8508,0.9258,0.9707,1.0139,1.0576,1.0943,1.1335,1.1762,1.2132,1.2305,1.2305,1.2305,1.2305,1.2305,1.2305,1.2305,1.2305,1.2305,1.2305,1.2305,1.2305,1.2305,1.2305,1.2305,1.2305,1.2323,1.2666,1.2615,1.2134,1.1923,1.1845,1.1901,1.1692,1.1641,1.1744,1.1378,1.1134,1.1061,1.0944,1.0977,1.1115,1.1173,1.1223,1.1211,1.1249,1.115,1.0942,1.1026,1.1131,1.1217,1.1526,1.1836,1.2102,1.2139,1.2141,1.2111,1.2122,1.2158,1.2285,1.2305,1.2305,1.2305,1.2305,1.2305,1.2305,1.2305,1.2305,1.2305,1.2305,1.2305,1.2286,1.2187,1.2114,1.2009,1.1671,1.1418,1.1292,1.097,1.0606,1.0396,1.0139,0.9927,0.9899,0.99,0.9836,0.9676,0.9644,0.9596,0.9494,0.9199,0.884,0.8312,0.7479,0.6629,0.6186,0.5567,0.5126,0.5077,0.5077,0.508,0.5063,0.5013,0.4944,0.4911,0.4844,0.4861,0.7991,0.7991,0.7991,0.7939,0.7825,0.7682,0.797,0.8414,0.7877,0.7951,0.852,0.9113,0.9801,1.0532,1.0809,1.1346,1.2075,1.233,1.2405,1.2417,1.2417,1.2423,1.2423,1.2417,1.2405,1.241,1.2338,1.2305,1.2305,1.2305,1.2305,1.2311,1.2383,1.2371,1.2305,1.2371,1.2371,1.2298,1.2059,1.1928,1.1975,1.1543,1.142,1.1566,1.1179,1.0965,1.1009,1.1021,1.1107,1.1316,1.1335,1.1335,1.1316,1.1335,1.126,1.113,1.1117,1.1186,1.1391,1.157,1.1806,1.1984,1.1984,1.2095,1.2268,1.2305,1.2305,1.2305,1.2305,1.2305,1.2305,1.2305,1.2305,1.2305,1.2305,1.2305,1.2305,1.2305,1.2286,1.2231,1.2102,1.1984,1.1834,1.1565,1.1317,1.1207,1.0931,1.063,1.0362,1.0106,0.995,0.9774,0.974,0.9692,0.951,0.9494,0.9414,0.9302,0.8807,0.8247,0.7674,0.6679,0.6009,0.5675,0.5219,0.4877,0.4811,0.4811,0.4827,0.4847,0.4811,0.4731,0.4681,0.4664,0.4714,0.802,0.7991,0.8008,0.7983,0.7988,0.7943,0.7926,0.7919,0.7931,0.7894,0.7941,0.7766,0.8274,0.8994,0.9992,1.0896,1.1679,1.2387,1.2763,1.2763,1.2744,1.2744,1.2737,1.2763,1.2744,1.271,1.247,1.2358,1.2358,1.232,1.23,1.2338,1.2591,1.2597,1.2371,1.2591,1.2597,1.2311,1.2094,1.2074,1.2228,1.2029,1.1846,1.1687,1.1477,1.1267,1.1094,1.1075,1.1106,1.1124,1.113,1.113,1.113,1.113,1.113,1.1117,1.1117,1.1186,1.1372,1.1595,1.1787,1.1966,1.1984,1.2077,1.2268,1.2305,1.2305,1.2305,1.2305,1.2305,1.2305,1.2305,1.2305,1.2305,1.2305,1.2305,1.2286,1.2305,1.2231,1.2046,1.1991,1.1873,1.1564,1.1421,1.1304,1.1169,1.1077,1.084,1.0441,1.0262,0.9984,0.965,0.9506,0.95,0.9446,0.9494,0.9119,0.8528,0.8269,0.7626,0.6658,0.6104,0.5729,0.5107,0.489,0.4779,0.4764,0.4794,0.4787,0.4731,0.4661,0.4545,0.4417,0.4384,0.4467,0.8337,0.8341,0.8362,0.8276,0.8174,0.8061,0.7975,0.7943,0.7963,0.7971,0.7987,0.8422,0.9058,0.9878,1.0858,1.1759,1.2504,1.2863,1.3039,1.3039,1.3019,1.3039,1.3039,1.3039,1.3039,1.3032,1.2873,1.282,1.2801,1.2704,1.2582,1.2434,1.2544,1.2642,1.2634,1.2479,1.2387,1.2414,1.2038,1.1873,1.191,1.1744,1.1601,1.1521,1.1316,1.1205,1.1111,1.1117,1.1117,1.1117,1.1117,1.1117,1.1117,1.1117,1.1117,1.1117,1.1117,1.113,1.1223,1.1298,1.1484,1.1806,1.1836,1.1966,1.2249,1.2305,1.2305,1.2305,1.2305,1.2305,1.2305,1.2305,1.2305,1.2305,1.2305,1.2268,1.2132,1.2132,1.2046,1.1855,1.1725,1.1595,1.1428,1.1298,1.1205,1.1111,1.1111,1.093,1.0575,1.0394,0.9913,0.9181,0.8843,0.8877,0.9055,0.892,0.8511,0.7967,0.7279,0.6429,0.5972,0.5348,0.4974,0.4587,0.4605,0.4594,0.4506,0.4577,0.4608,0.4557,0.4498,0.4381,0.4317,0.4303,0.4384,0.8546,0.8594,0.8616,0.8513,0.8378,0.8227,0.8134,0.8101,0.8138,0.8134,0.818,0.9103,1.0001,1.0835,1.1717,1.254,1.3247,1.3307,1.3307,1.3307,1.3313,1.3313,1.3307,1.3247,1.3247,1.3254,1.3094,1.3002,1.2989,1.2869,1.2684,1.2551,1.2595,1.2681,1.2731,1.2394,1.2318,1.2428,1.1916,1.1645,1.1696,1.1446,1.1335,1.1372,1.1205,1.1117,1.1117,1.1117,1.1117,1.1117,1.1117,1.1117,1.1117,1.1117,1.1117,1.1117,1.1117,1.1117,1.1117,1.1117,1.1279,1.1632,1.1688,1.1836,1.2132,1.2268,1.2268,1.2212,1.2206,1.2231,1.2305,1.2305,1.2268,1.2224,1.2212,1.2132,1.1954,1.1929,1.1836,1.1632,1.1521,1.1366,1.1298,1.118,1.1111,1.1117,1.1111,1.0867,1.0442,1.006,0.9512,0.8477,0.8076,0.8048,0.8333,0.8118,0.7691,0.7132,0.6346,0.5824,0.5395,0.4812,0.4596,0.4523,0.4493,0.4479,0.4464,0.4469,0.4429,0.4355,0.43,0.43,0.4303,0.4303,0.4303,0.8362,0.8594,0.8616,0.859,0.8596,0.8562,0.846,0.8263,0.8472,0.8438,0.8415,0.9379,1.0358,1.1182,1.1894,1.2782,1.3519,1.3559,1.3539,1.3546,1.3539,1.3566,1.3566,1.3375,1.3396,1.3464,1.2951,1.2642,1.2603,1.255,1.2525,1.253,1.2784,1.2818,1.2621,1.2564,1.2546,1.2455,1.1827,1.1558,1.1718,1.1376,1.1241,1.1403,1.1211,1.1123,1.1123,1.1129,1.1129,1.1123,1.1123,1.1129,1.1105,1.1117,1.1117,1.1117,1.1117,1.1117,1.1117,1.1117,1.1254,1.1614,1.1669,1.1781,1.1984,1.2157,1.215,1.2021,1.2003,1.2077,1.2206,1.2231,1.2176,1.204,1.2021,1.191,1.1744,1.1706,1.1607,1.1465,1.1391,1.1298,1.1149,1.1111,1.1117,1.1093,1.1093,1.0749,0.9852,0.935,0.8631,0.7794,0.7295,0.7114,0.701,0.7062,0.6647,0.6115,0.576,0.5352,0.4823,0.4408,0.4457,0.4498,0.4523,0.452,0.4467,0.4423,0.4355,0.4308,0.4303,0.4303,0.4303,0.4303,0.4303,0.8226,0.8533,0.8533,0.8619,0.8708,0.8596,0.8408,0.8249,0.8305,0.8239,0.8257,0.9213,0.9802,1.0009,1.0856,1.2141,1.3587,1.3685,1.3601,1.3476,1.3476,1.3455,1.3455,1.3392,1.3392,1.3421,1.3212,1.301,1.2885,1.2885,1.2781,1.2662,1.2748,1.2826,1.2831,1.256,1.2459,1.255,1.2023,1.1763,1.1862,1.1698,1.165,1.1696,1.1481,1.1442,1.1605,1.1611,1.1611,1.1611,1.1454,1.1358,1.1346,1.1189,1.1117,1.1117,1.1117,1.1117,1.1117,1.1117,1.1223,1.1459,1.1502,1.1601,1.1768,1.1855,1.1873,1.1849,1.1824,1.1861,1.1892,1.1929,1.1898,1.1836,1.1806,1.1725,1.1558,1.1509,1.1428,1.126,1.1205,1.1167,1.113,1.1117,1.1117,1.1037,1.0663,1.0125,0.9585,0.891,0.796,0.7055,0.6549,0.618,0.5517,0.602,0.6087,0.5528,0.5091,0.4894,0.4497,0.4467,0.4525,0.461,0.4621,0.4579,0.4557,0.4495,0.4407,0.4292,0.4286,0.4131,0.4303,0.4047,0.4117,0.8144,0.8417,0.8429,0.8489,0.8552,0.842,0.8287,0.8157,0.8175,0.8117,0.8199,0.8849,0.9219,0.9438,1.0032,1.1136,1.263,1.276,1.2889,1.3108,1.3062,1.3197,1.3463,1.3372,1.3328,1.337,1.3334,1.3207,1.2982,1.2966,1.2881,1.2699,1.2705,1.279,1.286,1.2529,1.2431,1.2547,1.2182,1.1936,1.2002,1.1942,1.1948,1.2011,1.1838,1.1798,1.1906,1.1906,1.1906,1.1882,1.1731,1.1621,1.1623,1.146,1.131,1.1243,1.125,1.1202,1.1111,1.1117,1.1186,1.1378,1.1477,1.1602,1.1721,1.1853,1.1904,1.1879,1.1771,1.1734,1.1696,1.1602,1.1539,1.1577,1.1595,1.1515,1.1335,1.1292,1.1236,1.1149,1.1117,1.1117,1.1117,1.1117,1.0968,1.0775,1.0156,0.9642,0.8869,0.8062,0.714,0.6207,0.5778,0.5409,0.5086,0.5403,0.554,0.5056,0.4879,0.4622,0.4532,0.4554,0.4609,0.4693,0.4713,0.4683,0.4625,0.4561,0.4419,0.4254,0.3961,0.3725,0.3725,0.3627,0.3541,0.8172,0.8282,0.829,0.8247,0.8181,0.8132,0.8102,0.8068,0.808,0.8097,0.8163,0.8323,0.8787,0.9433,0.9487,1.0034,1.0604,1.0755,1.1398,1.2344,1.2243,1.2677,1.3498,1.3136,1.3098,1.3313,1.3185,1.2966,1.2747,1.2747,1.2726,1.2705,1.2705,1.2726,1.2726,1.2481,1.2457,1.2551,1.2201,1.2075,1.2252,1.2087,1.2081,1.2268,1.2274,1.2171,1.196,1.1954,1.1978,1.1954,1.1924,1.1906,1.1876,1.1826,1.1742,1.1501,1.149,1.1345,1.1135,1.1117,1.1192,1.139,1.1638,1.1748,1.1823,1.2127,1.2278,1.2116,1.1928,1.1798,1.1742,1.1456,1.1229,1.1353,1.1409,1.131,1.1161,1.1111,1.1117,1.1117,1.1117,1.1117,1.1093,1.0943,1.0663,1.0137,0.9566,0.8836,0.7666,0.69,0.6078,0.5417,0.5155,0.5017,0.491,0.4851,0.477,0.4665,0.4653,0.4565,0.4602,0.464,0.4714,0.4814,0.4833,0.4782,0.4244,0.4157,0.4037,0.386,0.3553,0.3177,0.3096,0.2948,0.2638,0.7947,0.8207,0.813,0.8155,0.8182,0.8009,0.7817,0.7707,0.7775,0.7786,0.7728,0.7919,0.813,0.8223,0.8267,0.8443,0.87,0.8769,0.9582,1.0856,1.0989,1.145,1.2121,1.2119,1.2332,1.2814,1.286,1.2796,1.2738,1.2711,1.2705,1.2705,1.2705,1.2705,1.2699,1.2605,1.2638,1.2668,1.2554,1.2506,1.2578,1.2478,1.2478,1.2566,1.2584,1.2515,1.2469,1.2457,1.2457,1.2418,1.2268,1.2093,1.1948,1.1906,1.178,1.1551,1.1508,1.1369,1.1166,1.1129,1.1239,1.1422,1.1575,1.1702,1.1834,1.2017,1.2104,1.2018,1.1901,1.1859,1.1816,1.1577,1.1342,1.121,1.1205,1.1186,1.113,1.1117,1.1117,1.1117,1.1117,1.1117,1.0943,1.0638,0.9976,0.9523,0.8613,0.7449,0.6819,0.6097,0.5567,0.5093,0.4953,0.4914,0.4923,0.4893,0.4809,0.4732,0.4689,0.4645,0.4673,0.4723,0.482,0.4757,0.48,0.4542,0.4031,0.3692,0.3516,0.3122,0.2614,0.2452,0.2415,0.2157,0.1782,0.7863,0.8108,0.8042,0.8068,0.817,0.7899,0.7736,0.762,0.7697,0.7649,0.7637,0.7811,0.788,0.7763,0.7739,0.779,0.7868,0.7871,0.8471,0.9461,0.9877,1.0598,1.1685,1.2142,1.2403,1.2798,1.2942,1.2985,1.3,1.291,1.284,1.2834,1.2759,1.2705,1.2705,1.2705,1.2705,1.2705,1.2699,1.2705,1.2699,1.2705,1.2705,1.2699,1.2699,1.2705,1.2705,1.2705,1.2705,1.2681,1.2515,1.2352,1.2207,1.2216,1.2075,1.1864,1.1786,1.1695,1.1436,1.1424,1.1454,1.1629,1.1743,1.1864,1.2033,1.2111,1.221,1.2195,1.2125,1.2009,1.1888,1.1645,1.1381,1.1129,1.1111,1.1117,1.1117,1.1117,1.1117,1.1061,1.0831,1.0681,1.0376,0.9782,0.9007,0.8533,0.7544,0.6514,0.6121,0.5567,0.5226,0.5035,0.5002,0.4974,0.5002,0.4944,0.4895,0.4852,0.4817,0.4774,0.4752,0.4825,0.489,0.4438,0.432,0.3844,0.3334,0.3016,0.2747,0.2232,0.171,0.1578,0.1454,0.116,0.0823,0.7875,0.8006,0.8003,0.8014,0.8018,0.79,0.7811,0.779,0.7811,0.7797,0.7824,0.7929,0.7986,0.7975,0.7966,0.7951,0.7985,0.7971,0.8036,0.8357,0.8876,1.0016,1.1583,1.2466,1.2843,1.2928,1.3231,1.3412,1.3388,1.3171,1.3083,1.3045,1.2831,1.2705,1.2705,1.2705,1.2705,1.2705,1.2705,1.2705,1.2705,1.2705,1.2705,1.2705,1.2705,1.2641,1.2485,1.233,1.24,1.2571,1.2467,1.2411,1.2525,1.2571,1.2193,1.2146,1.2253,1.2044,1.1902,1.1816,1.1864,1.193,1.2093,1.231,1.2322,1.2487,1.2596,1.2602,1.2451,1.2225,1.2002,1.1774,1.1496,1.1183,1.1123,1.1117,1.1117,1.1117,1.1074,1.0931,1.0406,0.9822,0.9655,0.8855,0.7942,0.7242,0.6661,0.6028,0.5589,0.5207,0.5054,0.4998,0.4998,0.4998,0.5012,0.4985,0.492,0.4848,0.477,0.4613,0.4628,0.4687,0.4339,0.3943,0.3593,0.3104,0.2604,0.2157,0.1764,0.129,0.0919,0.0686,0.0462,0.0263,0.0172,0.7875,0.7975,0.7895,0.7976,0.817,0.8045,0.7891,0.7838,0.7915,0.7895,0.7844,0.7949,0.7988,0.7988,0.7988,0.7988,0.7988,0.7988,0.7988,0.801,0.8177,0.8902,1.0128,1.1408,1.213,1.227,1.2817,1.3304,1.3455,1.3112,1.3003,1.3087,1.2701,1.2625,1.2705,1.2604,1.2705,1.2705,1.2662,1.2635,1.2619,1.2619,1.2705,1.2705,1.2641,1.2314,1.1687,1.0988,1.1009,1.1601,1.1671,1.1644,1.1628,1.1117,1.1193,1.1942,1.1623,1.1485,1.1777,1.185,1.1962,1.2192,1.2076,1.2382,1.2569,1.2635,1.2677,1.2693,1.2626,1.2469,1.2409,1.2175,1.1824,1.1472,1.1144,1.1043,1.1061,1.1099,1.0999,1.0663,1.0038,0.9472,0.8879,0.7923,0.6946,0.6526,0.5973,0.5418,0.5168,0.5073,0.4998,0.4998,0.4998,0.4998,0.4998,0.4998,0.4951,0.4863,0.4617,0.4237,0.4264,0.43,0.3612,0.2893,0.2659,0.2247,0.1572,0.0991,0.0635,0.0381,0.0113,-0.013,-0.0217,-0.0374,-0.033,0.8147,0.8192,0.813,0.8231,0.8451,0.8289,0.8174,0.8109,0.8116,0.8027,0.7929,0.7948,0.7988,0.7988,0.7988,0.7988,0.7988,0.7988,0.7988,0.7988,0.801,0.8511,0.9416,1.0706,1.1386,1.1471,1.203,1.2337,1.242,1.2258,1.216,1.1998,1.1811,1.1652,1.1554,1.1548,1.1531,1.1488,1.1504,1.1504,1.1526,1.1531,1.151,1.1504,1.151,1.1203,1.0664,1.0183,1.0183,1.0599,1.0707,1.0707,1.0691,1.0226,1.0361,1.1259,1.0752,1.0689,1.0945,1.1052,1.1118,1.1248,1.1281,1.1367,1.1423,1.1526,1.1531,1.1461,1.1531,1.1476,1.1382,1.135,1.1261,1.0977,1.0768,1.0599,1.0607,1.047,1.0201,0.965,0.895,0.8342,0.798,0.6773,0.6163,0.5799,0.5418,0.5151,0.5018,0.4998,0.4998,0.4998,0.4979,0.4959,0.474,0.4643,0.4229,0.4166,0.3696,0.3443,0.3324,0.3343,0.2698,0.1935,0.1701,0.1311,0.0627,0.0078,-0.0176,-0.0426,-0.0694,-0.0777,-0.0791,-0.072,-0.0702,0.8492,0.8509,0.8505,0.8581,0.8689,0.8587,0.8492,0.8445,0.8362,0.8191,0.8033,0.7985,0.7988,0.7988,0.7988,0.7988,0.7988,0.7988,0.7988,0.7988,0.8028,0.8357,0.901,1.0158,1.0693,1.0748,1.0979,1.1264,1.1375,1.1115,1.0906,1.096,1.0597,1.0323,1.0522,1.0262,1.0003,1.0202,1.0292,1.0287,1.0241,1.0234,1.0248,1.0188,0.9971,0.9901,0.9753,0.9558,0.9483,0.9597,0.9705,0.9749,0.9732,0.9684,0.9783,0.9908,0.9911,0.9777,0.9942,1.0098,1.0002,1.0089,1.005,0.9901,1.0113,1.0204,1.0226,1.0248,0.9918,1.0067,0.9976,0.9984,1.0172,1.0187,1.0001,0.9785,0.9646,0.9544,0.9178,0.8395,0.7468,0.6838,0.6337,0.5799,0.5246,0.5437,0.5112,0.5073,0.4998,0.4998,0.4998,0.4998,0.4979,0.4918,0.4582,0.4246,0.3657,0.3205,0.2503,0.2073,0.18,0.1663,0.1351,0.0959,0.0627,0.0215,-0.0314,-0.0726,-0.0864,-0.0902,-0.0955,-0.1045,-0.1109,-0.0985,-0.0911,0.8381,0.8509,0.8509,0.8638,0.8831,0.8821,0.8699,0.8505,0.8478,0.8282,0.806,0.7992,0.7988,0.7988,0.7988,0.7988,0.7988,0.7988,0.7988,0.7988,0.7988,0.8053,0.8438,0.9291,0.9692,0.9928,1.0568,1.0932,1.0988,1.0711,1.0777,1.0645,1.0254,1.0306,1.0223,1.0031,1.0264,1.0254,1.0101,0.983,0.9646,0.9643,0.9597,0.9466,0.9039,0.8803,0.8623,0.8101,0.7727,0.7856,0.8382,0.8798,0.8693,0.8189,0.8466,0.9248,0.9122,0.91,0.9684,0.9727,0.9857,0.9705,0.964,0.9901,0.9901,0.9771,0.9814,0.9901,0.9896,0.9673,0.969,0.9651,0.9619,0.9532,0.9252,0.8739,0.8203,0.8365,0.8293,0.7693,0.7003,0.643,0.6051,0.5495,0.5112,0.5018,0.4998,0.4998,0.4998,0.4998,0.4998,0.4998,0.474,0.4601,0.407,0.346,0.2522,0.1974,0.133,0.0842,0.0549,0.0451,0.0313,-0.0039,-0.0491,-0.0844,-0.0982,-0.1081,-0.1139,-0.1159,-0.1175,-0.1182,-0.1191,-0.1123,-0.1077,0.8628,0.8693,0.8696,0.872,0.8808,0.8872,0.8737,0.8546,0.8509,0.8357,0.8163,0.8054,0.7988,0.7988,0.7988,0.7988,0.7988,0.7992,0.8057,0.8108,0.8157,0.8187,0.8264,0.8582,0.8914,0.8968,0.9237,0.9559,0.9604,0.9628,0.9381,0.9478,0.9319,0.9068,0.9107,0.9054,0.8831,0.8722,0.8646,0.8442,0.8324,0.8271,0.8221,0.8137,0.7815,0.7643,0.7441,0.7334,0.7076,0.7121,0.7514,0.7841,0.7823,0.7382,0.7705,0.8203,0.8207,0.8035,0.8488,0.8597,0.8532,0.8619,0.8597,0.8575,0.8575,0.8575,0.8597,0.8597,0.858,0.8685,0.9157,0.8995,0.8861,0.8742,0.8459,0.78,0.7016,0.7192,0.7297,0.6651,0.6031,0.5725,0.5382,0.5151,0.5076,0.4998,0.4998,0.4998,0.4998,0.4998,0.4998,0.4898,0.4562,0.4148,0.3558,0.2639,0.1291,0.0685,0.0098,-0.0275,-0.0549,-0.053,-0.0491,-0.0785,-0.0982,-0.108,-0.1199,-0.1297,-0.1317,-0.1277,-0.1247,-0.1258,-0.1232,-0.1156,-0.1121,0.8889,0.8909,0.8858,0.8798,0.874,0.8815,0.8696,0.8469,0.8448,0.8343,0.8267,0.8084,0.8057,0.7998,0.8054,0.8019,0.7992,0.802,0.8071,0.8174,0.8257,0.8315,0.8415,0.8481,0.84,0.8044,0.8295,0.8331,0.8306,0.8031,0.836,0.8087,0.7886,0.7979,0.7727,0.7449,0.7475,0.7515,0.7256,0.7012,0.6891,0.6798,0.6776,0.6821,0.6872,0.6821,0.6764,0.6808,0.6896,0.677,0.6944,0.7032,0.7051,0.7095,0.7117,0.7183,0.725,0.7334,0.7423,0.7312,0.7294,0.7117,0.7161,0.7183,0.725,0.7356,0.7401,0.7338,0.7401,0.7621,0.8159,0.8048,0.7899,0.7771,0.7544,0.686,0.6171,0.6218,0.6113,0.5617,0.5419,0.5285,0.5171,0.5037,0.5018,0.4998,0.4998,0.4979,0.4959,0.4823,0.4706,0.4367,0.3893,0.2973,0.2306,0.1604,0.0294,-0.0157,-0.0805,-0.0982,-0.1218,-0.108,-0.0943,-0.11,-0.1258,-0.1297,-0.1297,-0.1297,-0.1317,-0.1317,-0.1306,-0.1266,-0.1238,-0.1189,-0.1148,0.8821,0.8899,0.8774,0.8733,0.8693,0.8608,0.8479,0.8352,0.8342,0.8218,0.8081,0.818,0.814,0.8064,0.8184,0.816,0.8033,0.8033,0.806,0.8157,0.8241,0.8369,0.8434,0.8476,0.8338,0.817,0.82,0.8326,0.8254,0.8147,0.7952,0.7852,0.7645,0.7459,0.7372,0.7223,0.7156,0.7122,0.69,0.6745,0.664,0.662,0.6638,0.6629,0.6626,0.6586,0.6552,0.6518,0.6495,0.6476,0.6726,0.6846,0.6929,0.7037,0.7086,0.7117,0.7117,0.7117,0.7117,0.7117,0.7117,0.7117,0.7117,0.7117,0.7117,0.7095,0.7098,0.7076,0.7051,0.7161,0.7294,0.7212,0.7061,0.6913,0.6686,0.6322,0.5942,0.5784,0.571,0.5317,0.5136,0.5009,0.5042,0.5017,0.4998,0.4998,0.4998,0.4859,0.474,0.4392,0.4023,0.3585,0.3051,0.1956,0.0881,0.0176,-0.0667,-0.0766,-0.1119,-0.1119,-0.1277,-0.1297,-0.1317,-0.1317,-0.1317,-0.1297,-0.1317,-0.1317,-0.1317,-0.1317,-0.1306,-0.1276,-0.1237,-0.1182,-0.1152,0.8723,0.8801,0.8655,0.8547,0.8506,0.8577,0.8425,0.8197,0.8306,0.8252,0.8088,0.8084,0.8069,0.7969,0.8082,0.8099,0.8047,0.8133,0.8194,0.8279,0.8418,0.855,0.8531,0.8545,0.8437,0.8281,0.8278,0.8158,0.8026,0.7875,0.7771,0.768,0.7486,0.7381,0.7263,0.7093,0.7026,0.694,0.6778,0.6611,0.65,0.6485,0.6455,0.6446,0.6482,0.6441,0.638,0.6579,0.6508,0.6485,0.6645,0.6851,0.6943,0.7002,0.7068,0.7103,0.7098,0.7117,0.7117,0.7117,0.7117,0.7117,0.7117,0.7117,0.7117,0.7095,0.7032,0.6944,0.6786,0.6738,0.6738,0.6634,0.6545,0.6441,0.6216,0.6032,0.5824,0.5635,0.5488,0.534,0.5215,0.5148,0.5102,0.508,0.5012,0.4998,0.4982,0.4714,0.4425,0.3844,0.3243,0.2546,0.1936,0.1038,0.0059,-0.0532,-0.1062,-0.1218,-0.1321,-0.1321,-0.1317,-0.1317,-0.1317,-0.1317,-0.1317,-0.1317,-0.1317,-0.1317,-0.1317,-0.1317,-0.1311,-0.1276,-0.123,-0.1173,-0.1148,0.8638,0.8652,0.8529,0.84,0.8338,0.8479,0.8365,0.8148,0.8292,0.8269,0.8077,0.8027,0.7956,0.7895,0.7949,0.7992,0.8033,0.8219,0.8335,0.8418,0.8514,0.8659,0.8657,0.8535,0.8286,0.8127,0.798,0.7829,0.78,0.7683,0.7591,0.7516,0.7412,0.7273,0.7149,0.6887,0.676,0.6642,0.6484,0.6331,0.6301,0.6211,0.6157,0.6149,0.6299,0.6309,0.624,0.6402,0.6458,0.6432,0.6555,0.6779,0.6981,0.6992,0.6976,0.7023,0.7069,0.7102,0.7117,0.7117,0.7117,0.7117,0.7117,0.7095,0.701,0.6944,0.6855,0.67,0.6564,0.6451,0.6473,0.6365,0.6279,0.6171,0.6063,0.5947,0.5789,0.564,0.5599,0.5451,0.5331,0.5211,0.5129,0.501,0.4917,0.4491,0.4436,0.3894,0.3536,0.2887,0.2242,0.1437,0.0724,0.002,-0.061,-0.0873,-0.1206,-0.1258,-0.1307,-0.1313,-0.1305,-0.1317,-0.1318,-0.132,-0.1317,-0.1317,-0.1317,-0.1317,-0.1317,-0.1317,-0.1317,-0.1292,-0.1224,-0.1178,-0.1157,0.842,0.8496,0.8383,0.8311,0.8277,0.8187,0.8165,0.825,0.8121,0.8135,0.8219,0.8071,0.7965,0.7983,0.7979,0.8006,0.806,0.8169,0.8286,0.8308,0.8348,0.8375,0.8341,0.8084,0.7932,0.7812,0.7607,0.7692,0.7716,0.763,0.7504,0.7388,0.7175,0.6974,0.6832,0.6697,0.6568,0.6458,0.6398,0.6382,0.6377,0.6355,0.6347,0.635,0.6344,0.6316,0.626,0.6322,0.6243,0.6232,0.6357,0.6464,0.6523,0.6711,0.679,0.689,0.6982,0.7098,0.7081,0.7082,0.7066,0.7047,0.7049,0.6991,0.6855,0.6634,0.652,0.6451,0.6384,0.6343,0.6276,0.6213,0.6146,0.6016,0.5886,0.5822,0.57,0.5689,0.5629,0.5455,0.5278,0.5165,0.5068,0.4938,0.4771,0.4294,0.3798,0.3217,0.2533,0.1829,0.1161,0.0362,0.0,-0.064,-0.0883,-0.121,-0.1287,-0.1312,-0.1321,-0.1311,-0.1307,-0.132,-0.1305,-0.1305,-0.1303,-0.1319,-0.1317,-0.1317,-0.1317,-0.1317,-0.1317,-0.1282,-0.1234,-0.1196,-0.1169,0.8228,0.8372,0.8201,0.8115,0.8143,0.8153,0.8153,0.8101,0.8047,0.8054,0.8102,0.7956,0.7929,0.7983,0.7935,0.7932,0.8005,0.8071,0.8083,0.8065,0.8067,0.8056,0.8008,0.7798,0.7592,0.7535,0.7363,0.7278,0.745,0.7476,0.7318,0.719,0.7059,0.6926,0.6693,0.6626,0.6572,0.6509,0.6455,0.6414,0.6412,0.6412,0.6412,0.6412,0.6358,0.6363,0.6344,0.6325,0.6285,0.6285,0.6379,0.6501,0.6581,0.6689,0.6735,0.6918,0.692,0.6932,0.6922,0.6939,0.6911,0.6831,0.6809,0.6719,0.6554,0.6368,0.6235,0.6235,0.608,0.6016,0.6041,0.593,0.5886,0.5822,0.5777,0.5755,0.571,0.571,0.5644,0.5433,0.5127,0.4765,0.4434,0.4146,0.372,0.3153,0.2706,0.2269,0.141,0.0468,-0.0143,-0.0763,-0.0925,-0.109,-0.1155,-0.1304,-0.1283,-0.1316,-0.1318,-0.1304,-0.132,-0.131,-0.1315,-0.1306,-0.1306,-0.1319,-0.1304,-0.1317,-0.1317,-0.1317,-0.1317,-0.1279,-0.1226,-0.1207,-0.1177,0.7973,0.8121,0.8033,0.7996,0.7976,0.8147,0.8147,0.7998,0.7992,0.8037,0.8027,0.7929,0.7902,0.7914,0.7898,0.7904,0.7995,0.7912,0.7916,0.7888,0.7782,0.7713,0.76,0.7398,0.728,0.7442,0.7113,0.71,0.7199,0.7199,0.7152,0.6991,0.7013,0.6912,0.6817,0.676,0.6719,0.6634,0.6528,0.6477,0.6463,0.6403,0.6417,0.6412,0.6412,0.6412,0.6412,0.6404,0.6401,0.6396,0.6387,0.6501,0.6597,0.6566,0.66,0.6735,0.6735,0.6679,0.6715,0.6771,0.6748,0.6669,0.6519,0.6475,0.6345,0.6127,0.5997,0.5994,0.5866,0.5755,0.571,0.5735,0.5733,0.5733,0.571,0.571,0.5688,0.5599,0.5329,0.4949,0.4475,0.3745,0.3423,0.3114,0.264,0.2007,0.1569,0.126,0.0474,-0.0515,-0.0849,-0.1235,-0.1233,-0.1254,-0.1279,-0.1304,-0.1307,-0.1313,-0.1315,-0.1309,-0.1323,-0.1317,-0.1307,-0.132,-0.1333,-0.1316,-0.1321,-0.1308,-0.1317,-0.1317,-0.1312,-0.1267,-0.1246,-0.1227,-0.1222,0.7634,0.7668,0.7902,0.7929,0.7845,0.7941,0.802,0.7985,0.7978,0.8064,0.816,0.8064,0.7915,0.7875,0.7917,0.7937,0.797,0.7915,0.7795,0.7673,0.7496,0.7299,0.7156,0.6976,0.6835,0.7026,0.6877,0.6969,0.7141,0.7117,0.7081,0.7029,0.7029,0.6915,0.6872,0.6874,0.6836,0.6768,0.6634,0.6574,0.6536,0.6485,0.6398,0.6414,0.6412,0.6412,0.6412,0.6412,0.6412,0.6412,0.6412,0.6412,0.6481,0.6459,0.6492,0.6506,0.6525,0.65,0.6527,0.6656,0.6768,0.6705,0.6513,0.6273,0.6154,0.5902,0.5763,0.5799,0.5765,0.5744,0.5719,0.571,0.571,0.571,0.571,0.571,0.5599,0.5371,0.508,0.4518,0.3744,0.2814,0.2081,0.1709,0.1395,0.0779,0.0535,0.0232,-0.0212,-0.0996,-0.1121,-0.1316,-0.1291,-0.129,-0.1292,-0.132,-0.1336,-0.1339,-0.1339,-0.1329,-0.1318,-0.1314,-0.1343,-0.1388,-0.1399,-0.1357,-0.1377,-0.1562,-0.1627,-0.1399,-0.1327,-0.1408,-0.1407,-0.1396,-0.1361,0.7597,0.7611,0.7702,0.7787,0.7807,0.776,0.7847,0.7962,0.7827,0.7848,0.8004,0.7989,0.7983,0.791,0.7771,0.7771,0.7699,0.7362,0.7292,0.716,0.6953,0.6857,0.674,0.6722,0.6711,0.6817,0.6763,0.6763,0.6912,0.6999,0.6953,0.6934,0.7046,0.7032,0.7007,0.698,0.6912,0.6839,0.6757,0.6706,0.6588,0.6555,0.6488,0.6414,0.6412,0.6412,0.6412,0.6412,0.6412,0.6412,0.6412,0.6412,0.6412,0.6412,0.6412,0.6412,0.6412,0.6412,0.6412,0.6481,0.6492,0.6381,0.6248,0.6129,0.604,0.5919,0.589,0.5874,0.5813,0.5825,0.5724,0.5716,0.571,0.571,0.5702,0.569,0.5389,0.5079,0.4385,0.3647,0.2571,0.1539,0.0848,0.0201,-0.0089,-0.0399,-0.0591,-0.0759,-0.1063,-0.1259,-0.132,-0.1363,-0.134,-0.1345,-0.1347,-0.1358,-0.1368,-0.1365,-0.1384,-0.1354,-0.1346,-0.136,-0.1383,-0.1448,-0.1614,-0.1739,-0.1857,-0.1986,-0.1919,-0.1639,-0.161,-0.1699,-0.1654,-0.1609,-0.1598,0.7461,0.7445,0.7536,0.7617,0.7729,0.7689,0.7756,0.7895,0.7797,0.778,0.7861,0.7898,0.7889,0.7793,0.7593,0.749,0.7366,0.7101,0.6898,0.6782,0.6678,0.6559,0.6539,0.6555,0.6588,0.6672,0.6669,0.6677,0.6891,0.6864,0.6934,0.701,0.7078,0.7087,0.7037,0.7043,0.7016,0.6929,0.6861,0.6828,0.6712,0.662,0.6566,0.6466,0.6442,0.6412,0.6412,0.6412,0.6412,0.6412,0.6412,0.6412,0.6412,0.6412,0.6412,0.6387,0.6387,0.6362,0.6387,0.6393,0.632,0.6259,0.6199,0.6099,0.6021,0.6037,0.601,0.5975,0.5953,0.592,0.5811,0.5843,0.5854,0.5876,0.5573,0.5438,0.4852,0.44,0.3509,0.2663,0.161,0.0671,0.0,-0.056,-0.0694,-0.0893,-0.0977,-0.1079,-0.1185,-0.134,-0.1364,-0.1389,-0.1394,-0.1402,-0.1411,-0.1406,-0.1378,-0.1379,-0.14,-0.1404,-0.1381,-0.148,-0.1635,-0.1786,-0.1974,-0.2182,-0.2291,-0.2369,-0.2136,-0.1833,-0.1906,-0.2036,-0.207,-0.2043,-0.2047,0.7141,0.7144,0.7316,0.7461,0.7611,0.7746,0.7787,0.7854,0.7879,0.7926,0.7887,0.7718,0.7618,0.7543,0.7313,0.7216,0.7138,0.6917,0.677,0.6678,0.6536,0.6456,0.6433,0.6455,0.6501,0.6574,0.6588,0.6672,0.6926,0.6912,0.7007,0.7098,0.7133,0.7136,0.7035,0.7152,0.7196,0.7152,0.7048,0.6975,0.6896,0.6741,0.6618,0.6547,0.646,0.6414,0.6412,0.6412,0.6412,0.6412,0.6184,0.6212,0.6387,0.6062,0.6037,0.6187,0.6137,0.6187,0.6337,0.6362,0.6363,0.6295,0.626,0.623,0.6116,0.6126,0.6137,0.6115,0.6083,0.6072,0.6062,0.6033,0.5943,0.5623,0.5265,0.471,0.4075,0.3225,0.2293,0.1646,0.0875,0.0067,-0.065,-0.1166,-0.1233,-0.1322,-0.1368,-0.1385,-0.1377,-0.1376,-0.14,-0.1402,-0.1407,-0.141,-0.1413,-0.1413,-0.1411,-0.1413,-0.148,-0.1592,-0.1727,-0.1929,-0.2059,-0.2187,-0.2452,-0.2739,-0.2732,-0.2722,-0.2616,-0.2576,-0.2344,-0.2391,-0.245,-0.2487,-0.2483,0.7117,0.7102,0.7175,0.7305,0.7481,0.7607,0.7749,0.7901,0.7819,0.7743,0.7668,0.7441,0.7338,0.7263,0.7067,0.6917,0.6892,0.6664,0.6539,0.6514,0.6437,0.6414,0.6412,0.6417,0.6439,0.646,0.649,0.6569,0.6728,0.6844,0.6967,0.7046,0.7152,0.716,0.7141,0.7171,0.7207,0.7204,0.7133,0.7089,0.7005,0.6828,0.6706,0.6607,0.6468,0.6308,0.6275,0.6228,0.6122,0.6037,0.5732,0.5584,0.5734,0.5432,0.4757,0.4933,0.4908,0.4655,0.5306,0.5802,0.6333,0.6282,0.6323,0.6312,0.6252,0.6285,0.6268,0.6225,0.616,0.6152,0.6126,0.5708,0.5384,0.4667,0.4165,0.3501,0.2793,0.1784,0.0872,0.0502,-0.0113,-0.0563,-0.117,-0.1308,-0.1375,-0.1414,-0.1413,-0.1413,-0.1385,-0.1385,-0.1408,-0.1409,-0.1412,-0.1412,-0.1413,-0.1413,-0.148,-0.1548,-0.175,-0.1974,-0.2154,-0.2354,-0.2531,-0.266,-0.3001,-0.331,-0.3262,-0.3275,-0.3433,-0.3404,-0.3036,-0.2836,-0.2883,-0.2902,-0.2902,0.7117,0.7131,0.7235,0.7356,0.7461,0.746,0.7571,0.7682,0.7543,0.7466,0.7416,0.7188,0.7064,0.6989,0.6789,0.6667,0.6642,0.6489,0.6412,0.6412,0.6412,0.6412,0.6412,0.642,0.6455,0.6452,0.649,0.6563,0.679,0.6836,0.6969,0.7084,0.7141,0.7196,0.7204,0.7207,0.721,0.721,0.716,0.7141,0.7062,0.6934,0.6831,0.6589,0.6285,0.5861,0.5779,0.5606,0.5315,0.5119,0.488,0.458,0.4605,0.4279,0.3577,0.3778,0.3802,0.3651,0.4304,0.468,0.5126,0.5637,0.6081,0.6344,0.6347,0.6352,0.6372,0.632,0.6178,0.5989,0.5779,0.5326,0.4448,0.3721,0.3046,0.2395,0.1582,0.0568,0.0,-0.042,-0.0693,-0.1145,-0.1429,-0.1405,-0.143,-0.1421,-0.1413,-0.1415,-0.1416,-0.1414,-0.1414,-0.1413,-0.1436,-0.1458,-0.1436,-0.1413,-0.1503,-0.166,-0.1974,-0.2333,-0.2602,-0.2802,-0.298,-0.3179,-0.3503,-0.3741,-0.3785,-0.3838,-0.3805,-0.3719,-0.348,-0.3353,-0.3349,-0.3346,-0.3333,0.7117,0.7142,0.7458,0.7536,0.7526,0.7265,0.718,0.7226,0.7201,0.7198,0.7176,0.6896,0.6763,0.6728,0.6509,0.6437,0.6464,0.6412,0.6412,0.6412,0.6412,0.6412,0.642,0.6408,0.649,0.6555,0.6612,0.6725,0.6977,0.701,0.7073,0.7169,0.7199,0.721,0.721,0.721,0.721,0.721,0.6871,0.6805,0.6681,0.6523,0.6244,0.591,0.5419,0.4988,0.466,0.4222,0.3727,0.3473,0.3274,0.3249,0.3198,0.3148,0.3099,0.3047,0.292,0.3098,0.3173,0.3399,0.3952,0.4708,0.5447,0.6029,0.6379,0.6298,0.6191,0.5964,0.57,0.5538,0.5329,0.4371,0.3416,0.2719,0.2047,0.129,0.0467,-0.0219,-0.0724,-0.1055,-0.1235,-0.1482,-0.1463,-0.1479,-0.1453,-0.1447,-0.1443,-0.1441,-0.1437,-0.1393,-0.1414,-0.1436,-0.1458,-0.1503,-0.1525,-0.1682,-0.1905,-0.2175,-0.2354,-0.2669,-0.2959,-0.325,-0.3472,-0.3717,-0.4009,-0.4158,-0.4085,-0.4017,-0.398,-0.3858,-0.3767,-0.3718,-0.3663,-0.3748,-0.3776,0.7117,0.7131,0.7215,0.7162,0.7015,0.6755,0.684,0.7158,0.6971,0.6829,0.6829,0.6562,0.6467,0.6421,0.6424,0.6401,0.6409,0.6412,0.6412,0.6412,0.6412,0.6412,0.6439,0.6462,0.6553,0.6615,0.6719,0.6834,0.697,0.7048,0.702,0.7204,0.6791,0.6902,0.693,0.7127,0.6985,0.6818,0.626,0.6096,0.5654,0.5176,0.493,0.4515,0.4191,0.3802,0.3545,0.329,0.2975,0.301,0.2369,0.2294,0.3175,0.1865,0.0933,0.1009,0.1462,0.2066,0.2168,0.2747,0.3274,0.3425,0.385,0.4954,0.5632,0.5909,0.5634,0.5256,0.4678,0.43,0.3872,0.3067,0.2213,0.1485,0.0831,0.0151,-0.0572,-0.084,-0.13,-0.1344,-0.1527,-0.1512,-0.1518,-0.1513,-0.1486,-0.148,-0.1473,-0.1493,-0.1485,-0.1463,-0.1543,-0.1566,-0.1692,-0.1807,-0.2089,-0.2267,-0.2489,-0.2711,-0.2869,-0.3071,-0.3384,-0.3697,-0.3965,-0.4143,-0.4233,-0.4273,-0.4277,-0.4197,-0.4108,-0.4126,-0.4061,-0.4023,-0.4008,-0.4031,-0.4044,0.7117,0.7083,0.7054,0.6937,0.674,0.6588,0.668,0.6787,0.6613,0.6533,0.6503,0.6313,0.6222,0.6265,0.6306,0.6366,0.6366,0.6393,0.6412,0.6412,0.6412,0.6412,0.6452,0.6536,0.6612,0.6711,0.6815,0.6967,0.6846,0.635,0.6177,0.5787,0.5699,0.5502,0.5278,0.5111,0.5224,0.5308,0.5282,0.5091,0.4483,0.3848,0.3643,0.3237,0.2949,0.2663,0.254,0.2371,0.0,0.0,0.1135,0.1216,0.1829,0.0638,0.0,0.0,0.0555,0.0858,0.0908,0.126,0.1814,0.2116,0.2141,0.302,0.3823,0.4225,0.415,0.3974,0.332,0.2716,0.2238,0.1686,0.0932,0.0151,-0.0429,-0.1035,-0.1306,-0.1499,-0.1568,-0.1563,-0.1577,-0.1562,-0.1551,-0.1547,-0.1513,-0.1498,-0.1562,-0.1679,-0.165,-0.1591,-0.1744,-0.1881,-0.2045,-0.2188,-0.2517,-0.2801,-0.2971,-0.3124,-0.325,-0.3473,-0.3808,-0.3987,-0.4143,-0.4233,-0.4275,-0.4293,-0.4312,-0.425,-0.4182,-0.4207,-0.4219,-0.4168,-0.4124,-0.4145,-0.4139,0.7095,0.7064,0.6982,0.6787,0.6672,0.6618,0.6493,0.6298,0.63,0.626,0.6251,0.6142,0.6096,0.61,0.6243,0.6309,0.6325,0.6363,0.6412,0.6412,0.6412,0.642,0.6482,0.6555,0.6688,0.6825,0.6662,0.6352,0.6197,0.5477,0.4474,0.3861,0.344,0.3325,0.3465,0.3437,0.3437,0.3214,0.3745,0.3971,0.3413,0.3215,0.3216,0.2843,0.2174,0.1545,0.133,0.0,0.0,0.0,0.0,0.0,0.0103,0.0,0.0,0.0,0.0,-0.0025,-0.0101,0.005,0.0277,0.0555,0.0706,0.1209,0.1788,0.2742,0.2893,0.2692,0.2114,0.1586,0.1083,0.0454,-0.0303,-0.0656,-0.101,-0.1338,-0.1462,-0.1582,-0.1581,-0.1578,-0.1575,-0.1561,-0.158,-0.1551,-0.1548,-0.1524,-0.1711,-0.1881,-0.1997,-0.1918,-0.2117,-0.2349,-0.26,-0.2827,-0.303,-0.3289,-0.3406,-0.3524,-0.3652,-0.381,-0.4056,-0.419,-0.4275,-0.4297,-0.4297,-0.4297,-0.4283,-0.4246,-0.4221,-0.4238,-0.4244,-0.425,-0.4238,-0.4257,-0.4244,0.701,0.6814,0.6471,0.6338,0.636,0.6177,0.6118,0.614,0.6026,0.5976,0.5986,0.5938,0.5947,0.5972,0.6192,0.6276,0.6306,0.6349,0.6401,0.6412,0.6412,0.645,0.6491,0.6499,0.669,0.6643,0.6224,0.5198,0.4382,0.3606,0.3159,0.2964,0.2432,0.2208,0.2236,0.2236,0.1958,0.1343,0.165,0.2069,0.1651,0.0672,0.014,0.0308,0.0,0.0246,0.0161,0.0,0.0,0.0,0.0,0.0,-0.0285,-0.013,-0.0257,-0.0482,-0.0404,-0.048,-0.0631,-0.0732,-0.053,-0.0581,-0.0479,-0.053,-0.0025,0.1108,0.1586,0.1309,0.0982,0.0454,-0.005,-0.0732,-0.1263,-0.1364,-0.144,-0.1516,-0.1592,-0.1592,-0.1592,-0.1592,-0.1592,-0.1587,-0.158,-0.1628,-0.1577,-0.1774,-0.207,-0.2292,-0.2534,-0.2595,-0.2841,-0.3065,-0.336,-0.3591,-0.3702,-0.3772,-0.3889,-0.3973,-0.4078,-0.4225,-0.4312,-0.4302,-0.4297,-0.4297,-0.4297,-0.4297,-0.4279,-0.4226,-0.4222,-0.4267,-0.4269,-0.4266,-0.4261,-0.4281,-0.4283,0.6903,0.6729,0.6285,0.6144,0.6169,0.5997,0.5945,0.5983,0.5931,0.5621,0.5305,0.5579,0.5808,0.5823,0.6081,0.6149,0.6182,0.6344,0.6396,0.6412,0.6342,0.6419,0.6417,0.6131,0.5838,0.569,0.4698,0.3576,0.2517,0.1901,0.1622,0.1343,0.1119,0.0867,0.0811,0.0699,0.0532,-0.028,-0.0196,-0.0196,-0.014,-0.0701,-0.0925,-0.0813,-0.075,-0.0603,-0.057,-0.0456,0.0,0.0,0.0,0.0,-0.0577,-0.0524,-0.0544,-0.0662,-0.0682,-0.0707,-0.0884,-0.0985,-0.1035,-0.1136,-0.1237,-0.1111,-0.1136,-0.0176,-0.0101,-0.0328,-0.0378,-0.0833,-0.0858,-0.1364,-0.144,-0.1516,-0.1516,-0.1566,-0.1592,-0.1592,-0.1592,-0.1592,-0.1592,-0.159,-0.1686,-0.1962,-0.1986,-0.2137,-0.2445,-0.2923,-0.31,-0.3253,-0.3502,-0.3707,-0.393,-0.4148,-0.424,-0.43,-0.4368,-0.4455,-0.4452,-0.4375,-0.4338,-0.4312,-0.4297,-0.4308,-0.4308,-0.4297,-0.4271,-0.4236,-0.4242,-0.4285,-0.4275,-0.4275,-0.4299,-0.4297,-0.4293,0.6738,0.6662,0.6247,0.6059,0.6024,0.577,0.5649,0.5626,0.5532,0.496,0.4296,0.4929,0.5302,0.5446,0.5573,0.5766,0.5859,0.5837,0.6046,0.6312,0.6137,0.5952,0.5565,0.5212,0.4594,0.3805,0.2901,0.2063,0.1176,0.0532,-0.014,-0.0701,-0.1206,-0.1739,-0.1795,-0.1739,-0.1542,-0.143,-0.143,-0.1598,-0.1514,-0.1346,-0.1149,-0.106,-0.0969,-0.0959,-0.0953,-0.0892,-0.0911,-0.0859,-0.0809,-0.0854,-0.0844,-0.0814,-0.0879,-0.0943,-0.0909,-0.101,-0.1162,-0.1263,-0.1389,-0.1516,-0.1566,-0.1592,-0.1566,-0.1516,-0.144,-0.1465,-0.1516,-0.1541,-0.1566,-0.1566,-0.1566,-0.1592,-0.1592,-0.1592,-0.1592,-0.1592,-0.1592,-0.1592,-0.1617,-0.1617,-0.1919,-0.2221,-0.2423,-0.2573,-0.2951,-0.3454,-0.3831,-0.393,-0.4105,-0.418,-0.4277,-0.4505,-0.4647,-0.4661,-0.4634,-0.4594,-0.4533,-0.4428,-0.4365,-0.4334,-0.4322,-0.4328,-0.4326,-0.431,-0.43,-0.4279,-0.4293,-0.4308,-0.4287,-0.4295,-0.4281,-0.4297,-0.4297,0.6457,0.6366,0.5953,0.5837,0.5797,0.5021,0.4593,0.4481,0.3875,0.3301,0.3329,0.3279,0.3438,0.342,0.3521,0.3964,0.4909,0.5056,0.577,0.6234,0.5359,0.5075,0.4621,0.377,0.2739,0.1862,0.1082,0.0335,-0.0112,-0.0868,-0.1373,-0.1486,-0.1514,-0.1795,-0.1795,-0.1795,-0.1795,-0.1795,-0.1795,-0.1795,-0.1795,-0.1655,-0.1683,-0.1539,-0.137,-0.13,-0.1179,-0.0981,-0.0925,-0.0872,-0.0953,-0.1078,-0.109,-0.1075,-0.111,-0.1223,-0.1212,-0.1263,-0.1389,-0.144,-0.1566,-0.1566,-0.1592,-0.1592,-0.1566,-0.1566,-0.1541,-0.1541,-0.1566,-0.1566,-0.1566,-0.1566,-0.1592,-0.1592,-0.1592,-0.1592,-0.1592,-0.1592,-0.1617,-0.1642,-0.1693,-0.1919,-0.2297,-0.2548,-0.2749,-0.3026,-0.3504,-0.3957,-0.4108,-0.4383,-0.4634,-0.4622,-0.4608,-0.4691,-0.4758,-0.474,-0.4722,-0.4677,-0.4616,-0.454,-0.4447,-0.4381,-0.4349,-0.4387,-0.4355,-0.432,-0.4312,-0.4357,-0.4324,-0.4332,-0.4308,-0.4293,-0.4297,-0.4297,-0.4297]},{"header":{"parameterUnit":"m.s-1","parameterCategory":1,"la1":31.0,"la2":29.5877,"lo1":-88.7671,"lo2":-86.6584,"dx":0.0162,"dy":0.0185,"nx":115,"ny":88,"refTime":"2023-01-28T06:00:00:Z","depth":0,"parameterNumber":3,"parameterNumberName":"V-component_of_WINDS"},"data":[0.0,0.0,0.0,0.0,0.0,0.0,0.0,0.0,0.0,0.0,0.0,0.0,0.0,0.0,0.0,0.0,0.0,0.0,0.0,0.0,0.0,0.0,0.0,0.0,0.0,0.0,0.0,0.0,0.0,0.0,0.0,0.0,0.0,0.0,0.0,0.0,0.0,0.0,0.0,0.0,0.0,0.0,0.0,0.0,0.0,0.0,0.0,0.0,0.0,0.0,0.0,0.0,0.0,0.0,0.0,0.0,0.0,0.0,0.0,0.0,0.0,0.0,0.0,0.0,0.0,0.0,0.0,0.0,0.0,0.0,0.0,0.0,0.0,0.0,0.0,0.0,0.0,0.0,0.0,0.0,0.0,0.0,0.0,0.0,0.0,0.0,0.0,0.0,0.0,0.0,0.0,0.0,0.0,0.0,0.0,0.0,0.0,0.0,0.0,0.0,0.0,0.0,0.0,0.0,0.0,0.0,0.0,0.0,0.0,0.0,0.0,0.0,0.0,0.0,0.0,0.0,0.0,0.0,0.0,0.0,0.0,0.0,0.0,0.0,0.0,0.0,0.0,0.0,0.0,0.0,0.0,0.0,0.0,0.0,0.0,0.0,0.0,0.0,0.0,0.0,0.0,0.0,0.0,0.0,0.0,0.0,0.0,0.0,0.0,0.0,0.0,0.0,0.0,0.0,0.0,0.0,0.0,0.0,0.0,0.0,0.0,0.0,0.0,0.0,0.0,0.0,0.0,0.0,0.0,0.0,0.0,0.0,0.0,0.0,0.0,0.0,0.0,0.0,0.0,0.0,0.0,0.0,0.0,0.0,0.0,0.0,0.0,0.0,0.0,0.0,0.0,0.0,0.0,0.0,0.0,0.0,0.0,0.0,0.0,0.0,0.0,0.0,0.0,0.0,0.0,0.0,0.0,0.0,0.0,0.0,0.0,0.0,0.0,0.0,0.0,0.0,0.0,0.0,0.0,0.0,0.0,0.0,0.0,0.0,0.0,0.0,0.0,0.0,0.0,0.0,0.0,0.0,0.0,0.0,0.0,0.0,0.0,0.0,0.0,0.0,0.0,0.0,0.0,0.0,0.0,0.0,0.0,0.0,0.0,0.0,0.0,0.0,0.0,0.0,0.0,0.0,0.0,0.0,0.0,0.0,0.0,0.0,0.0,0.0,0.0,0.0,0.0,0.0,0.0,0.0,0.0,0.0,0.0,0.0,0.0,0.0,0.0,0.0,0.0,0.0,0.0,0.0,0.0,0.0,0.0,0.0,0.0,0.0,0.0,0.0,0.0,0.0,0.0,0.0,0.0,0.0,0.0,0.0,0.0,0.0,0.0,0.0,0.0,0.0,0.0,0.0,0.0,0.0,0.0,0.0,0.0,0.0,0.0,0.0,0.0,0.0,0.0,0.0,0.0,0.0,0.0,0.0,0.0,0.0,0.0,0.0,0.0,0.0,0.0,0.0,0.0,0.0,0.0,0.0,0.0,0.0,0.0,0.0,0.0,0.0,0.0,0.0,0.0,0.0,0.0,0.0,0.0,0.0,0.0,0.0,0.0,0.0,0.0,0.0,0.0,0.0,0.0,0.0,0.0,0.0,0.0,0.0,0.0,0.0,0.0,0.0,0.0,0.0,0.0,0.0,0.0,0.0,0.0,0.0,0.0,0.0,0.0,0.0,0.0,0.0,0.0,0.0,0.0,0.0,0.0,0.0,0.0,0.0,0.0,0.0,0.0,0.0,0.0,0.0,0.0,0.0,0.0,0.0,0.0,0.0,0.0,0.0,0.0,0.0,0.0,0.0,0.0,0.0,0.0,0.0,0.0,0.0,0.0,0.0,0.0,0.0,0.0,0.0,0.0,0.0,0.0,0.0,0.0,0.0,0.0,0.0,0.0,0.0,0.0,0.0,0.0,0.0,0.0,0.0,0.0,0.0,0.0,0.0,0.0,0.0,0.0,0.0,0.0,0.0,0.0,0.0,0.0,0.0,0.0,0.0,0.0,0.0,0.0,0.0,0.0,0.0,0.0,0.0,0.0,0.0,0.0,0.0,0.0,0.0,0.0,0.0,0.0,0.0,0.0,0.0,0.0,0.0,0.0,0.0,0.0,0.0,0.0,0.0,0.0,0.0,0.0,0.0,0.0,0.0,0.0,0.0,0.0,0.0,0.0,0.0,0.0,0.0,0.0,0.0,0.0,0.0,0.0,0.0,0.0,0.0,0.0,0.0,0.0,0.0,0.0,0.0,0.0,0.0,0.0,0.0,0.0,0.0,0.0,0.0,0.0,0.0,0.0,0.0,0.0,0.0,0.0,0.0,0.0,0.0,0.0,0.0,0.0,0.0,0.0,0.0,0.0,0.0,0.0,0.0,0.0,0.0,0.0,0.0,0.0,0.0,0.0,0.0,0.0,0.0,0.0,0.0,0.0,0.0,0.0,0.0,0.0,0.0,0.0,0.0,0.0,0.0,0.0,0.0,0.0,0.0,0.0,0.0,0.0,0.0,0.0,0.0,0.0,0.0,0.0,0.0,0.0,0.0,0.0,0.0,0.0,0.0,0.0,0.0,0.0,0.0,0.0,0.0,0.0,0.0,0.0,0.0,0.0,0.0,0.0,0.0,0.0,0.0,0.0,0.0,0.0,0.0,0.0,0.0,0.0,0.0,0.0,0.0,0.0,0.0,0.0,0.0,0.0,0.0,0.0,0.0,0.0,0.0,0.0,0.0,0.0,0.0,0.0,0.0,0.0,0.0,0.0,0.0,0.0,0.0,0.0,0.0,0.0,0.0,0.0,0.0,0.0,0.0,0.0,0.0,0.0,0.0,0.0,0.0,0.0,0.0,0.0,0.0,0.0,0.0,0.0,0.0,0.0,0.0,0.0,0.0,0.0,0.0,0.0,0.0,0.0,0.0,0.0,0.0,0.0,0.0,0.0,0.0,0.0,0.0,0.0,0.0,0.0,0.0,0.0,0.0,0.0,0.0,0.0,0.0,0.0,0.0,0.0,0.0,0.0,0.0,0.0,0.0,0.0,0.0,0.0,0.0,0.0,0.0,0.0,0.0,0.0,0.0,0.0,0.0,0.0,0.0,0.0,0.0,0.0,0.0,0.0,0.0,0.0,0.0,0.0,0.0,0.0,0.0,0.0,0.0,0.0,0.0,0.0,0.0,0.0,0.0,0.0,0.0,0.0,0.0,0.0,0.0,0.0,0.0,0.0,0.0,0.0,0.0,0.0,0.0,0.0,0.0,0.0,0.0,0.0,0.0,0.0,0.0,0.0,0.0,0.0,0.0,0.0,0.0,0.0,0.0,0.0,0.0,0.0,0.0,0.0,0.0,0.0,0.0,0.0,0.0,0.0,0.0,0.0,0.0,0.0,0.0,0.0,0.0,0.0,0.0,0.0,0.0,0.0,0.0,0.0,0.0,0.0,0.0,0.0,0.0,0.0,0.0,0.0,0.0,0.0,0.0,0.0,0.0,0.0,0.0,0.0,0.0,0.0,0.0,0.0,0.0,0.0,0.0,0.0,0.0,0.0,0.0,0.0,0.0,0.0,0.0,0.0,0.0,0.0,0.0,0.0,0.0,0.0,0.0,0.0,0.0,0.0,0.0,0.0,0.0,0.0,0.0,0.0,0.0,0.0,0.0,0.0,0.0,0.0,0.0,0.0,0.0,0.0,0.0,0.0,0.0,0.0,0.0,0.0,0.0,0.0,0.0,0.0,0.0,0.0,0.0,0.0,0.0,0.0,0.0,0.0,0.0,0.0,0.0,0.0,0.0,0.0,0.0,0.0,0.0,0.0,0.0,0.0,0.0,0.0,0.0,0.0,0.0,0.0,0.0,0.0,0.0,0.0,0.0,0.0,0.0,0.0,0.0,0.0,0.0,0.0,0.0,0.0,0.0,0.0,0.0,0.0,0.0,0.0,0.0,0.0,0.0,0.0,0.0,0.0,0.0,0.0,0.0,0.0,0.0,0.0,0.0,0.0,0.0,0.0,0.0,0.0,0.0,0.0,0.0,0.0,0.0,0.0,0.0,0.0,0.0,0.0,0.0,0.0,0.0,0.0,0.0,0.0,0.0,0.0,0.0,0.0,0.0,0.0,0.0,0.0,0.0,0.0,0.0,0.0,0.0,0.0,0.0,0.0,0.0,0.0,0.0,0.0,0.0,0.0,0.0,0.0,0.0,0.0,0.0,0.0,0.0,0.0,0.0,0.0,0.0,0.0,0.0,0.0,0.0,0.0,0.0,0.0,0.0,0.0,0.0,0.0,0.0,0.0,0.0,2.3417,0.0,0.0,0.0,0.0,0.0,0.0,0.0,0.0,0.0,0.0,0.0,0.0,0.0,0.0,0.0,0.0,0.0,0.0,0.0,0.0,0.0,0.0,0.0,0.0,0.0,0.0,0.0,0.0,0.0,0.0,0.0,0.0,0.0,0.0,0.0,0.0,0.0,0.0,0.0,0.0,0.0,0.0,0.0,0.0,0.0,0.0,0.0,0.0,0.0,0.0,0.0,0.0,0.0,0.0,0.0,0.0,0.0,0.0,0.0,0.0,0.0,0.0,0.0,0.0,0.0,0.0,0.0,0.0,0.0,0.0,0.0,0.0,0.0,0.0,0.0,0.0,0.0,0.0,0.0,0.0,0.0,0.0,0.0,0.0,0.0,0.0,0.0,0.0,0.0,0.0,0.0,0.0,0.0,0.0,0.0,0.0,0.0,0.0,0.0,0.0,0.0,0.0,0.0,0.0,0.0,0.0,0.0,0.0,0.0,0.0,2.4652,2.3925,2.3569,2.3224,2.2818,0.0,0.0,0.0,0.0,0.0,0.0,0.0,0.0,0.0,0.0,0.0,0.0,0.0,0.0,0.0,0.0,0.0,0.0,0.0,0.0,0.0,0.0,0.0,0.0,0.0,0.0,0.0,0.0,0.0,0.0,0.0,0.0,0.0,0.0,0.0,0.0,0.0,0.0,0.0,0.0,0.0,0.0,0.0,0.0,0.0,0.0,0.0,0.0,0.0,0.0,0.0,0.0,0.0,0.0,0.0,0.0,0.0,0.0,0.0,0.0,0.0,0.0,0.0,0.0,0.0,0.0,0.0,0.0,0.0,0.0,0.0,0.0,0.0,0.0,0.0,0.0,0.0,0.0,0.0,0.0,0.0,0.0,0.0,0.0,0.0,0.0,0.0,0.0,0.0,0.0,0.0,0.0,0.0,0.0,0.0,0.0,0.0,0.0,0.0,0.0,0.0,0.0,0.0,0.0,0.0,0.0,0.0,0.0,0.0,0.0,0.0,0.0,2.3146,2.2893,2.2358,0.0,0.0,0.0,0.0,0.0,0.0,0.0,0.0,0.0,0.0,0.0,0.0,0.0,0.0,0.0,0.0,0.0,0.0,0.0,0.0,0.0,0.0,0.0,0.0,0.0,0.0,0.0,0.0,0.0,0.0,0.0,0.0,0.0,0.0,0.0,0.0,0.0,0.0,0.0,0.0,0.0,0.0,0.0,0.0,0.0,0.0,0.0,0.0,0.0,0.0,0.0,0.0,0.0,0.0,0.0,0.0,0.0,0.0,0.0,0.0,0.0,0.0,0.0,0.0,0.0,0.0,0.0,0.0,0.0,0.0,0.0,0.0,0.0,0.0,0.0,0.0,0.0,0.0,0.0,0.0,0.0,0.0,0.0,0.0,0.0,0.0,0.0,0.0,0.0,0.0,0.0,0.0,0.0,0.0,0.0,0.0,0.0,0.0,0.0,0.0,0.0,0.0,0.0,0.0,0.0,0.0,0.0,0.0,0.0,0.0,2.3204,2.2431,2.2422,0.0,2.2401,0.0,0.0,0.0,0.0,0.0,0.0,0.0,0.0,0.0,0.0,0.0,0.0,0.0,0.0,0.0,0.0,0.0,0.0,0.0,0.0,0.0,0.0,0.0,0.0,0.0,0.0,0.0,0.0,0.0,0.0,0.0,0.0,0.0,0.0,0.0,0.0,0.0,0.0,0.0,0.0,0.0,0.0,0.0,0.0,0.0,0.0,0.0,0.0,0.0,0.0,0.0,0.0,0.0,0.0,0.0,0.0,0.0,0.0,0.0,0.0,0.0,0.0,0.0,0.0,0.0,0.0,0.0,0.0,0.0,0.0,0.0,0.0,0.0,0.0,0.0,0.0,0.0,0.0,0.0,0.0,0.0,0.0,0.0,0.0,0.0,0.0,0.0,0.0,0.0,0.0,0.0,0.0,0.0,0.0,0.0,0.0,0.0,0.0,0.0,0.0,0.0,0.0,0.0,0.0,0.0,0.0,0.0,0.0,0.0,0.0,2.2669,2.2313,2.2313,2.2331,0.0,0.0,0.0,0.0,0.0,0.0,0.0,0.0,0.0,0.0,0.0,0.0,0.0,0.0,0.0,0.0,0.0,0.0,0.0,0.0,0.0,0.0,0.0,0.0,0.0,0.0,0.0,0.0,0.0,0.0,0.0,0.0,0.0,0.0,0.0,0.0,0.0,0.0,0.0,0.0,0.0,0.0,0.0,0.0,0.0,0.0,0.0,0.0,0.0,0.0,0.0,0.0,0.0,0.0,0.0,0.0,0.0,0.0,0.0,0.0,0.0,0.0,0.0,0.0,0.0,0.0,0.0,0.0,0.0,0.0,0.0,0.0,0.0,0.0,0.0,0.0,0.0,0.0,0.0,0.0,0.0,0.0,0.0,0.0,0.0,0.0,0.0,0.0,0.0,0.0,0.0,0.0,0.0,0.0,0.0,0.0,0.0,0.0,0.0,0.0,0.0,0.0,0.0,0.0,0.0,0.0,0.0,0.0,0.0,0.0,2.2453,2.2394,2.2303,2.2313,2.2345,2.2426,0.0,0.0,0.0,0.0,0.0,0.0,0.0,0.0,0.0,0.0,0.0,0.0,0.0,0.0,0.0,0.0,0.0,0.0,0.0,0.0,0.0,0.0,0.0,0.0,0.0,0.0,0.0,0.0,0.0,0.0,0.0,0.0,0.0,0.0,0.0,0.0,0.0,0.0,0.0,0.0,0.0,0.0,0.0,0.0,0.0,0.0,0.0,0.0,0.0,0.0,0.0,0.0,0.0,0.0,0.0,0.0,0.0,0.0,0.0,0.0,0.0,0.0,0.0,0.0,0.0,0.0,0.0,0.0,0.0,0.0,0.0,0.0,0.0,0.0,0.0,0.0,0.0,0.0,0.0,0.0,0.0,0.0,0.0,0.0,0.0,0.0,0.0,0.0,0.0,0.0,0.0,0.0,0.0,0.0,0.0,0.0,0.0,0.0,0.0,0.0,0.0,0.0,0.0,0.0,0.0,0.0,0.0,0.0,2.2508,2.2494,2.2426,2.2303,2.2313,2.2349,0.0,0.0,0.0,0.0,0.0,0.0,0.0,0.0,0.0,0.0,0.0,0.0,0.0,0.0,0.0,0.0,0.0,0.0,0.0,0.0,0.0,0.0,0.0,0.0,0.0,0.0,0.0,0.0,0.0,0.0,0.0,0.0,0.0,0.0,0.0,0.0,0.0,0.0,0.0,0.0,0.0,0.0,0.0,0.0,0.0,0.0,0.0,0.0,0.0,0.0,0.0,0.0,0.0,0.0,0.0,0.0,0.0,0.0,0.0,0.0,0.0,0.0,0.0,0.0,0.0,0.0,0.0,0.0,0.0,0.0,0.0,0.0,0.0,0.0,0.0,0.0,0.0,0.0,0.0,0.0,0.0,0.0,0.0,0.0,0.0,0.0,0.0,0.0,0.0,0.0,0.0,0.0,0.0,0.0,0.0,0.0,0.0,0.0,0.0,0.0,0.0,0.0,0.0,0.0,0.0,0.0,0.0,0.0,0.0,2.2515,2.2429,2.2352,2.2313,2.2313,2.2373,0.0,0.0,0.0,0.0,0.0,0.0,0.0,0.0,0.0,0.0,0.0,0.0,0.0,0.0,0.0,0.0,0.0,0.0,0.0,0.0,0.0,0.0,0.0,0.0,0.0,0.0,0.0,0.0,0.0,0.0,0.0,0.0,0.0,0.0,0.0,0.0,0.0,0.0,0.0,0.0,0.0,0.0,0.0,0.0,0.0,0.0,0.0,0.0,0.0,0.0,0.0,0.0,0.0,0.0,0.0,0.0,0.0,0.0,0.0,0.0,0.0,0.0,0.0,0.0,0.0,0.0,0.0,0.0,0.0,0.0,0.0,0.0,0.0,0.0,0.0,0.0,0.0,0.0,0.0,0.0,0.0,0.0,0.0,0.0,0.0,0.0,0.0,0.0,0.0,0.0,0.0,0.0,0.0,0.0,0.0,0.0,0.0,0.0,0.0,0.0,0.0,0.0,0.0,0.0,0.0,0.0,0.0,0.0,0.0,2.2508,0.0,2.2313,2.2313,2.2313,2.2352,0.0,0.0,0.0,0.0,0.0,0.0,0.0,0.0,0.0,0.0,0.0,0.0,0.0,0.0,0.0,0.0,0.0,0.0,0.0,0.0,0.0,0.0,0.0,0.0,0.0,0.0,0.0,0.0,0.0,0.0,0.0,0.0,0.0,0.0,0.0,0.0,0.0,0.0,0.0,0.0,0.0,0.0,0.0,0.0,0.0,0.0,0.0,0.0,0.0,0.0,0.0,0.0,0.0,0.0,0.0,0.0,0.0,0.0,0.0,0.0,0.0,0.0,0.0,0.0,0.0,0.0,0.0,0.0,0.0,0.0,0.0,0.0,0.0,0.0,0.0,0.0,0.0,0.0,0.0,0.0,0.0,0.0,0.0,0.0,0.0,0.0,0.0,0.0,0.0,0.0,0.0,0.0,0.0,0.0,0.0,0.0,0.0,0.0,0.0,0.0,0.0,0.0,0.0,0.0,0.0,0.0,0.0,0.0,2.2747,2.2497,2.2373,2.2313,2.2313,2.2313,2.2338,0.0,0.0,0.0,0.0,0.0,0.0,0.0,0.0,0.0,0.0,0.0,0.0,0.0,0.0,0.0,0.0,0.0,0.0,0.0,0.0,0.0,0.0,0.0,0.0,0.0,0.0,0.0,0.0,0.0,0.0,0.0,0.0,0.0,0.0,0.0,0.0,0.0,0.0,0.0,0.0,0.0,0.0,0.0,0.0,0.0,0.0,0.0,0.0,0.0,0.0,0.0,0.0,0.0,0.0,0.0,0.0,0.0,0.0,0.0,0.0,0.0,0.0,0.0,0.0,0.0,0.0,0.0,0.0,0.0,0.0,0.0,0.0,0.0,0.0,0.0,0.0,0.0,0.0,0.0,0.0,0.0,0.0,0.0,0.0,0.0,0.0,0.0,0.0,0.0,0.0,0.0,0.0,0.0,0.0,0.0,0.0,0.0,0.0,0.0,0.0,0.0,0.0,0.0,0.0,0.0,0.0,0.0,0.0,0.0,2.2449,2.2352,2.2313,2.2313,2.2313,2.2338,0.0,0.0,0.0,0.0,0.0,0.0,0.0,0.0,0.0,0.0,0.0,0.0,0.0,0.0,0.0,0.0,0.0,0.0,0.0,0.0,0.0,0.0,0.0,0.0,0.0,0.0,0.0,0.0,0.0,0.0,0.0,0.0,0.0,0.0,0.0,0.0,0.0,0.0,0.0,0.0,0.0,0.0,0.0,0.0,0.0,0.0,0.0,0.0,0.0,0.0,0.0,0.0,0.0,0.0,0.0,0.0,0.0,0.0,0.0,0.0,0.0,0.0,0.0,0.0,0.0,0.0,0.0,0.0,0.0,0.0,0.0,0.0,0.0,0.0,0.0,0.0,0.0,0.0,0.0,0.0,0.0,0.0,0.0,0.0,0.0,0.0,0.0,0.0,0.0,0.0,0.0,0.0,0.0,0.0,0.0,0.0,0.0,0.0,0.0,0.0,0.0,0.0,0.0,0.0,0.0,0.0,0.0,0.0,0.0,2.278,2.2709,2.2815,2.3113,2.2823,2.2702,2.2763,0.0,0.0,0.0,0.0,0.0,0.0,0.0,0.0,0.0,0.0,0.0,0.0,0.0,0.0,0.0,0.0,0.0,0.0,0.0,0.0,0.0,0.0,0.0,0.0,0.0,0.0,0.0,0.0,0.0,0.0,0.0,0.0,0.0,0.0,0.0,0.0,0.0,0.0,0.0,0.0,0.0,0.0,0.0,0.0,0.0,0.0,0.0,0.0,0.0,0.0,0.0,0.0,0.0,0.0,0.0,0.0,0.0,0.0,0.0,0.0,0.0,0.0,0.0,0.0,0.0,0.0,0.0,0.0,0.0,0.0,0.0,0.0,0.0,0.0,0.0,0.0,0.0,0.0,0.0,0.0,0.0,0.0,0.0,0.0,0.0,0.0,0.0,0.0,0.0,0.0,0.0,0.0,0.0,0.0,0.0,0.0,0.0,0.0,0.0,0.0,0.0,0.0,0.0,0.0,0.0,0.0,0.0,0.0,2.3519,2.3461,2.3765,2.4423,2.3712,2.3343,0.0,0.0,0.0,0.0,0.0,0.0,0.0,0.0,0.0,0.0,0.0,0.0,0.0,0.0,0.0,0.0,0.0,0.0,0.0,0.0,0.0,0.0,0.0,0.0,0.0,0.0,0.0,0.0,0.0,0.0,0.0,0.0,0.0,0.0,0.0,0.0,0.0,0.0,0.0,0.0,0.0,0.0,0.0,0.0,0.0,0.0,0.0,0.0,0.0,0.0,0.0,0.0,0.0,0.0,0.0,0.0,0.0,0.0,0.0,0.0,0.0,0.0,0.0,0.0,0.0,0.0,0.0,0.0,0.0,0.0,0.0,0.0,0.0,0.0,0.0,0.0,0.0,0.0,0.0,0.0,0.0,0.0,0.0,0.0,0.0,0.0,0.0,0.0,0.0,0.0,0.0,0.0,0.0,0.0,0.0,0.0,0.0,0.0,0.0,0.0,0.0,0.0,0.0,0.0,0.0,0.0,0.0,0.0,0.0,2.4966,2.4954,2.4786,2.4491,2.3774,2.3378,0.0,0.0,0.0,0.0,0.0,0.0,0.0,0.0,0.0,0.0,0.0,0.0,0.0,0.0,0.0,0.0,0.0,0.0,0.0,0.0,0.0,0.0,0.0,0.0,0.0,0.0,0.0,0.0,0.0,0.0,0.0,0.0,0.0,0.0,0.0,0.0,0.0,0.0,0.0,0.0,0.0,0.0,0.0,0.0,0.0,0.0,0.0,0.0,0.0,0.0,0.0,0.0,0.0,0.0,0.0,0.0,0.0,0.0,0.0,0.0,0.0,0.0,0.0,0.0,0.0,0.0,0.0,0.0,0.0,0.0,0.0,0.0,0.0,0.0,0.0,0.0,0.0,0.0,0.0,0.0,0.0,0.0,0.0,0.0,0.0,0.0,0.0,0.0,0.0,0.0,0.0,0.0,0.0,0.0,0.0,0.0,0.0,0.0,0.0,0.0,0.0,0.0,0.0,0.0,0.0,0.0,0.0,0.0,2.4569,2.5575,2.5872,2.5805,2.5439,2.4689,2.4157,0.0,0.0,0.0,0.0,0.0,0.0,0.0,0.0,0.0,0.0,0.0,0.0,0.0,0.0,0.0,0.0,0.0,0.0,0.0,0.0,0.0,0.0,0.0,0.0,0.0,0.0,0.0,0.0,0.0,0.0,0.0,0.0,0.0,0.0,0.0,0.0,0.0,0.0,0.0,0.0,0.0,0.0,0.0,0.0,0.0,0.0,0.0,0.0,0.0,0.0,0.0,0.0,0.0,0.0,0.0,0.0,0.0,0.0,0.0,0.0,0.0,0.0,0.0,0.0,0.0,0.0,0.0,0.0,0.0,0.0,0.0,0.0,0.0,0.0,0.0,0.0,0.0,0.0,0.0,0.0,0.0,0.0,0.0,0.0,0.0,0.0,0.0,0.0,0.0,0.0,0.0,0.0,0.0,0.0,0.0,0.0,0.0,0.0,0.0,0.0,0.0,0.0,0.0,0.0,0.0,0.0,0.0,0.0,2.5123,2.5702,2.6361,2.6691,2.6674,2.5932,2.5198,0.0,0.0,0.0,0.0,0.0,0.0,0.0,0.0,0.0,0.0,0.0,0.0,0.0,0.0,0.0,0.0,0.0,0.0,0.0,0.0,0.0,0.0,0.0,0.0,0.0,0.0,0.0,0.0,0.0,0.0,0.0,0.0,0.0,0.0,0.0,0.0,0.0,0.0,0.0,0.0,0.0,0.0,0.0,0.0,0.0,0.0,0.0,0.0,0.0,0.0,0.0,0.0,0.0,0.0,0.0,0.0,0.0,0.0,0.0,0.0,0.0,0.0,0.0,0.0,0.0,0.0,0.0,0.0,0.0,0.0,0.0,0.0,0.0,0.0,0.0,0.0,0.0,0.0,0.0,0.0,0.0,0.0,0.0,0.0,0.0,0.0,0.0,0.0,0.0,0.0,0.0,0.0,0.0,0.0,0.0,0.0,0.0,0.0,0.0,0.0,0.0,0.0,0.0,0.0,0.0,0.0,0.0,0.0,2.5914,2.6471,2.6615,2.6708,2.6708,2.5981,2.5229,0.0,0.0,0.0,0.0,0.0,0.0,0.0,0.0,0.0,0.0,0.0,0.0,0.0,0.0,0.0,0.0,0.0,0.0,0.0,0.0,0.0,0.0,0.0,0.0,0.0,0.0,0.0,0.0,0.0,0.0,0.0,0.0,0.0,0.0,0.0,0.0,0.0,0.0,0.0,0.0,0.0,0.0,0.0,0.0,0.0,0.0,0.0,0.0,2.2567,0.0,0.0,0.0,0.0,0.0,0.0,0.0,0.0,0.0,0.0,0.0,0.0,0.0,0.0,0.0,0.0,0.0,0.0,0.0,0.0,0.0,0.0,0.0,0.0,0.0,0.0,0.0,0.0,0.0,0.0,0.0,0.0,0.0,0.0,0.0,0.0,0.0,0.0,0.0,0.0,0.0,0.0,0.0,0.0,0.0,0.0,0.0,0.0,0.0,0.0,0.0,0.0,0.0,0.0,0.0,0.0,0.0,0.0,0.0,2.616,2.6683,2.6708,2.6708,2.67,2.6319,2.5786,0.0,0.0,0.0,0.0,0.0,0.0,0.0,0.0,0.0,0.0,0.0,0.0,0.0,0.0,0.0,0.0,0.0,0.0,0.0,0.0,0.0,0.0,0.0,0.0,0.0,0.0,0.0,0.0,0.0,0.0,0.0,0.0,0.0,0.0,0.0,0.0,0.0,0.0,0.0,0.0,0.0,0.0,0.0,0.0,0.0,0.0,0.0,0.0,0.0,0.0,0.0,0.0,0.0,0.0,0.0,0.0,0.0,0.0,0.0,0.0,0.0,0.0,0.0,0.0,0.0,0.0,0.0,0.0,0.0,0.0,0.0,0.0,0.0,0.0,0.0,0.0,0.0,0.0,0.0,0.0,0.0,0.0,0.0,0.0,0.0,0.0,0.0,0.0,0.0,0.0,0.0,0.0,0.0,0.0,0.0,0.0,0.0,0.0,0.0,0.0,0.0,0.0,0.0,0.0,0.0,0.0,0.0,2.5639,2.6279,2.6666,2.6708,2.6708,2.6708,2.6708,2.6353,2.5625,0.0,0.0,0.0,0.0,0.0,0.0,0.0,0.0,0.0,0.0,0.0,0.0,0.0,0.0,0.0,0.0,0.0,0.0,0.0,0.0,0.0,0.0,0.0,0.0,0.0,0.0,0.0,0.0,0.0,0.0,0.0,0.0,0.0,0.0,0.0,0.0,0.0,0.0,2.2049,2.2554,0.0,0.0,0.0,0.0,0.0,0.0,0.0,0.0,2.3733,0.0,0.0,0.0,0.0,0.0,0.0,0.0,0.0,0.0,0.0,0.0,0.0,0.0,0.0,0.0,0.0,0.0,0.0,0.0,0.0,0.0,0.0,0.0,0.0,0.0,0.0,0.0,0.0,0.0,0.0,0.0,0.0,0.0,0.0,0.0,0.0,0.0,0.0,0.0,0.0,0.0,0.0,0.0,0.0,0.0,0.0,0.0,0.0,0.0,0.0,0.0,0.0,0.0,0.0,0.0,0.0,2.4819,2.6135,2.6773,2.67,2.6708,2.6708,2.6708,2.6708,2.6353,2.5634,0.0,0.0,0.0,0.0,0.0,0.0,0.0,0.0,0.0,0.0,0.0,0.0,0.0,0.0,0.0,0.0,0.0,0.0,0.0,0.0,0.0,0.0,0.0,0.0,0.0,0.0,0.0,0.0,0.0,0.0,0.0,0.0,0.0,0.0,0.0,0.0,0.0,0.0,0.0,2.2899,2.3271,0.0,0.0,0.0,0.0,0.0,0.0,0.0,0.0,2.4185,0.0,0.0,0.0,0.0,0.0,0.0,0.0,0.0,0.0,0.0,0.0,0.0,0.0,0.0,0.0,0.0,0.0,0.0,0.0,0.0,0.0,0.0,0.0,0.0,0.0,0.0,0.0,0.0,0.0,0.0,0.0,0.0,0.0,0.0,0.0,0.0,0.0,0.0,0.0,0.0,0.0,0.0,0.0,0.0,0.0,0.0,0.0,0.0,0.0,0.0,0.0,0.0,0.0,0.0,0.0,2.5415,2.6395,2.6876,2.6716,2.6708,2.6708,2.6708,2.6708,2.6353,0.0,0.0,0.0,0.0,0.0,0.0,0.0,0.0,0.0,0.0,0.0,0.0,0.0,0.0,0.0,0.0,0.0,0.0,0.0,0.0,0.0,0.0,0.0,0.0,0.0,0.0,0.0,0.0,0.0,0.0,0.0,0.0,0.0,0.0,0.0,0.0,0.0,0.0,0.0,0.0,2.3603,2.3895,2.48,0.0,0.0,0.0,0.0,0.0,0.0,2.5363,2.5096,0.0,0.0,0.0,0.0,0.0,0.0,0.0,0.0,0.0,0.0,0.0,0.0,0.0,0.0,0.0,0.0,0.0,0.0,0.0,0.0,0.0,0.0,0.0,0.0,0.0,0.0,0.0,0.0,0.0,0.0,0.0,0.0,0.0,0.0,0.0,0.0,0.0,0.0,0.0,0.0,0.0,0.0,0.0,0.0,0.0,0.0,0.0,0.0,0.0,0.0,0.0,0.0,0.0,0.0,0.0,2.5906,2.6559,2.6842,2.67,2.6708,2.6708,2.6708,2.6708,2.6293,0.0,0.0,0.0,0.0,0.0,0.0,0.0,0.0,0.0,0.0,0.0,0.0,0.0,0.0,0.0,0.0,0.0,0.0,0.0,0.0,0.0,0.0,0.0,0.0,0.0,0.0,0.0,0.0,0.0,0.0,0.0,0.0,0.0,0.0,0.0,0.0,0.0,0.0,0.0,0.0,0.0,2.4528,2.5571,2.5673,0.0,0.0,0.0,0.0,2.5689,2.6084,0.0,0.0,0.0,0.0,0.0,0.0,0.0,0.0,0.0,0.0,0.0,0.0,0.0,0.0,0.0,0.0,0.0,0.0,0.0,0.0,0.0,0.0,0.0,0.0,0.0,0.0,0.0,0.0,0.0,0.0,0.0,0.0,0.0,0.0,0.0,0.0,0.0,0.0,0.0,0.0,0.0,0.0,0.0,0.0,0.0,0.0,0.0,0.0,0.0,0.0,0.0,0.0,0.0,0.0,0.0,0.0,2.5906,2.6559,2.6825,2.6716,2.6708,2.6708,2.6708,2.6708,2.6048,0.0,0.0,0.0,0.0,0.0,0.0,0.0,0.0,0.0,0.0,0.0,0.0,0.0,0.0,0.0,0.0,0.0,0.0,0.0,0.0,0.0,0.0,0.0,0.0,0.0,0.0,0.0,0.0,0.0,0.0,0.0,0.0,0.0,0.0,0.0,0.0,0.0,0.0,0.0,0.0,0.0,2.4825,2.6362,2.6514,2.6438,0.0,0.0,2.6437,2.648,2.659,0.0,0.0,0.0,0.0,0.0,0.0,0.0,0.0,0.0,0.0,0.0,0.0,0.0,0.0,0.0,0.0,0.0,0.0,0.0,0.0,0.0,0.0,0.0,0.0,0.0,0.0,0.0,0.0,0.0,0.0,0.0,0.0,0.0,0.0,0.0,0.0,0.0,0.0,0.0,0.0,0.0,0.0,0.0,0.0,0.0,0.0,0.0,0.0,0.0,0.0,0.0,0.0,0.0,0.0,0.0,2.5447,2.6504,2.6706,2.6767,2.67,2.6708,2.6708,2.6708,2.6708,2.6209,0.0,0.0,0.0,0.0,0.0,0.0,0.0,0.0,0.0,0.0,0.0,0.0,0.0,0.0,0.0,0.0,0.0,0.0,0.0,0.0,0.0,0.0,0.0,0.0,0.0,0.0,0.0,0.0,0.0,0.0,0.0,0.0,0.0,0.0,0.0,0.0,0.0,0.0,0.0,0.0,0.0,0.0,2.6471,2.6683,0.0,0.0,0.0,2.6615,2.664,0.0,0.0,0.0,0.0,0.0,0.0,0.0,0.0,0.0,0.0,0.0,0.0,0.0,0.0,0.0,0.0,0.0,0.0,0.0,0.0,0.0,0.0,0.0,0.0,0.0,0.0,0.0,0.0,0.0,0.0,0.0,0.0,0.0,0.0,0.0,0.0,0.0,0.0,0.0,0.0,0.0,0.0,0.0,0.0,0.0,0.0,0.0,0.0,0.0,0.0,0.0,0.0,0.0,0.0,0.0,0.0,0.0,2.6965,2.68,2.6708,2.6708,2.6708,2.6708,2.6708,2.6708,0.0,0.0,0.0,0.0,0.0,0.0,0.0,0.0,0.0,0.0,0.0,0.0,0.0,0.0,0.0,0.0,0.0,0.0,0.0,0.0,0.0,0.0,0.0,0.0,0.0,0.0,0.0,2.4186,0.0,0.0,0.0,0.0,0.0,0.0,0.0,0.0,0.0,0.0,0.0,0.0,0.0,0.0,2.4898,2.648,2.6708,2.6708,0.0,0.0,2.664,2.67,2.6649,2.6472,0.0,0.0,0.0,0.0,0.0,0.0,0.0,0.0,0.0,0.0,0.0,0.0,0.0,0.0,0.0,0.0,0.0,0.0,0.0,0.0,0.0,0.0,0.0,0.0,0.0,0.0,0.0,0.0,0.0,0.0,0.0,0.0,0.0,0.0,0.0,0.0,0.0,0.0,0.0,0.0,0.0,0.0,0.0,0.0,0.0,0.0,0.0,0.0,0.0,0.0,0.0,0.0,0.0,0.0,0.0,2.6923,2.68,2.6708,2.6708,2.6708,2.6708,2.6708,2.6708,2.6394,0.0,0.0,0.0,0.0,0.0,0.0,0.0,0.0,0.0,0.0,0.0,0.0,0.0,0.0,0.0,0.0,0.0,0.0,0.0,0.0,0.0,0.0,0.0,0.0,0.0,0.0,0.0,0.0,0.0,0.0,0.0,0.0,0.0,0.0,0.0,0.0,0.0,0.0,0.0,0.0,0.0,2.4937,2.648,2.6708,2.6708,0.0,0.0,2.6708,2.6708,2.6708,2.6733,2.6791,0.0,0.0,0.0,0.0,0.0,0.0,0.0,0.0,0.0,0.0,0.0,0.0,0.0,0.0,0.0,0.0,0.0,0.0,0.0,0.0,0.0,0.0,0.0,0.0,0.0,0.0,0.0,0.0,0.0,0.0,0.0,0.0,0.0,0.0,0.0,0.0,0.0,0.0,0.0,0.0,0.0,0.0,0.0,0.0,0.0,0.0,0.0,0.0,0.0,0.0,0.0,0.0,0.0,2.5479,2.6974,2.68,2.6708,2.6708,2.6708,2.6708,2.6708,2.6708,2.6614,0.0,0.0,0.0,0.0,0.0,0.0,0.0,0.0,0.0,0.0,0.0,0.0,0.0,0.0,0.0,0.0,0.0,0.0,0.0,0.0,0.0,0.0,0.0,0.0,0.0,0.0,0.0,0.0,2.6166,2.611,2.5072,0.0,0.0,0.0,0.0,0.0,0.0,0.0,0.0,0.0,0.0,2.5477,2.6531,2.6708,0.0,0.0,2.6708,2.6733,2.6817,2.6867,2.6916,2.7015,2.6244,0.0,0.0,0.0,0.0,0.0,0.0,0.0,0.0,0.0,0.0,0.0,0.0,0.0,0.0,0.0,0.0,0.0,0.0,0.0,0.0,0.0,0.0,0.0,0.0,0.0,0.0,0.0,0.0,0.0,0.0,0.0,0.0,0.0,0.0,0.0,0.0,0.0,0.0,0.0,0.0,0.0,0.0,0.0,0.0,0.0,0.0,0.0,0.0,0.0,0.0,0.0,0.0,2.5473,2.6999,2.6792,2.6708,2.6708,2.6708,2.6708,2.6708,2.6708,2.6775,0.0,0.0,0.0,0.0,0.0,0.0,0.0,0.0,0.0,0.0,0.0,0.0,0.0,0.0,0.0,0.0,0.0,0.0,0.0,0.0,0.0,0.0,0.0,0.0,0.0,0.0,0.0,0.0,2.6382,2.6018,2.4672,0.0,0.0,0.0,0.0,0.0,0.0,0.0,0.0,0.0,0.0,2.583,2.664,2.6758,2.6767,2.6792,2.68,2.6841,2.6958,2.7048,2.7169,2.726,0.0,0.0,0.0,0.0,0.0,0.0,0.0,0.0,0.0,0.0,0.0,0.0,0.0,0.0,0.0,0.0,0.0,0.0,0.0,0.0,0.0,0.0,0.0,0.0,0.0,0.0,0.0,0.0,0.0,0.0,0.0,0.0,0.0,0.0,0.0,0.0,0.0,0.0,0.0,0.0,0.0,0.0,0.0,0.0,0.0,0.0,0.0,0.0,0.0,0.0,0.0,0.0,0.0,2.5448,2.6974,2.68,2.67,2.67,2.67,2.67,2.67,2.6708,2.6775,2.6983,0.0,0.0,0.0,0.0,0.0,0.0,0.0,0.0,0.0,0.0,0.0,0.0,0.0,0.0,0.0,0.0,0.0,0.0,0.0,0.0,0.0,0.0,0.0,0.0,0.0,0.0,2.6087,2.5888,2.5457,0.0,0.0,0.0,0.0,0.0,0.0,0.0,0.0,0.0,0.0,2.5576,2.5904,2.6757,2.6884,2.6934,2.6983,2.7038,2.7111,2.7111,2.7261,2.7455,0.0,0.0,0.0,0.0,0.0,0.0,0.0,0.0,0.0,0.0,0.0,0.0,0.0,0.0,0.0,0.0,0.0,0.0,0.0,0.0,0.0,0.0,0.0,0.0,0.0,0.0,0.0,2.7623,2.7641,0.0,0.0,0.0,0.0,0.0,0.0,0.0,0.0,0.0,0.0,0.0,3.0197,3.0179,0.0,0.0,0.0,0.0,0.0,0.0,0.0,0.0,0.0,0.0,0.0,0.0,2.5596,2.6906,2.6933,2.6875,2.6842,2.6884,2.6892,2.6892,2.6892,2.6949,2.7062,0.0,0.0,0.0,0.0,0.0,0.0,0.0,0.0,0.0,0.0,0.0,0.0,0.0,0.0,0.0,0.0,0.0,0.0,0.0,0.0,0.0,0.0,0.0,0.0,0.0,2.6401,0.0,0.0,0.0,0.0,0.0,0.0,0.0,0.0,0.0,0.0,0.0,2.5043,2.555,2.6097,2.6579,2.6859,2.6966,2.7061,0.0,0.0,0.0,0.0,0.0,0.0,0.0,0.0,0.0,0.0,0.0,0.0,0.0,0.0,2.7513,2.7377,2.7819,2.8396,2.8945,0.0,0.0,0.0,0.0,0.0,0.0,0.0,0.0,0.0,0.0,0.0,0.0,0.0,0.0,0.0,0.0,2.9264,0.0,0.0,0.0,0.0,0.0,0.0,0.0,0.0,3.1733,3.2082,3.1825,3.1831,3.1806,0.0,3.0149,2.8789,0.0,0.0,0.0,0.0,0.0,0.0,0.0,0.0,2.5909,2.6948,2.6983,2.695,2.6926,2.6958,2.7008,2.7016,2.7024,2.7046,2.7111,2.6805,2.6611,0.0,0.0,0.0,0.0,0.0,0.0,0.0,0.0,0.0,0.0,0.0,0.0,0.0,0.0,0.0,0.0,0.0,0.0,0.0,0.0,0.0,0.0,0.0,2.7218,0.0,0.0,0.0,0.0,0.0,0.0,0.0,0.0,0.0,2.4944,2.5319,2.5742,2.6022,2.6545,2.6909,2.6999,0.0,0.0,0.0,0.0,0.0,0.0,0.0,2.807,2.8179,2.8395,2.8381,2.7937,2.7864,2.7876,2.7894,0.0,0.0,2.8856,2.906,2.9507,3.0338,2.8994,2.7905,2.8498,2.781,2.712,0.0,0.0,0.0,0.0,0.0,0.0,0.0,0.0,3.1585,3.1573,0.0,3.1567,0.0,0.0,0.0,0.0,0.0,0.0,0.0,0.0,3.3036,3.3385,3.2674,3.2631,3.2638,3.2546,3.1048,3.0253,3.0033,2.7661,0.0,0.0,0.0,0.0,0.0,0.0,2.6333,2.699,2.6942,2.69,2.6917,2.6975,2.7016,2.7007,2.7062,2.7093,2.7101,2.7271,2.721,2.6843,2.68,0.0,0.0,0.0,0.0,0.0,0.0,0.0,0.0,0.0,0.0,0.0,0.0,0.0,0.0,0.0,0.0,0.0,0.0,0.0,0.0,2.7645,0.0,0.0,0.0,0.0,0.0,0.0,0.0,0.0,0.0,0.0,2.5809,2.5779,2.6026,2.6815,0.0,0.0,0.0,0.0,2.7353,2.7686,2.7904,2.8032,2.8112,2.8273,2.847,2.8574,0.0,0.0,2.8881,2.8833,2.8791,2.881,2.9448,3.0021,2.9825,2.9217,2.9031,2.9815,2.9294,2.8761,2.8822,2.8761,2.867,3.2118,0.0,0.0,0.0,0.0,3.1342,3.1721,3.2391,3.2385,3.2391,3.2385,3.2391,0.0,0.0,0.0,0.0,0.0,0.0,3.2316,3.2314,3.327,3.3604,3.3378,3.3396,3.3378,3.3323,3.2373,3.1897,3.1793,3.0009,2.8348,2.694,0.0,0.0,0.0,0.0,2.6492,2.7035,2.7137,2.7129,2.703,2.7153,2.7218,2.721,2.7242,2.725,2.725,2.7297,2.7399,2.7558,2.7082,0.0,0.0,0.0,0.0,0.0,0.0,0.0,0.0,0.0,0.0,0.0,0.0,0.0,0.0,0.0,0.0,0.0,0.0,0.0,2.7532,2.7585,2.7711,0.0,0.0,0.0,0.0,0.0,0.0,0.0,0.0,0.0,2.726,2.7016,2.6988,0.0,0.0,2.7442,2.7544,2.7676,2.7879,2.8138,0.0,0.0,0.0,2.8569,2.865,2.8724,2.8846,2.8976,2.9045,2.904,2.904,2.9078,2.929,2.961,3.0104,2.9972,3.0021,3.0668,2.9875,2.9173,2.963,2.9362,2.8934,3.3278,3.2688,3.1976,3.1824,3.2096,3.2047,3.2453,3.3131,3.3131,3.3189,3.3278,3.3296,3.2877,3.2149,3.1697,0.0,0.0,0.0,3.2811,3.3084,3.354,3.3739,3.3721,3.3746,3.3739,3.3709,3.2955,3.2601,3.2583,3.0937,2.9558,2.839,0.0,0.0,2.6965,2.676,2.6801,2.7084,2.7176,2.7176,2.7111,2.7242,2.7307,2.7307,2.7307,2.7353,2.746,2.7353,2.7579,2.8158,2.7589,2.7386,0.0,0.0,0.0,0.0,0.0,0.0,0.0,0.0,0.0,0.0,0.0,2.5465,2.5738,0.0,0.0,0.0,2.7504,2.7687,2.8123,2.7961,0.0,0.0,0.0,0.0,0.0,0.0,0.0,2.8259,2.895,2.9193,2.86,2.84,2.8156,2.7692,2.7701,2.7814,2.7936,0.0,2.8161,2.8447,2.8549,2.8631,2.8712,2.8755,2.8816,2.8858,2.8947,2.9028,2.9096,2.9108,2.913,2.9197,2.9213,2.9361,2.9848,2.9854,3.0066,3.0802,2.9968,2.9312,2.9735,2.9404,2.9067,3.44,3.4091,3.2512,3.2225,3.2809,3.2834,3.3239,3.3855,3.3843,3.3986,3.4209,3.4215,3.3794,3.304,3.2047,0.0,0.0,3.2693,3.3084,3.3807,3.3782,3.38,3.3775,3.3782,3.3775,3.3775,3.3041,3.2656,3.2528,3.0986,3.0124,2.9964,2.8894,2.8063,2.7554,2.7353,2.7213,2.7125,2.7109,2.7127,2.7119,2.725,2.7307,2.7307,2.733,2.746,2.7679,2.7488,2.7748,2.8532,2.8253,2.8004,2.7906,0.0,0.0,0.0,0.0,0.0,0.0,0.0,0.0,0.0,0.0,0.0,0.0,0.0,0.0,0.0,2.8209,0.0,2.8754,2.8647,0.0,0.0,0.0,2.9998,3.0643,3.0754,3.0783,3.0726,0.0,0.0,0.0,0.0,2.9361,2.8316,2.8105,2.811,2.8302,2.8304,2.8339,2.86,2.8687,2.8737,2.8816,2.887,2.8917,2.8982,2.8987,2.9027,2.9108,2.913,2.9152,2.9224,2.9211,2.9235,2.9211,2.9266,2.9427,3.0187,2.9719,2.9207,2.9239,2.922,2.9178,3.4475,3.4388,3.3986,3.3824,3.3858,3.4004,3.4166,3.4341,3.4335,3.437,3.4426,3.4426,3.4231,3.3875,3.3442,3.333,3.3507,3.3513,3.3623,3.3782,3.3746,3.3719,3.3726,3.3726,3.3726,3.3726,3.3597,3.3195,3.2571,3.1592,3.0655,2.9861,2.8973,2.8357,2.8042,2.7836,2.7607,2.7419,2.7359,2.7296,2.7258,2.7274,2.7307,2.7315,2.7496,2.7627,2.7708,2.7826,2.8113,2.857,2.8495,2.8572,2.8774,2.8204,0.0,0.0,0.0,0.0,0.0,0.0,0.0,0.0,0.0,2.7291,2.7482,0.0,2.8619,0.0,2.8456,2.8607,2.9163,2.9208,0.0,0.0,3.0683,3.0736,3.0914,3.1344,3.1434,3.0991,3.1379,3.148,3.0888,3.0347,2.9916,2.9684,2.8956,2.8474,2.8588,2.8638,2.87,2.8816,2.8875,2.8923,2.8947,2.897,2.8988,2.8987,2.9045,2.9113,2.9162,2.9224,2.9267,2.9326,2.936,2.936,2.9341,2.9341,2.9416,2.9591,2.9407,2.9213,2.9213,2.9213,2.9213,3.4759,3.4684,3.4774,3.4694,3.4507,3.4497,3.4489,3.4489,3.4489,3.4561,3.4674,3.4551,3.44,3.4185,3.3914,3.3807,3.3807,3.3807,3.3807,3.3807,3.3748,3.3746,3.3746,3.3753,3.3753,3.3746,3.3787,3.3385,3.2583,3.1794,3.0894,2.9958,2.9174,2.8857,2.8978,2.8285,2.7844,2.7637,2.7503,2.7442,2.7473,2.7368,2.7321,2.7399,2.7572,2.7767,2.801,2.8037,2.8281,2.8749,2.87,2.8785,2.9072,2.8693,2.832,0.0,0.0,0.0,0.0,0.0,0.0,0.0,0.0,0.0,0.0,0.0,2.8857,0.0,2.8909,0.0,2.9212,2.9651,3.0277,3.1135,3.1354,3.1597,3.1995,3.2454,3.2615,3.2286,3.2572,3.2422,3.1442,3.1266,3.0797,2.9831,2.9454,2.9199,2.8901,2.8882,2.8893,2.8934,2.8964,2.8987,2.8987,2.9034,2.9033,2.9057,2.9089,2.9156,2.9235,2.9286,2.9323,2.9368,2.9383,2.9383,2.9383,2.9383,2.9409,2.9476,2.9438,2.9361,2.9304,2.9307,2.931,3.5094,3.4959,3.5124,3.5098,3.4917,3.4694,3.4574,3.4593,3.4593,3.4704,3.4875,3.4596,3.4366,3.4191,3.3921,3.3807,3.3807,3.3807,3.3807,3.3807,3.3807,3.3807,3.3807,3.3807,3.3807,3.3807,3.3807,3.3385,3.2583,3.1898,3.1146,3.0356,2.9653,2.9576,3.0042,2.8993,2.829,2.7995,2.7709,2.7622,2.7723,2.7481,2.7421,2.7542,2.7654,2.7929,2.8395,2.8226,2.8391,2.8946,2.8937,2.9016,2.9255,2.9426,2.9155,0.0,2.8421,0.0,0.0,0.0,0.0,0.0,0.0,0.0,0.0,2.9091,2.9028,2.8813,2.9614,2.997,2.9509,3.0302,3.111,3.1727,3.2053,3.2538,3.3263,3.3613,3.3807,3.3807,3.3807,3.3244,3.199,3.2192,3.1574,2.9867,2.9678,2.9629,2.9164,2.8975,2.8994,2.8987,2.8987,2.8987,2.9028,2.9068,2.9089,2.9106,2.918,2.924,2.9291,2.932,2.9362,2.9419,2.9456,2.9466,2.947,2.9456,2.9497,2.964,2.964,2.9608,2.9516,2.95,2.9506,3.517,3.516,3.5193,3.5166,3.5132,3.5098,3.5066,3.5066,3.5062,3.5004,3.4879,3.4452,3.4245,3.4179,3.3914,3.3807,3.3807,3.3807,3.3807,3.3807,3.3807,3.3807,3.3807,3.3807,3.3807,3.3807,3.3807,3.3385,3.2601,3.2442,3.1965,3.117,3.1023,3.0842,3.0661,0.0,0.0,0.0,2.8266,2.7894,2.7855,2.776,2.7726,2.7745,2.8073,0.0,2.8479,2.8688,2.8875,2.8994,2.964,0.0,0.0,0.0,0.0,0.0,0.0,0.0,0.0,0.0,0.0,0.0,3.0754,3.0246,2.9133,2.9538,3.0155,3.0777,3.0966,3.1293,3.1873,3.2089,3.2529,3.3264,3.3415,3.3529,3.3689,3.3755,3.3807,3.3807,3.3807,3.3678,3.3281,3.2382,3.1482,3.087,2.9947,2.9207,2.9042,2.9005,2.8987,2.8987,2.9011,2.9022,2.9085,2.9089,2.9141,2.918,2.9235,2.9272,2.9312,2.9438,2.9541,2.9565,2.9685,2.9809,2.979,2.9817,2.979,2.9855,2.9849,2.9836,2.9826,2.9798,2.9807,3.5186,0.0,3.5186,3.5186,0.0,3.5186,3.5186,3.5186,3.5186,3.5018,3.4674,3.435,3.4111,3.3998,3.3873,3.3807,3.3807,3.3807,3.3807,3.3807,3.3807,3.3807,3.3807,3.3807,3.3807,3.3807,3.3807,3.3385,3.2619,3.2601,3.2185,3.1409,3.1409,3.1504,3.1692,3.1843,3.1206,2.972,2.9103,2.8792,2.8826,2.8247,2.8184,2.8667,0.0,0.0,0.0,0.0,0.0,0.0,0.0,0.0,0.0,0.0,0.0,3.1231,3.1589,3.1593,3.1147,3.1405,3.1567,3.1489,3.1446,3.106,3.0246,3.0534,3.0869,3.1183,3.1643,3.1999,3.2157,3.2629,3.3043,3.3285,3.3458,3.3569,3.3557,3.37,3.3807,3.3807,3.3807,3.366,3.325,3.2571,3.1659,3.095,3.0515,2.9932,2.9222,2.9028,2.9011,2.9027,2.9062,2.9079,2.9128,2.9186,2.9207,2.9251,2.9294,2.9344,2.9355,2.9497,2.9603,2.9617,2.9769,2.9898,2.9902,2.9902,2.9903,2.9977,2.9996,3.0049,3.0115,3.0011,2.9926,3.5186,3.5186,3.5186,3.5186,3.5186,3.5186,3.5186,3.5186,0.0,0.0,0.0,3.432,3.413,3.3915,3.3888,3.3868,3.388,3.3815,3.3807,3.3807,3.3807,3.3807,3.3807,3.3807,3.3807,3.3807,3.3807,3.3458,3.2828,3.2828,3.2479,3.1886,3.1831,3.2161,3.2766,3.2768,3.1998,3.0613,3.012,2.9942,3.0016,2.9123,2.9031,2.9875,2.9303,2.9427,3.0308,3.0417,3.0772,3.1464,3.1733,3.1831,3.1837,3.2025,3.2108,3.2011,3.2147,3.2137,3.1938,3.1978,3.2004,3.1918,3.1856,3.1776,3.1629,3.1611,3.1583,3.1501,3.2288,3.2604,3.2114,3.2846,3.3273,3.3006,3.3221,3.3394,3.3426,3.3625,3.3807,3.3807,3.3807,3.3568,3.2994,3.2719,3.2168,3.1097,3.1151,3.1021,2.9677,2.9177,2.905,2.9119,2.913,2.9152,2.9194,2.9251,2.9307,2.9318,2.9365,2.9407,2.9455,2.957,2.9658,2.9715,2.9865,2.9977,2.9992,3.0008,3.0049,3.0145,3.0153,3.0209,3.0323,3.0195,3.0067,3.5205,3.5186,3.5186,3.5186,3.5186,3.5186,3.5186,3.5193,3.5004,3.4783,3.4489,3.447,3.4423,3.4398,3.4227,3.4142,3.413,3.3901,3.3807,0.0,3.3807,3.3807,3.3807,3.3807,3.3807,3.3807,3.3807,3.3752,3.3642,3.3623,3.3568,3.3458,3.3465,3.3501,3.3603,3.3344,3.2875,3.2251,3.1472,3.1042,3.0991,3.0784,3.0752,3.0947,3.0909,3.1016,3.1286,3.1371,3.1468,3.1591,3.2304,3.2716,3.2735,3.3406,3.3566,3.294,3.3479,3.3542,3.2808,3.3297,3.3615,3.3485,3.3465,3.3183,3.2509,3.2442,3.2704,3.332,3.3493,3.3603,3.3515,3.362,3.3687,3.3652,3.3694,3.3721,3.3732,3.3773,3.3807,3.3807,3.3807,3.3797,3.3623,3.3102,3.2624,3.2367,3.1838,3.1258,3.0408,2.9621,2.9228,2.9197,2.9197,2.9218,2.9267,2.9296,2.9328,2.9376,2.9402,2.9455,2.9546,2.971,2.9875,2.9992,3.0178,3.0286,3.0318,3.033,3.0327,3.0355,3.0351,3.0366,3.0406,3.0383,3.0377,3.6547,3.6547,3.6566,3.6298,3.587,3.5411,3.5132,3.505,3.5059,3.4936,3.4704,3.4561,3.4437,3.4325,3.4251,3.4124,3.3979,3.3848,3.3807,3.3807,3.3807,3.3807,3.3807,3.3807,3.3807,3.3807,3.3807,3.3807,3.3807,3.3807,3.3807,3.3807,3.3807,3.3807,3.38,3.3652,3.3463,3.3225,3.2428,3.1999,3.1937,3.1535,3.1554,3.1995,3.1691,3.1716,3.2237,3.2298,3.2513,3.292,3.3333,3.3543,3.3568,3.3926,3.4,3.3677,3.3999,3.4006,3.3586,3.3833,3.3953,3.388,3.3867,3.37,3.3275,3.325,3.3403,3.3752,3.3807,3.3807,3.3807,3.3807,3.3807,3.3807,3.3807,3.3807,3.3807,3.3807,3.3807,3.3814,3.3829,3.3855,3.3913,3.3245,3.2754,3.2736,3.2144,3.1525,3.1184,3.0467,2.9776,2.9373,2.9269,2.9291,2.9344,2.9355,2.937,2.9383,2.9456,2.9546,2.9658,2.9859,3.0059,3.0153,3.0313,3.0431,3.0439,3.0439,3.0458,3.0461,3.0469,3.0461,3.0466,3.0477,3.0474,3.7697,3.7697,3.7697,3.7349,3.6714,3.6046,3.5583,3.53,3.5624,3.5587,3.5234,3.4844,3.4535,3.438,3.4478,3.4408,3.4159,3.4109,3.4082,3.4057,3.4057,3.4075,3.4075,3.4057,3.4082,3.4039,3.3899,3.3807,3.3807,3.3807,3.3807,3.3825,3.3965,3.399,3.3807,3.399,3.399,3.3788,3.3189,3.2884,3.2846,3.2317,3.236,3.2889,3.2465,3.2476,3.3141,3.3178,3.3499,3.4068,3.4124,3.4124,3.413,3.4124,3.4148,3.4191,3.4216,3.4173,3.4105,3.4024,3.3984,3.3901,3.3901,3.3862,3.382,3.3807,3.3807,3.3807,3.3807,3.3807,3.3807,3.3807,3.3807,3.3807,3.3807,3.3807,3.3807,3.3807,3.3814,3.3834,3.388,3.3901,3.3829,3.3468,3.3161,3.3075,3.2611,3.2238,3.1832,3.1218,3.0508,2.9641,2.9323,2.9339,2.9378,2.9383,2.9409,2.9445,2.9555,2.9676,2.9809,3.0048,3.0209,3.0253,3.0375,3.0471,3.0482,3.0482,3.0479,3.0496,3.0482,3.0514,3.0522,3.0525,3.0517,3.7731,3.7697,3.7774,3.7659,3.7578,3.7468,3.6992,3.6474,3.7111,3.7039,3.629,3.5488,3.5052,3.4935,3.5353,3.5433,3.5224,3.4981,3.4887,3.4887,3.4894,3.4894,3.4876,3.4887,3.4894,3.4802,3.4204,3.3954,3.3954,3.3905,3.385,3.3899,3.4534,3.4552,3.399,3.4534,3.4552,3.3825,3.38,3.3745,3.371,3.3678,3.3743,3.3881,3.387,3.392,3.4018,3.4086,3.4117,3.4172,3.4191,3.4191,3.4191,3.4191,3.4191,3.4216,3.4216,3.4173,3.4111,3.4036,3.3991,3.3908,3.3901,3.3868,3.382,3.3807,3.3807,3.3807,3.3807,3.3807,3.3807,3.3807,3.3807,3.3807,3.3807,3.3807,3.3814,3.3807,3.3834,3.39,3.3919,3.394,3.4005,3.3951,3.3969,3.3932,3.3777,3.3238,3.2135,3.1701,3.1072,2.9866,2.942,2.9402,2.9399,2.9383,2.9481,2.9617,2.969,2.9822,3.0032,3.017,3.0263,3.0414,3.0549,3.0606,3.0509,3.0485,3.0545,3.0514,3.0505,3.0523,3.0581,3.0586,3.0574,3.9221,3.924,3.9236,3.8935,3.8457,3.7922,3.7521,3.7268,3.7564,3.7502,3.7179,3.6662,3.6329,3.6155,3.622,3.6123,3.5933,3.5827,3.5764,3.5764,3.5771,3.5764,3.5764,3.5764,3.5764,3.5745,3.5429,3.5282,3.5289,3.5324,3.5347,3.542,3.5733,3.5699,3.537,3.5239,3.4981,3.4577,3.4172,3.394,3.3927,3.3985,3.4055,3.4061,3.413,3.4167,3.4197,3.4216,3.4216,3.4216,3.4216,3.4216,3.4216,3.4216,3.4216,3.4216,3.4216,3.4191,3.4161,3.4136,3.4074,3.3984,3.3953,3.3908,3.3827,3.3807,3.3807,3.3807,3.3807,3.3807,3.3807,3.3807,3.3807,3.3807,3.3807,3.382,3.3848,3.3848,3.39,3.3947,3.3992,3.4036,3.4093,3.4136,3.4167,3.4197,3.4197,3.3702,3.2667,3.2109,3.1381,3.0504,2.9912,2.9555,2.9501,2.9522,2.9622,2.9732,2.9888,3.0082,3.0196,3.0333,3.0436,3.0576,3.0929,3.097,3.0608,3.0972,3.1185,3.0837,3.055,3.0566,3.0595,3.0617,3.0586,4.0315,4.0325,4.032,3.9943,3.9312,3.8706,3.8266,3.8113,3.8285,3.8266,3.8076,3.8007,3.7902,3.7631,3.7161,3.6809,3.6644,3.6622,3.6622,3.6622,3.6641,3.6641,3.6622,3.6644,3.6644,3.66,3.6408,3.6338,3.6363,3.6405,3.645,3.6516,3.6708,3.6699,3.6392,3.5868,3.5584,3.5401,3.4545,3.4122,3.4332,3.421,3.4124,3.4111,3.4167,3.4216,3.4216,3.4216,3.4216,3.4216,3.4216,3.4216,3.4216,3.4216,3.4216,3.4216,3.4216,3.4216,3.4216,3.4216,3.4142,3.4023,3.4004,3.3953,3.3848,3.382,3.382,3.384,3.3822,3.3834,3.3807,3.3807,3.382,3.3815,3.384,3.3848,3.3933,3.3921,3.3953,3.4023,3.4061,3.4093,3.4136,3.4154,3.4197,3.4216,3.4197,3.3948,3.3181,3.24,3.1669,3.1092,3.0471,3.0034,2.9733,2.9712,2.9805,2.9923,3.01,3.0225,3.0404,3.06,3.0871,3.1197,3.1596,3.1618,3.1146,3.1422,3.1388,3.0866,3.0598,3.0598,3.0617,3.0617,3.0617,4.0314,4.0325,4.032,4.0306,4.0225,4.0172,3.9694,3.8977,3.9752,3.9699,3.9065,3.9447,3.9605,3.9238,3.8232,3.7655,3.7459,3.7445,3.7452,3.747,3.7452,3.7463,3.7463,3.7511,3.7503,3.7437,3.6956,3.665,3.6602,3.6579,3.6505,3.6585,3.7325,3.7292,3.672,3.6553,3.6436,3.6301,3.503,3.4543,3.5149,3.4624,3.4278,3.4266,3.4185,3.4296,3.4296,3.4253,3.4253,3.4234,3.4296,3.4253,3.424,3.4216,3.4216,3.4216,3.4216,3.4216,3.4216,3.4216,3.413,3.403,3.4011,3.3972,3.3901,3.386,3.3842,3.3888,3.3895,3.3868,3.3822,3.3834,3.3854,3.3881,3.3888,3.3927,3.3985,3.3998,3.4011,3.408,3.4105,3.4136,3.4185,3.4197,3.4216,3.4203,3.4203,3.4026,3.3462,3.2673,3.2001,3.1552,3.1209,3.0891,3.0213,3.0361,3.0375,3.0227,3.0337,3.0451,3.0777,3.1115,3.1463,3.1753,3.1927,3.1908,3.1659,3.135,3.0984,3.0656,3.0617,3.0617,3.0617,3.0617,3.0617,4.066,4.1136,4.1136,4.1098,4.1079,4.1103,4.0643,3.9878,4.0146,4.016,3.9917,3.9907,3.9867,3.9775,3.9229,3.8727,3.8368,3.8313,3.8343,3.8387,3.8387,3.8394,3.8394,3.8416,3.8416,3.8365,3.8168,3.8052,3.8095,3.8095,3.813,3.819,3.8449,3.8403,3.8072,3.7606,3.7372,3.7239,3.6262,3.5936,3.6171,3.5937,3.5788,3.5732,3.5268,3.5281,3.5782,3.5801,3.5801,3.5801,3.5318,3.5021,3.4983,3.45,3.4216,3.4216,3.4216,3.4216,3.4216,3.4216,3.4161,3.4062,3.4068,3.4055,3.3997,3.3947,3.394,3.399,3.3978,3.3965,3.3934,3.3921,3.3952,3.3953,3.3984,3.3992,3.4049,3.4086,3.4093,3.4148,3.4167,3.4179,3.4191,3.4216,3.4216,3.4221,3.434,3.4319,3.4129,3.3544,3.2999,3.2924,3.2551,3.2166,3.2107,3.1898,3.1686,3.0956,3.0733,3.1121,3.1497,3.1659,3.1947,3.2546,3.2623,3.2452,3.2297,3.1734,3.1234,3.0658,3.0619,3.0601,3.0617,3.0612,3.0623,4.1294,4.1957,4.2014,4.1843,4.1571,4.1618,4.1306,4.0774,4.075,4.0921,4.1104,4.0969,4.0847,4.0777,4.0615,4.0326,3.9904,3.9637,3.9595,3.975,3.9539,3.937,3.9239,3.9043,3.8914,3.8899,3.8932,3.8976,3.901,3.9036,3.9064,3.9082,3.9101,3.9073,3.8927,3.8275,3.7978,3.7981,3.7217,3.6804,3.7009,3.6823,3.6841,3.6965,3.6569,3.6377,3.6711,3.6711,3.6711,3.6637,3.6172,3.59,3.5838,3.5336,3.4872,3.4668,3.4624,3.4476,3.4259,3.4216,3.4173,3.413,3.4364,3.4487,3.4468,3.467,3.4818,3.4806,3.4554,3.4443,3.4394,3.424,3.4055,3.4042,3.4036,3.4043,3.4124,3.4117,3.4136,3.4185,3.4216,3.4216,3.4216,3.4216,3.4264,3.4305,3.4493,3.462,3.4685,3.4239,3.3865,3.4008,3.3628,3.3215,3.3167,3.3176,3.2559,3.1808,3.1361,3.1755,3.2123,3.2278,3.2665,3.3264,3.34,3.3187,3.2781,3.2198,3.1567,3.088,3.0604,3.0614,3.0614,3.0645,3.0636,4.2164,4.2859,4.2898,4.2428,4.1844,4.1715,4.1681,4.1508,4.1566,4.19,4.2365,4.2692,4.2479,4.2441,4.2249,4.2303,4.2043,4.1399,4.1186,4.1422,4.0841,4.036,4.0052,3.9473,3.9074,3.8939,3.8983,3.9036,3.9087,3.9087,3.9094,3.9101,3.9101,3.9094,3.9094,3.8414,3.8339,3.8555,3.7622,3.7231,3.7708,3.7269,3.725,3.7826,3.7845,3.7529,3.6878,3.686,3.6934,3.686,3.6767,3.6711,3.6618,3.6532,3.6272,3.5529,3.5429,3.5045,3.4333,3.4216,3.4191,3.4352,3.4908,3.5303,3.5464,3.5918,3.63,3.621,3.5779,3.539,3.5285,3.4742,3.4241,3.4117,3.4099,3.4111,3.416,3.4197,3.4216,3.4216,3.4216,3.4216,3.4203,3.4251,3.434,3.4498,3.4641,3.4794,3.503,3.4592,3.425,3.4321,3.4362,3.4204,3.4259,3.4248,3.3411,3.2676,3.2343,3.2355,3.2745,3.3015,3.3675,3.4253,3.4389,3.4159,3.2931,3.2391,3.215,3.1581,3.1185,3.0872,3.0919,3.0973,3.0727,4.3141,4.3748,4.3207,4.2824,4.2461,4.1937,4.1417,4.0961,4.1445,4.188,4.2208,4.2729,4.2948,4.293,4.2902,4.3186,4.3613,4.3341,4.2888,4.2261,4.1924,4.1375,4.0674,4.0348,3.9793,3.9147,3.9071,3.9092,3.9131,3.912,3.9101,3.9101,3.9101,3.9101,3.9082,3.8866,3.8897,3.899,3.8637,3.8488,3.8711,3.8476,3.8476,3.8674,3.8729,3.8588,3.8377,3.8339,3.8339,3.829,3.7826,3.7287,3.6841,3.6711,3.6321,3.5615,3.5485,3.512,3.4364,3.4253,3.4525,3.4959,3.5361,3.5751,3.6221,3.6511,3.6708,3.6716,3.6425,3.6295,3.6165,3.5565,3.4841,3.4247,3.4167,3.4173,3.4191,3.4216,3.4216,3.4216,3.4216,3.4216,3.4251,3.4327,3.4505,3.4632,3.487,3.5137,3.5185,3.5139,3.5148,3.5259,3.524,3.5107,3.5027,3.4814,3.4214,3.3673,3.3363,3.3054,3.3385,3.3871,3.4568,3.4951,3.5123,3.4645,3.343,3.2879,3.2761,3.2428,3.2101,3.182,3.1568,3.1332,3.1082,4.403,4.47,4.4196,4.3933,4.3815,4.3011,4.2386,4.201,4.2432,4.2699,4.29,4.3603,4.3987,4.4028,4.4032,4.4321,4.4763,4.4782,4.4354,4.3574,4.3102,4.2507,4.1694,4.1238,4.0568,3.983,3.9907,4.0037,4.0011,3.9733,3.9591,3.9572,3.9268,3.9101,3.9101,3.9101,3.9101,3.9101,3.9082,3.9101,3.9082,3.9101,3.9101,3.9082,3.9082,3.9101,3.9101,3.9101,3.9101,3.9027,3.8588,3.8086,3.764,3.7596,3.7231,3.6581,3.634,3.6061,3.5262,3.5225,3.5318,3.5857,3.621,3.6581,3.7101,3.7343,3.7578,3.7603,3.7318,3.7027,3.6656,3.5974,3.5157,3.4315,3.4197,3.4216,3.4216,3.4216,3.4216,3.4234,3.4287,3.4334,3.4407,3.454,3.475,3.487,3.5117,3.5362,3.5392,3.5523,3.5634,3.5682,3.5588,3.5532,3.5588,3.532,3.4971,3.4662,3.441,3.4101,3.4084,3.4607,3.5209,3.5347,3.55,3.5103,3.4036,3.4046,3.3952,3.35,3.2963,3.2481,3.2096,3.1717,3.1415,4.4801,4.5552,4.5532,4.5451,4.547,4.4658,4.4158,4.4182,4.4297,4.422,4.4374,4.497,4.5436,4.5518,4.5321,4.5383,4.5575,4.5498,4.5427,4.5091,4.4494,4.3711,4.3039,4.1916,4.1045,4.0691,4.1025,4.1356,4.1282,4.0613,4.0416,4.0223,3.9491,3.9101,3.9101,3.9101,3.9101,3.9101,3.9101,3.9101,3.9101,3.9101,3.9101,3.9101,3.9101,3.9122,3.9151,3.918,3.9178,3.9124,3.9095,3.899,3.9056,3.9124,3.867,3.7803,3.7851,3.7344,3.6836,3.6433,3.6581,3.6786,3.7287,3.7956,3.7993,3.8432,3.8767,3.8785,3.8321,3.7696,3.7009,3.6303,3.5448,3.4482,3.4296,3.4216,3.4216,3.4216,3.4209,3.4276,3.4439,3.461,3.4596,3.4789,3.5009,3.52,3.5295,3.5428,3.554,3.5637,3.5679,3.5706,3.5706,3.5706,3.5665,3.561,3.5284,3.5195,3.5048,3.4892,3.4712,3.5158,3.5497,3.5642,3.5679,3.5254,3.504,3.4953,3.474,3.4273,3.3698,3.3079,3.2575,3.2186,3.1581,4.4801,4.5518,4.4917,4.5379,4.6336,4.5624,4.4898,4.4451,4.5032,4.4917,4.4628,4.5225,4.5594,4.5594,4.5594,4.5594,4.5594,4.5594,4.5594,4.5571,4.5362,4.4628,4.3545,4.1933,4.1282,4.1506,4.1278,4.1021,4.1486,4.096,4.0544,4.0353,3.9677,3.9147,3.9101,3.9154,3.9101,3.9101,3.9115,3.9103,3.9129,3.9129,3.9101,3.9101,3.9122,3.9205,3.9376,3.9537,3.9531,3.9402,3.9401,3.9389,3.9414,3.95,3.9114,3.8237,3.809,3.7785,3.6999,3.6812,3.7022,3.7522,3.7867,3.8179,3.8755,3.8959,3.9089,3.9064,3.8859,3.8664,3.8334,3.761,3.6594,3.5374,3.4618,3.424,3.4234,3.4222,3.4233,3.434,3.4507,3.4667,3.4803,3.5013,3.522,3.532,3.5457,3.5586,3.5643,3.5676,3.5706,3.5706,3.5706,3.5706,3.5706,3.5706,3.5654,3.5587,3.5521,3.547,3.5369,3.5502,3.5677,3.5762,3.578,3.5476,3.5571,3.5611,3.5268,3.492,3.4609,3.4082,3.3202,3.2615,3.1795,4.6201,4.661,4.6105,4.6682,4.7774,4.7009,4.6355,4.599,4.6028,4.5667,4.5109,4.5364,4.5594,4.5594,4.5594,4.5594,4.5594,4.5594,4.5594,4.5594,4.5571,4.4963,4.3944,4.2742,4.2586,4.2624,4.2388,4.2585,4.2784,4.214,4.1802,4.1585,4.0521,3.9977,3.9965,3.9539,3.9402,3.9414,3.9389,3.9389,3.9383,3.9402,3.9408,3.9389,3.9408,3.9476,3.9625,3.9731,3.9731,3.9643,3.9614,3.9614,3.9638,3.972,3.9443,3.8708,3.8852,3.8626,3.8169,3.7995,3.822,3.8589,3.8702,3.8921,3.9271,3.9383,3.9402,3.9402,3.9402,3.9214,3.8733,3.7785,3.669,3.5694,3.488,3.44,3.4357,3.4379,3.4439,3.4577,3.4765,3.4916,3.5,3.5254,3.5405,3.5486,3.5586,3.5665,3.5704,3.5706,3.5706,3.5706,3.5709,3.5712,3.5702,3.5715,3.5727,3.5695,3.5727,3.5753,3.5744,3.5742,3.5777,3.5807,3.5819,3.5855,3.5893,3.5918,3.5781,3.5505,3.5364,3.4737,3.3741,3.3019,3.218,4.8005,4.8101,4.8082,4.8663,4.9279,4.8702,4.8163,4.7894,4.7274,4.6451,4.5706,4.5575,4.5594,4.5594,4.5594,4.5594,4.5594,4.5594,4.5594,4.5594,4.5528,4.5091,4.4408,4.4219,4.4012,4.3818,4.4445,4.4454,4.4184,4.3767,4.3538,4.296,4.1823,4.1308,4.1056,4.0497,4.0119,4.017,4.0066,4.0047,3.9958,3.9839,3.9715,3.975,3.9805,3.9803,3.9859,3.9906,3.9884,3.9877,3.9851,3.984,3.9864,3.9856,3.9792,3.974,3.9659,3.9672,3.9692,3.9491,3.9656,3.9634,3.9664,3.9803,3.9729,3.9726,3.972,3.9715,3.9778,3.9459,3.8837,3.726,3.6601,3.6272,3.5534,3.4986,3.4781,3.4708,3.4705,3.4883,3.5133,3.5281,3.5374,3.5486,3.5631,3.5583,3.5671,3.5676,3.5706,3.5706,3.5706,3.5706,3.5709,3.5698,3.5703,3.5705,3.5731,3.5735,3.5791,3.5819,3.5834,3.584,3.5873,3.5886,3.5893,3.5917,3.5975,3.5989,3.5986,3.5946,3.571,3.4828,3.3888,3.3423,3.2741,4.7528,4.8101,4.8101,4.899,5.0245,5.0188,4.9336,4.8082,4.7928,4.6971,4.5859,4.5614,4.5594,4.5594,4.5594,4.5594,4.5594,4.5594,4.5594,4.5594,4.5594,4.5524,4.5116,4.4789,4.4524,4.4552,4.4123,4.4256,4.4483,4.4189,4.363,4.3502,4.2813,4.2117,4.2077,4.1882,4.1845,4.1707,4.1182,4.0845,4.0668,4.0167,3.9877,3.9908,4.0047,4.012,4.0139,4.0267,4.0341,4.0296,4.019,4.0101,4.0144,4.025,4.0152,3.9959,4.0008,4.0013,3.9856,3.9845,3.9813,3.9851,3.9867,3.9803,3.9803,3.9835,3.9824,3.9803,3.9784,3.9718,3.9412,3.8617,3.796,3.762,3.7106,3.6488,3.6071,3.5352,3.5048,3.5064,3.5209,3.5338,3.5444,3.5574,3.5671,3.5704,3.5706,3.5706,3.5706,3.5706,3.5706,3.5706,3.5702,3.5701,3.5726,3.5731,3.579,3.5805,3.5854,3.5888,3.5914,3.5915,3.5917,3.5937,3.5973,3.5986,3.6002,3.6019,3.5998,3.6016,3.5899,3.4941,3.412,3.3731,3.2892,4.8933,4.9298,4.9317,4.961,5.0111,5.0476,4.9707,4.8312,4.8101,4.7394,4.6297,4.5821,4.5594,4.5594,4.5594,4.5594,4.5594,4.5614,4.584,4.6129,4.6259,4.6432,4.6716,4.6162,4.586,4.5472,4.4899,4.4852,4.4942,4.4817,4.461,4.447,4.3725,4.3359,4.3191,4.2942,4.269,4.2513,4.191,4.1494,4.1378,4.0651,4.0183,4.022,4.0324,4.0377,4.0394,4.0434,4.0519,4.0512,4.0421,4.0339,4.0362,4.0445,4.0345,4.0207,4.0226,4.0281,4.0148,4.0124,4.0138,4.012,4.0124,4.0129,4.0129,4.0129,4.0124,4.0124,4.0148,4.0105,3.996,3.9256,3.8866,3.8633,3.8056,3.7498,3.7176,3.6366,3.5568,3.5456,3.5448,3.5518,3.5611,3.5665,3.5695,3.5706,3.5706,3.5706,3.5706,3.5706,3.5706,3.5701,3.5706,3.5717,3.5722,3.5782,3.5856,3.5892,3.5937,3.5956,3.5972,3.5973,3.5973,3.5987,3.6002,3.5999,3.6015,3.6012,3.6011,3.6012,3.572,3.4919,3.4216,3.3632,3.2598,5.0572,5.0688,5.0558,5.0053,4.9567,4.999,4.9317,4.8029,4.7913,4.7317,4.6735,4.5994,4.584,4.5652,4.5821,4.5768,4.5614,4.5629,4.5917,4.6355,4.6678,4.7005,4.7423,4.7491,4.7188,4.6061,4.6016,4.6069,4.6074,4.5984,4.5945,4.5716,4.5156,4.4684,4.4391,4.3924,4.3642,4.3595,4.2926,4.2472,4.2314,4.1597,4.1184,4.1177,4.0931,4.09,4.083,4.0684,4.0531,4.0592,4.0542,4.0527,4.0504,4.0496,4.0492,4.0481,4.0469,4.0434,4.0418,4.0438,4.0461,4.0492,4.0485,4.0481,4.0469,4.043,4.0422,4.0453,4.0422,4.0381,4.0216,3.978,3.9372,3.9178,3.8586,3.8297,3.8156,3.7535,3.6899,3.597,3.5724,3.5626,3.5662,3.5701,3.5704,3.5706,3.5706,3.5709,3.5712,3.5731,3.5746,3.573,3.5726,3.5775,3.5785,3.5843,3.5917,3.5937,3.5987,3.6002,3.6014,3.5999,3.6003,3.5999,3.6013,3.6012,3.6012,3.6012,3.6011,3.6011,3.5718,3.5153,3.4372,3.3534,3.2362,5.0029,5.063,4.9918,4.9529,4.9298,4.8817,4.8086,4.7216,4.7158,4.6605,4.5975,4.6394,4.6163,4.5879,4.6413,4.6278,4.5706,4.5706,4.5859,4.6259,4.674,4.7312,4.7678,4.8225,4.8051,4.7862,4.7719,4.7677,4.757,4.7727,4.7206,4.6767,4.6465,4.6119,4.5579,4.5287,4.5021,4.4809,4.4191,4.382,4.3618,4.3009,4.2512,4.2454,4.198,4.1729,4.1517,4.1009,4.0577,4.06,4.0599,4.0638,4.0723,4.0685,4.0577,4.0492,4.0492,4.0492,4.0492,4.0492,4.0492,4.0492,4.0492,4.0492,4.0492,4.0496,4.0516,4.0519,4.0504,4.0485,4.0461,4.0257,4.0304,4.0231,4.0091,3.9774,3.9319,3.8849,3.8208,3.7101,3.6397,3.5784,3.5878,3.5842,3.5706,3.5706,3.5706,3.5706,3.5702,3.5766,3.5829,3.5797,3.5768,3.5825,3.5868,3.5937,3.599,3.5988,3.5998,3.5998,3.6012,3.6012,3.6011,3.6011,3.6011,3.6012,3.6011,3.6011,3.6011,3.6011,3.5718,3.5426,3.4353,3.3319,3.248,4.963,4.9913,4.9086,4.8471,4.824,4.8644,4.7778,4.649,4.7105,4.6797,4.6013,4.5994,4.5759,4.534,4.5836,4.5932,4.5782,4.6124,4.6471,4.6951,4.774,4.849,4.8692,4.9245,4.9422,4.9488,4.9468,4.8914,4.8283,4.8189,4.8047,4.7647,4.7262,4.6765,4.6348,4.592,4.5812,4.5588,4.502,4.4571,4.4488,4.3721,4.335,4.3134,4.2892,4.2621,4.2532,4.2284,4.1979,4.1982,4.1957,4.1924,4.1771,4.1424,4.0997,4.0673,4.0516,4.0492,4.0492,4.0492,4.0492,4.0492,4.0492,4.0492,4.0492,4.0496,4.0527,4.0542,4.0549,4.0537,4.0537,4.0594,4.0609,4.0665,4.068,4.051,4.0166,3.9779,3.905,3.8144,3.7254,3.6632,3.6303,3.6149,3.5803,3.5706,3.5729,3.5804,3.588,3.6006,3.6163,3.5847,3.5827,3.5883,3.5976,3.6129,3.6058,3.6014,3.6128,3.6128,3.6011,3.6011,3.6011,3.6011,3.6011,3.6011,3.6011,3.6011,3.6011,3.6011,3.5855,3.5426,3.4157,3.3085,3.2362,4.899,4.9067,4.8216,4.7485,4.7139,4.8086,4.7591,4.636,4.7028,4.6894,4.5956,4.5667,4.5263,4.4917,4.5225,4.5614,4.5706,4.6466,4.712,4.774,4.8754,4.974,5.0216,5.0495,5.0358,5.0423,5.0209,4.9957,4.9249,4.903,4.8788,4.8483,4.7808,4.7256,4.6959,4.6425,4.6089,4.5632,4.5241,4.4868,4.4655,4.4194,4.3808,4.375,4.361,4.351,4.3539,4.316,4.3053,4.3038,4.3058,4.3103,4.3011,4.2495,4.1825,4.1143,4.0739,4.0535,4.0492,4.0492,4.0492,4.0492,4.0492,4.0496,4.0531,4.0542,4.0557,4.0583,4.0586,4.0584,4.0581,4.0617,4.0651,4.0687,4.0723,4.0701,4.0546,4.0291,4.0001,3.9094,3.8086,3.7373,3.6931,3.6218,3.5836,3.6246,3.6292,3.6669,3.6725,3.6683,3.665,3.6085,3.5891,3.5937,3.6089,3.6376,3.623,3.6033,3.6285,3.6461,3.6226,3.6011,3.605,3.6109,3.6011,3.6011,3.6011,3.6011,3.6011,3.6011,3.6011,3.5347,3.4001,3.3202,3.2616,4.7601,4.8182,4.7389,4.6985,4.6793,4.6432,4.6456,4.6639,4.6206,4.6283,4.6466,4.5917,4.546,4.5417,4.5398,4.5552,4.5859,4.6475,4.699,4.7422,4.8743,4.9551,4.9676,4.9639,5.0257,5.0572,5.0149,5.0156,5.0132,5.0303,5.0026,4.9431,4.9107,4.8663,4.7302,4.6907,4.6551,4.5955,4.5707,4.5591,4.5552,4.5397,4.5339,4.5181,4.4787,4.4416,4.4365,4.3942,4.3559,4.3481,4.3345,4.325,4.3162,4.3133,4.3022,4.2452,4.1586,4.0516,4.0677,4.0816,4.072,4.0743,4.0623,4.0554,4.0557,4.0594,4.0593,4.0584,4.0595,4.0621,4.0631,4.0661,4.0671,4.071,4.0749,4.0778,4.0716,4.0639,4.0371,4.008,3.9098,3.8108,3.7392,3.6582,3.5935,3.6447,3.6914,3.7244,3.7395,3.724,3.7345,3.6873,3.666,3.6694,3.6786,3.6972,3.6852,3.6441,3.6675,3.6969,3.6852,3.6656,3.6226,3.6246,3.6187,3.607,3.6011,3.6011,3.6011,3.6011,3.6011,3.5055,3.3747,3.3221,3.2967,4.6663,4.7331,4.6509,4.6167,4.6182,4.624,4.624,4.609,4.5782,4.5821,4.5951,4.5263,4.5109,4.5417,4.5148,4.5128,4.5691,4.6512,4.6886,4.7246,4.8533,4.9465,4.9513,4.9586,5.0052,5.0417,5.0205,5.0198,5.0607,5.0781,5.0468,4.9776,4.9637,4.9084,4.7815,4.7331,4.6945,4.65,4.6113,4.5823,4.5803,4.5803,4.5803,4.5803,4.5416,4.5278,4.5142,4.5007,4.4717,4.4717,4.4684,4.4666,4.4536,4.4263,4.392,4.3832,4.2784,4.2129,4.2071,4.2029,4.1717,4.1373,4.1239,4.1115,4.0805,4.0637,4.0657,4.0657,4.0681,4.071,4.0726,4.0742,4.0749,4.0778,4.0784,4.0787,4.0794,4.0794,4.0645,4.0418,4.0123,3.9164,3.8358,3.7859,3.7354,3.7446,3.752,3.7431,3.7454,3.7282,3.7519,3.7785,3.7684,3.7679,3.7795,3.7927,3.7927,3.7692,3.7731,3.7927,3.7789,3.7516,3.7086,3.6813,3.6832,3.6617,3.6207,3.6011,3.6011,3.6011,3.6011,3.4977,3.404,3.4021,3.371,4.5359,4.5908,4.5706,4.5494,4.5379,4.6201,4.6201,4.5652,4.5614,4.5725,4.5667,4.5109,4.4955,4.5171,4.4936,4.5114,4.5633,4.65,4.6836,4.7454,4.8283,4.9046,4.9024,4.9134,4.9447,5.0549,4.9629,4.9927,5.0623,5.0821,5.0492,4.9745,4.9703,4.9184,4.8508,4.8101,4.7811,4.7389,4.6635,4.6268,4.6171,4.5923,4.5842,4.5803,4.5803,4.5803,4.5803,4.5745,4.5726,4.5687,4.5629,4.5534,4.5501,4.5111,4.4829,4.473,4.4078,4.3869,4.3627,4.3361,4.291,4.2408,4.1898,4.147,4.0779,4.0694,4.0733,4.0713,4.0771,4.0787,4.0794,4.081,4.079,4.079,4.0794,4.0794,4.0797,4.0809,4.0825,4.0676,4.0456,4.0275,3.9618,3.9291,3.8973,3.8698,3.8327,3.785,3.7751,3.775,3.794,3.8378,3.83,3.83,3.8416,3.8552,3.865,3.8806,3.8864,3.8708,3.8473,3.8317,3.8024,3.7809,3.7574,3.7105,3.6675,3.6324,3.6011,3.6011,3.5874,3.5192,3.4606,3.4588,3.4451,4.3297,4.3489,4.4955,4.5109,4.4489,4.5325,4.5629,4.5575,4.5537,4.5879,4.6278,4.5879,4.5032,4.4801,4.519,4.5445,4.5637,4.6519,4.6737,4.7114,4.7834,4.8299,4.8242,4.811,4.8249,4.9405,4.8933,4.9393,5.0415,5.0438,5.0186,4.9819,4.9819,4.9204,4.8894,4.8914,4.8643,4.8159,4.7389,4.6964,4.6693,4.6326,4.5884,4.5823,4.5803,4.5803,4.5803,4.5803,4.5803,4.5803,4.5803,4.5803,4.5754,4.5599,4.5476,4.5395,4.5353,4.5179,4.5017,4.4209,4.3342,4.2937,4.2472,4.1817,4.1025,4.0865,4.0845,4.0939,4.1023,4.0868,4.0852,4.0794,4.0794,4.0794,4.0794,4.0794,4.0809,4.08,4.0818,4.0845,4.0746,4.0566,4.0552,4.0159,3.9956,3.968,3.9235,3.8749,3.8847,3.8854,3.8773,3.8903,3.8787,3.8768,3.8807,3.9021,3.9489,3.9587,3.9587,3.9294,3.8962,3.8845,3.9059,3.8549,3.8256,3.769,3.7123,3.6705,3.635,3.6106,3.5776,3.5343,3.4835,3.4562,3.4641,4.3085,4.3162,4.382,4.4162,4.4278,4.4147,4.4648,4.5302,4.4532,4.4509,4.5393,4.5455,4.5417,4.5291,4.5374,4.5672,4.5704,4.5996,4.6205,4.6522,4.7048,4.7476,4.7394,4.7456,4.7753,4.8508,4.8121,4.8121,4.9184,4.9606,4.9277,4.9142,4.9935,4.9838,4.9664,4.9471,4.9184,4.8662,4.8082,4.7715,4.7061,4.6828,4.6345,4.5823,4.5803,4.5803,4.5803,4.5803,4.5803,4.5803,4.5803,4.5803,4.5803,4.5803,4.5803,4.5803,4.5803,4.5803,4.5803,4.5044,4.4431,4.3341,4.2926,4.2431,4.1654,4.1948,4.1912,4.1796,4.1529,4.1448,4.089,4.0832,4.0794,4.0794,4.0893,4.0974,4.0936,4.0995,4.0859,4.0912,4.0935,4.0869,4.0929,4.0937,4.0801,4.0603,4.0132,3.9739,3.9751,3.9785,3.9646,3.9664,3.9606,3.9762,3.9821,4.0133,4.0446,4.0348,4.0269,4.0036,3.9782,4.0192,4.023,3.9602,3.8912,3.8398,3.7806,3.7115,3.661,3.6174,3.598,3.578,3.5235,3.4689,3.4846,4.2316,4.2358,4.26,4.3201,4.3835,4.3605,4.4128,4.4917,4.4359,4.4124,4.4724,4.5372,4.5612,4.5648,4.5682,4.5679,4.5699,4.58,4.5812,4.6066,4.6416,4.667,4.6712,4.6828,4.7061,4.766,4.7641,4.7699,4.903,4.8836,4.9142,4.9684,5.0167,5.0225,4.9877,4.9916,4.9722,4.9301,4.8817,4.8585,4.795,4.7293,4.6906,4.619,4.6016,4.5803,4.5803,4.5803,4.5803,4.5803,4.5803,4.5803,4.5803,4.5803,4.5803,4.5807,4.5807,4.581,4.5807,4.5668,4.5146,4.401,4.3762,4.3224,4.2841,4.2957,4.2763,4.2512,4.2357,4.2125,4.1509,4.1741,4.1819,4.1973,4.1975,4.2013,4.1573,4.1427,4.114,4.0968,4.0984,4.0991,4.1035,4.107,4.1029,4.0908,4.0711,4.0357,4.0236,4.0271,4.0328,4.0406,4.0542,4.0777,4.105,4.0894,4.0738,4.0777,4.0738,4.0855,4.0836,4.1106,4.1042,4.041,3.9736,3.9177,3.8486,3.7719,3.6911,3.6106,3.5985,3.586,3.576,3.5292,3.537,4.0627,4.0646,4.1489,4.2316,4.3162,4.3932,4.4301,4.4686,4.5118,4.5387,4.5454,4.5661,4.5678,4.569,4.5688,4.5723,4.5715,4.5769,4.5811,4.5884,4.5963,4.5935,4.5958,4.6113,4.6442,4.6964,4.7061,4.766,4.9281,4.9184,4.9664,5.0302,5.0554,5.0573,4.9858,5.0492,5.0801,5.0689,4.9954,4.9629,4.9068,4.7966,4.7273,4.677,4.6151,4.5823,4.5803,4.5803,4.5803,4.5803,4.5815,4.5831,4.5807,4.5851,4.5854,4.5834,4.5841,4.5834,4.5814,4.581,4.5278,4.4617,4.4365,4.4152,4.3518,4.3417,4.3495,4.334,4.3285,4.3208,4.3131,4.3095,4.297,4.2895,4.2881,4.2788,4.2324,4.1849,4.1577,4.1315,4.1123,4.1015,4.1069,4.1097,4.1095,4.1072,4.109,4.0953,4.0719,4.068,4.0718,4.0796,4.0933,4.1011,4.1108,4.1108,4.105,4.1108,4.1106,4.1102,4.1096,4.1087,4.1003,4.0879,4.0453,3.9789,3.9065,3.8321,3.7409,3.655,3.6057,3.5877,3.5873,3.5851,3.5793,4.0492,4.0535,4.0819,4.1431,4.2293,4.3143,4.409,4.5094,4.5505,4.5657,4.5669,4.5687,4.5684,4.5696,4.5746,4.5769,4.5773,4.5787,4.5805,4.5809,4.58,4.5823,4.5803,4.5842,4.5997,4.6151,4.6364,4.6925,4.7869,4.8701,4.9374,4.9935,5.0689,5.0747,5.0612,5.0825,5.0879,5.0859,5.0554,5.0244,4.9645,4.8585,4.7715,4.7196,4.6387,4.5975,4.5921,4.5947,4.5922,4.5854,4.5854,4.5892,4.5873,4.5891,4.5985,4.5966,4.5969,4.5976,4.5905,4.5806,4.542,4.5052,4.4987,4.491,4.4307,4.4717,4.4601,4.4291,4.4182,4.3946,4.3417,4.3356,4.326,4.3265,4.3257,4.3276,4.2976,4.2443,4.2061,4.1794,4.1582,4.1305,4.1233,4.1327,4.1325,4.1147,4.1108,4.1108,4.0934,4.0953,4.0972,4.0991,4.1069,4.1089,4.1108,4.1108,4.1106,4.1104,4.1115,4.1105,4.1096,4.1065,4.1016,4.0929,4.069,4.0372,3.9514,3.865,3.7813,3.7051,3.6534,3.6041,3.588,3.5879,3.5879,4.0492,4.0569,4.1166,4.172,4.2316,4.2852,4.4061,4.5449,4.569,4.5683,4.5691,4.5708,4.5727,4.5739,4.5769,4.5806,4.581,4.5812,4.5803,4.5803,4.5803,4.5803,4.5803,4.5861,4.6113,4.6093,4.6364,4.6886,4.8314,4.8643,4.9393,5.0206,5.0612,5.0801,5.0859,5.0879,5.0898,5.0898,5.0747,5.0612,5.0051,4.9339,4.8604,4.8026,4.7338,4.6684,4.6439,4.6283,4.6199,4.6044,4.5952,4.5983,4.5981,4.6012,4.6092,4.6076,4.6054,4.6066,4.601,4.5973,4.5651,4.5295,4.5612,4.5497,4.5162,4.5378,4.5336,4.5146,4.5027,4.4738,4.4273,4.4172,4.4171,4.4199,4.4251,4.431,4.3917,4.3414,4.3027,4.2732,4.2358,4.1976,4.1577,4.1519,4.1596,4.1343,4.1108,4.1167,4.1206,4.1128,4.1128,4.1108,4.1108,4.1107,4.1108,4.1108,4.1105,4.1099,4.1105,4.1086,4.107,4.1037,4.1005,4.097,4.0807,4.0472,3.9762,3.8971,3.8209,3.7551,3.6985,3.6487,3.6016,3.6193,3.6489,4.0492,4.0766,4.2297,4.2878,4.2959,4.2984,4.4087,4.5623,4.5627,4.5607,4.563,4.5634,4.5595,4.5699,4.577,4.58,4.5816,4.5803,4.5803,4.5803,4.5803,4.5803,4.5861,4.5962,4.6364,4.6828,4.7235,4.785,4.9451,4.9684,5.0128,5.0608,5.0821,5.0898,5.0898,5.0898,5.0898,5.0898,5.0905,5.0835,5.0537,4.9967,4.951,4.902,4.8507,4.7709,4.731,4.7077,4.6707,4.6394,4.6095,4.6096,4.61,4.6103,4.6126,4.611,4.6099,4.6107,4.6102,4.6086,4.6042,4.5754,4.581,4.5796,4.5749,4.572,4.5676,4.5686,4.5602,4.572,4.5667,4.5651,4.5634,4.5681,4.5735,4.5489,4.5056,4.4628,4.4271,4.3933,4.3537,4.3119,4.2572,4.2357,4.228,4.2104,4.1967,4.1909,4.1811,4.1168,4.1147,4.1108,4.1107,4.1105,4.1104,4.1098,4.1069,4.1075,4.1065,4.1066,4.1026,4.1004,4.0966,4.0945,4.0937,4.0628,4.0125,3.9464,3.8682,3.8106,3.7821,3.7335,3.6987,3.743,3.7702,4.0492,4.0569,4.105,4.1278,4.1501,4.2652,4.4121,4.5515,4.5129,4.4854,4.4854,4.4914,4.4947,4.4974,4.5526,4.5726,4.5784,4.5803,4.5803,4.5803,4.5803,4.5803,4.5997,4.6348,4.6809,4.7254,4.7811,4.8624,4.9591,5.0152,5.055,5.0859,5.0936,5.0921,5.0917,5.091,5.091,5.0932,5.0984,5.1024,5.0858,5.0301,5.0051,4.9737,4.9138,4.8308,4.77,4.7425,4.6957,4.6308,4.617,4.6173,4.6121,4.6193,4.624,4.6239,4.6207,4.6165,4.618,4.6149,4.6095,4.6084,4.6031,4.5925,4.5866,4.5851,4.5886,4.5911,4.5954,4.5971,4.599,4.6031,4.608,4.6128,4.6164,4.5996,4.5582,4.5305,4.4962,4.4784,4.4427,4.3978,4.3469,4.3313,4.3217,4.3041,4.2865,4.2747,4.2513,4.1908,4.1592,4.1592,4.1332,4.1386,4.1158,4.1109,4.1057,4.1024,4.1033,4.1018,4.0993,4.0966,4.0941,4.0924,4.0914,4.0871,4.0694,3.9936,3.9082,3.9256,3.9047,3.8482,3.813,3.8559,3.8676,4.0492,4.0558,4.092,4.1455,4.2259,4.3271,4.4363,4.5078,4.4748,4.4543,4.4508,4.4219,4.4094,4.4226,4.4871,4.5297,4.5297,4.5668,4.5803,4.5803,4.5803,4.5803,4.6093,4.6693,4.7235,4.7753,4.8488,4.9374,5.0101,5.0579,5.0994,5.104,5.1011,5.1013,5.1017,5.1034,5.1042,5.1033,5.1056,5.1114,5.0916,5.0655,5.0513,5.0228,4.9541,4.8775,4.796,4.7734,4.7051,4.6348,4.6236,4.6449,4.6546,4.6792,4.6504,4.6465,4.6247,4.6242,4.6241,4.6194,4.6175,4.6143,4.6142,4.6073,4.6013,4.5978,4.5985,4.6,4.6033,4.6053,4.6078,4.6121,4.6182,4.623,4.6267,4.6297,4.6036,4.5776,4.5617,4.5481,4.5148,4.4719,4.4426,4.4309,4.4017,4.3587,4.337,4.3327,4.3191,4.2881,4.262,4.2556,4.2099,4.1759,4.1525,4.135,4.1201,4.1131,4.1004,4.0986,4.0956,4.0939,4.0924,4.0914,4.089,4.0849,4.0808,4.0225,3.9584,3.9817,3.9934,3.9448,3.9237,3.9647,3.9589,4.0496,4.0581,4.1447,4.2548,4.4147,4.4116,4.4272,4.4458,4.43,4.4365,4.413,4.3534,4.3205,4.3401,4.4249,4.4713,4.5007,4.5455,4.5803,4.5803,4.5803,4.5861,4.6306,4.6828,4.7776,4.8566,4.9357,5.0146,5.0697,5.1035,5.1133,5.1202,5.1193,5.1161,5.1152,5.1154,5.1154,5.1169,5.1152,5.1174,5.1214,5.1188,5.1208,5.1054,5.0422,4.9683,4.8771,4.8027,4.7305,4.6738,4.6543,4.6875,4.7187,4.7422,4.7031,4.6582,4.6308,4.6289,4.6289,4.6269,4.6249,4.6227,4.6205,4.6175,4.6137,4.6071,4.6061,4.6074,4.6104,4.6125,4.6179,4.6209,4.6249,4.6265,4.6278,4.6289,4.6188,4.6027,4.5988,4.591,4.5813,4.5422,4.5246,4.511,4.5032,4.4349,4.4166,4.4198,4.4076,4.3923,4.3581,4.3452,4.289,4.2425,4.2333,4.2079,4.154,4.1315,4.1225,4.0975,4.0952,4.0938,4.089,4.0888,4.0888,4.0888,4.0752,4.0186,3.9953,4.0325,4.0383,4.0225,4.0325,4.0499,4.0383,4.0531,4.0584,4.0858,4.163,4.2555,4.2601,4.3024,4.3514,4.2879,4.2689,4.2589,4.2418,4.2318,4.2492,4.3882,4.4481,4.4694,4.5358,4.5726,4.5803,4.5803,4.6074,4.6739,4.7369,4.8368,4.9419,5.0241,5.0789,5.1043,5.1162,5.1192,5.1203,5.1212,5.1222,5.1221,5.1221,5.1252,5.1271,5.1262,5.1247,5.1282,5.1324,5.1328,5.1288,5.0898,5.0136,4.9316,4.8672,4.8027,4.748,4.7344,4.7441,4.7577,4.7617,4.7148,4.6501,4.6287,4.6306,4.6304,4.6303,4.6286,4.6285,4.6267,4.6266,4.623,4.6158,4.6125,4.6134,4.6161,4.6209,4.625,4.6283,4.6291,4.6288,4.6306,4.6303,4.6301,4.6301,4.6301,4.6301,4.6301,4.6164,4.5969,4.5889,4.5871,4.5786,4.5695,4.5645,4.5496,4.5258,4.446,4.4171,4.3601,4.321,4.3123,4.2842,4.2322,4.198,4.1872,4.1504,4.1024,4.0927,4.0888,4.0888,4.0888,4.0888,4.0713,4.0208,4.0169,4.0597,4.0616,4.0381,4.0538,4.0733,4.0752,4.0569,4.0618,4.0689,4.1422,4.2385,4.2173,4.2299,4.257,4.2202,4.1811,4.1518,4.1502,4.149,4.1764,4.3266,4.4105,4.4337,4.532,4.5687,4.5803,4.5852,4.6039,4.6769,4.7575,4.8202,4.9223,5.0524,5.1145,5.1227,5.1234,5.1244,5.1271,5.1277,5.1282,5.1283,5.1284,5.1306,5.1327,5.1328,5.1347,5.1347,5.1382,5.1398,5.138,5.0893,5.0231,4.9782,4.9158,4.8652,4.8476,4.8555,4.8047,4.8043,4.8024,4.7497,4.6714,4.6303,4.6303,4.63,4.6298,4.6297,4.6295,4.6292,4.6276,4.6275,4.621,4.6211,4.6229,4.6229,4.6281,4.6281,4.6288,4.6306,4.6303,4.6303,4.6302,4.6301,4.6301,4.6301,4.6301,4.6301,4.6262,4.6121,4.6091,4.607,4.6064,4.6166,4.6138,4.6146,4.6155,4.5451,4.4906,4.4357,4.4083,4.4035,4.3656,4.3139,4.2835,4.258,4.1842,4.1276,4.1024,4.0888,4.0985,4.0985,4.0888,4.0635,4.0305,4.0364,4.0771,4.0674,4.0458,4.0691,4.0888,4.0849,4.0676,4.0768,4.0735,4.1632,4.286,4.2225,4.1847,4.185,4.1843,4.1521,4.1085,4.1072,4.0967,4.1539,4.2507,4.3073,4.3947,4.5289,4.5735,4.5817,4.5841,4.618,4.6583,4.7115,4.8258,4.9385,5.06,5.1091,5.1315,5.1306,5.1328,5.1382,5.1392,5.1396,5.1394,5.1396,5.1383,5.1386,5.1386,5.1381,5.1384,5.1389,5.1393,5.1122,5.0733,5.0245,4.9913,4.9543,4.9113,4.9231,4.9466,4.8938,4.8352,4.8157,4.7414,4.6709,4.63,4.6297,4.6294,4.6291,4.6288,4.6303,4.6302,4.6301,4.6302,4.6303,4.6306,4.6305,4.6303,4.6302,4.6302,4.6302,4.6302,4.6301,4.6301,4.6301,4.6301,4.6301,4.6301,4.6301,4.63,4.63,4.6269,4.6236,4.6226,4.6198,4.6175,4.614,4.6111,4.6083,4.5773,4.5492,4.5189,4.499,4.4916,4.4581,4.4093,4.3704,4.3357,4.2347,4.1529,4.1238,4.1121,4.1179,4.116,4.1005,4.0907,4.0713,4.0849,4.0985,4.0791,4.0653,4.0733,4.0888,4.0888,4.1058,4.1665,4.1055,4.1367,4.2083,4.1455,4.1111,4.1124,4.1185,4.1078,4.1155,4.1668,4.1929,4.199,4.2942,4.3668,4.4378,4.5481,4.5751,4.5808,4.5919,4.6344,4.6921,4.7566,4.9181,5.018,5.0848,5.119,5.1347,5.136,5.1368,5.1385,5.1384,5.1394,5.1394,5.1394,5.1394,5.1394,5.1394,5.1394,5.1394,5.1399,5.1398,5.1285,5.1251,5.0706,5.0259,4.9971,4.9894,4.9934,4.9893,4.9402,4.8738,4.8054,4.7331,4.6703,4.6293,4.6291,4.6288,4.6306,4.6302,4.6302,4.6301,4.6301,4.6302,4.6302,4.6302,4.6302,4.6302,4.6302,4.6302,4.6302,4.6301,4.6301,4.6301,4.6301,4.6301,4.6301,4.63,4.6299,4.6297,4.6269,4.6232,4.6199,4.6188,4.617,4.6137,4.61,4.6087,4.6042,4.6017,4.5901,4.5765,4.5835,4.5749,4.5574,4.5164,4.4737,4.4154,4.3199,4.2306,4.1468,4.1374,4.1743,4.1432,4.1102,4.1024,4.1451,4.114,4.1218,4.0985,4.0849,4.0888,4.0888,4.0888]}]]